     2              OBSERVATION DATA    GPS                 RINEX VERSION / TYPE
teqc 1997Jul24 19970814                                     PGM / RUN BY / DATE
                                                            COMMENT
BIT 2 OF LLI FLAGS DATA COLLECTED UNDER A-S CONDITION       COMMENT
BIT 2 OF LLI FLAGS DATA COLLECTED UNDER A-S CONDITION       COMMENT
Original Marker Name: 0507                                  COMMENT
Campaign Name: HPGN 1991                                    COMMENT
4-Character Station Name: 0507                              COMMENT
6-Character Antenna Code: TRMSST                            COMMENT
Vertical Measurement Point: BPA                             COMMENT
Vertical Offset to Rinex Ref. Point: 0.0000                 COMMENT
Radial Measurement Point: RRP                               COMMENT
Radial Offset to Rinex Ref. Point: 0.0000                   COMMENT
Antenna Height from Field Measurement: 2.2200 m             COMMENT
Original XYZ: -2679252.7909 -4453878.5036 3684282.5543      COMMENT
New XYZ position is based on association with SCEC monument COMMENT
E1F0J3S3+0011. Position of that monument is believed to be  COMMENT
valid to within 1 m horizontally; vertical accuracy         COMMENT
should be no worse than 3-times this value.                 COMMENT
                                                            COMMENT
Revised Rinex header created by UCSD GPS archive for        COMMENT
GSAC on 19-Apr-1999 (1999:109) 06:51:33 GMT                 COMMENT
For assistance contact dagnew@ucsd.edu or hjohnson@ucsd.edu COMMENT
                                                            COMMENT
HPGN CALIF STA 05 07 1990                                   MARKER NAME
unknown CALIF DEPT TRANSPORTATION                           OBSERVER / AGENCY
290 TRIMBLE 4000 SST NP 4.30 / SP 4.20                      REC # / TYPE / VERS
103 TR 4000SST L1/L2 GEO                                    ANT # / TYPE
 -2679252.0000 -4453877.0000  3684281.0000                  APPROX POSITION XYZ
        2.2200        0.0000        0.0000                  ANTENNA: DELTA H/E/N
     1     1     0                                          WAVELENGTH FACT L1/2
     3    C1    L1    L2                                    # / TYPES OF OBSERV
     0                                                      INTERVAL
  1991     5    13    18    24   15.000000                  TIME OF FIRST OBS
  1991     5    14     0    24   15.000000                  TIME OF LAST OBS
     0                                                      # OF SATELLITES
                                                            END OF HEADER
 91  5 13 18 24 15.0000000  0  4G18G 2G11G19
  20483115.5704         -0.11858
  23896852.344          -0.35315
  24104389.492          -0.06915
  20679813.3524         -0.05457
 91  5 13 18 24 30.0000000  0  4G18G 2G11G19
  20485286.086       11404.704 8        -0.24633
  23886643.844      -53650.164 5        -0.36031
  24096759.773      -40094.472 5
  20678553.4064      -6617.38147        -0.46972
 91  5 13 18 24 45.0000000  0  4G18G 2G11G19
  20487466.9844      22867.73148      8931.97563
  23876433.672     -107310.262 5    -41813.25421
  24089137.5784     -80163.42745        -0.47571
  20677293.8524     -13235.87647     -5157.73462
 91  5 13 18 25  0.0000000  0  4G18G 2G11G19
  20489662.4304      34402.54448     17920.13363
  23866222.3984    -160967.29645    -83623.75561
  24081519.734     -120193.324 5    -31192.54321
  20676037.0314     -19842.36347    -10305.64062
 91  5 13 18 25 15.0000000  0  4G18G 2G11G19
  20491871.7664      46017.75748     26970.94063
  23856010.7814    -214612.31445   -125424.90261
  24073909.461     -160174.877 5    -62346.95621
  20674782.8914     -26428.05547    -15437.34862
 91  5 13 18 25 30.0000000  0  4G18G 2G11G19
  20494100.2974      57721.87848     36091.02763
  23845810.063     -268236.678 5   -167209.95321
  24066315.992     -200099.326 5    -93456.86621
  20673539.1414     -32984.60947    -20546.34662
 91  5 13 18 25 45.0000000  0  4G18G 2G11G19
  20496345.3754      69521.69748     45285.68163
  23835598.891     -321833.335 5   -208973.40421
  24058727.742     -239959.369 5   -124516.63421
  20672295.2194     -39505.10847    -25627.25662
 91  5 13 18 26  0.0000000  0  4G18G 2G11G19
  20498609.3054      81419.68148     54556.82963
  23825413.031     -375399.625 5   -250713.20521
  24051157.773     -279752.126 5   -155523.89121
  20671064.8284     -45987.18647    -30678.22662
 91  5 13 18 26 15.0000000  0  4G18G 2G11G19
  20500891.2504      93414.65548     63903.55363
  23815226.125     -428936.579 5   -292430.12521
  24043598.727     -319478.404 5   -186479.42121
  20669834.5004     -52432.19747    -35700.30962
 91  5 13 18 26 30.0000000  0  4G18G 2G11G19
  20503192.7504     105508.33048     73327.18663
  23805043.3754    -482441.94345   -334122.44961
  24036048.773     -359135.926 5   -217381.35421
  20668619.7274     -58838.12547    -40691.94562
 91  5 13 18 26 45.0000000  0  4G18G 2G11G19
  20505513.109      117703.611 8     82829.98923
  23794873.594     -535912.932 5   -375787.99721
  24028515.133     -398721.747 5   -248227.38221
  20667403.9304     -65202.37647    -45651.09662
 91  5 13 18 27  0.0000000  0  4G18G 2G11G19
  20507854.336      130000.431 8     92411.91723
  23784703.2734    -589349.54545   -417426.76161
  24020996.047     -438235.296 5   -279017.12921
  20666205.3524     -71525.16147    -50577.94262
 91  5 13 18 27 15.0000000  0  4G18G 2G11G19
  20510213.5634     142399.94848    102073.86963
  23774539.8834    -642750.44345   -459037.71461
  24013492.773     -477675.312 5   -309749.56621
  20665006.3444     -77805.55147    -55471.74662
 91  5 13 18 27 30.0000000  0  4G18G 2G11G19
  20512592.7504     154900.82848    111814.80563
  23764376.7664    -696116.53045   -500621.54961
  24006001.9304    -517042.55045   -340425.28861
  20663819.5864     -84044.60547    -60333.34362
 91  5 13 18 27 45.0000000  0  4G18G 2G11G19
  20514990.2504     167504.47348    121635.81763
  23754234.0634    -749446.24145   -542177.01161
  23998524.406     -556335.029 5   -371042.75921
  20662641.7424     -90240.84847    -65161.58462
 91  5 13 18 28  0.0000000  0  4G18G 2G11G19
  20517408.438      180210.669 8    131536.73723
  23744099.6564    -802739.60445   -583704.14961
  23991062.781     -595552.592 5   -401601.85121
  20661471.5704     -96394.45347    -69956.59762
 91  5 13 18 28 15.0000000  0  4G18G 2G11G19
  20519847.617      193020.983 8    141518.78623
  23733963.484     -855994.839 6   -625201.57521
  23983613.0314    -634693.55545   -432101.25961
  20660306.4144    -102504.05647    -74717.32062
 91  5 13 18 28 30.0000000  0  4G18G 2G11G19
  20522303.3204     205934.49148    151581.25063
  23723837.258     -909212.565 5   -666669.78621
  23976179.836     -673758.270 5   -462541.26921
  20659153.9844    -108570.58447    -79444.48262
 91  5 13 18 28 45.0000000  0  4G18G 2G11G19
  20524781.859      218952.841 8    161725.40423
  23713709.2974    -962390.80445   -708107.26261
  23968762.070     -712744.469 5   -492920.05921
  20658004.8444    -114592.24847    -84136.67562
 91  5 13 18 29  0.0000000  0  4G18G 2G11G19
  20527279.094      232075.086 8    171950.51523
  23703604.7974   -1015530.61345   -749514.77661
  23961355.7894    -751652.88445   -523238.25761
  20656867.8364    -120570.22947    -88794.84762
 91  5 13 18 29 15.0000000  0  4G18G 2G11G19
  20529796.4384     245304.63348    182259.24263
  23693498.5394   -1068628.41246   -790889.53661
  23953967.8984    -790479.75846   -553492.92161
  20655741.9304    -126501.39347    -93416.52962
 91  5 13 18 29 30.0000000  0  4G18G 2G11G19
  20532332.727      258638.098 8    192648.94523
  23683401.7274   -1121687.42046   -832234.09361
  23946594.7814    -829228.20045   -583686.46461
  20654620.2734    -132389.10847    -98004.35562
 91  5 13 18 29 44.9990000  0  4G18G 2G11G19
  20534890.355      272076.391 8    203120.32623
  23673309.073    -1174701.938 5   -873543.99521
  23939237.6204    -867893.13646   -613814.94561
  20653510.3004    -138230.99347   -102556.47162
 91  5 13 18 29 59.9990000  0  4G18G 2G11G19
  20537467.190      285618.731 8    213672.78723
  23663229.8234   -1227681.28945   -914826.47761
  23931891.870     -906482.033 5   -643884.18421
  20652406.1204    -144030.43747   -107075.51862
 91  5 13 18 30 14.9990000  0  4G18G 2G11G19
  20540062.0654     299263.52048    224305.07763
  23653155.7614   -1280622.68046   -956079.38761
  23924564.050     -944992.553 5   -673892.32821
  20651309.0424    -149787.74147   -111561.72162
 91  5 13 18 30 29.9990000  0  4G18G 2G11G19
  20542679.081      313008.674 8    235015.57123
  23643089.6834   -1333527.83346   -997304.03861
  23917252.4094    -983426.27145   -703840.61261
  20650222.1284    -155505.01547   -116016.73662
 91  5 13 18 30 44.9990000  0  4G18G 2G11G19
  20545314.370      326854.925 8    245804.84123
  23633023.5264   -1386395.64245  -1038499.63261
  23909953.284    -1021781.958 6   -733728.13521
  20649140.1754    -161181.37847   -120439.86762
 91  5 13 18 30 59.9990000  0  4G18G 2G11G19
  20547965.933      340798.544 7    256669.98423
  23622969.769    -1439229.757 5  -1079668.96521
  23902667.4804   -1060063.25946   -763557.64861
  20648069.4954    -166820.90047   -124834.29662
 91  5 13 18 31 14.9990000  0  4G18G 2G11G19
  20550641.042      354844.290 7    267614.70623
  23612928.980    -1492025.221 6  -1120808.13921
  23895399.0424   -1098264.93246   -793325.14161
  20647003.0034    -172418.70747   -129196.22362
 91  5 13 18 31 29.9990000  0  4G18G 2G11G19
  20553330.690      368989.265 7    278636.74723
  23602880.323    -1544784.919 5  -1161919.46121
  23888144.0424   -1136389.50246   -823032.54261
  20645945.0894    -177977.85247   -133528.01662
 91  5 13 18 31 44.9990000  0  4G18G 2G11G19
  20556042.144      383231.606 7    289734.65923
  23592850.308    -1597510.537 5  -1203004.23921
  23880903.9724   -1174438.48146   -852681.05461
  20644893.5654    -183500.14547   -137831.08762
 91  5 13 18 31 59.9990000  0  4G18G 2G11G19
  20558770.644      397572.239 7    300909.16123
  23582833.964    -1650200.628 6  -1244061.31721
  23873675.987    -1212410.319 6   -882269.45721
  20643850.7534    -188984.46447   -142104.57762
 91  5 13 18 32 14.9990000  0  4G18G 2G11G19
  20561518.597      412010.811 7    312159.98223
  23572805.706    -1702855.286 6  -1285090.80521
  23866464.5504   -1250304.97145   -911797.69061
  20642813.8554    -194431.04547   -146348.65862
 91  5 13 18 32 29.9990000  0  4G18G 2G11G19
  20564287.073      426551.295 8    323490.20823
  23562793.519    -1755470.744 5  -1326089.74721
  23859268.034    -1288118.360 5   -941262.62021
  20641785.4954    -199836.29547   -150560.53662
 91  5 13 18 32 44.9990000  0  4G18G 2G11G19
  20567070.925      441188.893 7    334896.11323
  23552783.573    -1808051.707 5  -1367061.80621
  23852088.714    -1325854.913 6   -970667.68021
  20640763.4644    -205205.25347   -154744.13062
 91  5 13 18 32 59.9990000  0  4G18G 2G11G19
  20569876.425      455926.070 8    346379.61423
  23542785.558    -1860595.082 5  -1408004.58521
  23844923.5424   -1363511.39646  -1000010.33961
  20639752.5114    -210535.15347   -158897.29062
 91  5 13 18 33 14.9990000  0  4G18G 2G11G19
  20572697.722      470757.711 7    357936.71723
  23532799.8864   -1913105.65745  -1448921.79761
  23837770.815    -1401092.344 6  -1029294.12921
  20638741.9804    -215831.02147   -163023.93262
 91  5 13 18 33 29.9990000  0  4G18G 2G11G19
  20575538.4334     485689.99247    369572.24763
  23522811.222    -1965577.182 6  -1489808.55921
  23830637.815    -1438591.538 6  -1058514.25121
  20637742.9254    -221087.00147   -167119.49262
 91  5 13 18 33 44.9990000  0  4G18G 2G11G19
  20578399.003      500718.102 7    381282.44623
  23512832.058    -2018014.445 5  -1530668.65021
  23823512.4564   -1476013.48145  -1087674.15161
  20636748.9254    -226307.78047   -171187.62062
 91  5 13 18 33 59.9990000  0  4G18G 2G11G19
  20581276.855      515842.837 7    393067.93423
  23502863.175    -2070416.263 6  -1571501.11121
  23816408.425    -1513356.847 6  -1116772.81521
  20635761.8004    -231492.47047   -175227.63362
 91  5 13 18 34 14.9990000  0  4G18G 2G11G19
  20584174.776      531065.377 7    404929.63523
  23492893.9724   -2122781.10246  -1612304.76361
  23809316.2224   -1550619.89245  -1145808.91661
  20634783.573     -236639.859 7   -179238.57922
 91  5 13 18 34 29.9990000  0  4G18G 2G11G19
  20587089.995      546385.487 7    416867.36023
  23482938.597    -2175109.162 6  -1653079.76821
  23802239.315    -1587802.599 5  -1174782.39921
  20633811.1364    -241750.21847   -183220.66662
 91  5 13 18 34 44.9990000  0  4G18G 2G11G19
  20590024.815      561804.820 7    428882.40123
  23472990.472    -2227398.724 6  -1693824.75521
  23795181.151    -1624902.997 6  -1203691.76321
  20632844.3704    -246822.20747   -187172.85662
 91  5 13 18 34 59.9990000  0  4G18G 2G11G19
  20592976.862      577327.245 7    440977.77823
  23463045.3864   -2279645.53046  -1734536.44261
  23788139.589    -1661916.539 6  -1232533.42221
  20631888.1834    -251851.53047   -191091.79762
 91  5 13 18 35 14.9990000  0  4G18G 2G11G19
  20595950.355      592943.648 7    453146.38523
  23453111.7614   -2331858.33746  -1775221.62961
  23781109.862    -1698851.933 6  -1261314.19921
  20630936.3554    -256847.29747   -194984.59862
 91  5 13 18 35 29.9990000  0  4G18G 2G11G19
  20598940.261      608657.825 7    465391.18423
  23443177.698    -2384033.168 5  -1815877.23521
  23774094.8004   -1735704.98246  -1290030.81761
  20629994.706     -261805.808 7   -198848.35722
 91  5 13 18 35 44.9990000  0  4G18G 2G11G19
  20601949.323      624470.130 7    477712.43723
  23433265.0264   -2436169.72646  -1856503.03261
  23767097.1834   -1772475.29945  -1318682.97861
  20629056.6514    -266726.93447   -202682.99762
 91  5 13 18 35 59.9990000  0  4G18G 2G11G19
  20604976.987      640378.546 7    490108.58423
  23423346.3154   -2488269.77746  -1897100.35561
  23760118.2534   -1809164.34046  -1347271.77261
  20628127.3704    -271612.55547   -206489.96562
 91  5 13 18 36 14.9990000  0  5G18G 2G11G16G19
  20608021.761      656381.704 7    502578.56123
  23413441.1444   -2540334.35546  -1937670.04961
  23753150.573    -1845772.793 6  -1375797.83321
  24122138.4644         -0.52055
  20627202.6754    -276463.83347   -210270.17862
 91  5 13 18 36 29.9990000  0  5G18G 2G11G16G19
  20611084.659      672476.865 7    515120.22323
  23403536.144    -2592365.769 6  -1978213.88321
  23746197.7764   -1882303.00045  -1404262.88661
  24114998.0034     -37466.51044
  20626286.5974    -281283.70847   -214025.91862
 91  5 13 18 36 44.9990000  0  5G18G 2G11G16G19
  20614165.917      688669.471 7    527737.81323
  23393643.300    -2644358.580 6  -2018727.65021
  23739263.4874   -1918749.35746  -1432662.57161
  24107894.7144     -74833.56345
  20625375.2304    -286066.85647   -217753.04062
 91  5 13 18 36 59.9990000  0  5G18G 2G11G16G19
  20617264.839      704956.074 7    540428.65123
  23383760.5194   -2696315.84446  -2059213.71461
  23732344.2064   -1955114.69046  -1460999.17561
  24100798.1834    -112104.82145
  20624477.2614    -290816.54147   -221454.08862
 91  5 13 18 37 14.9990000  0  5G18G 2G11G16G19
  20620381.214      721335.018 7    553191.44723
  23373870.925    -2748239.290 5  -2099673.41921
  23725436.230    -1991400.480 6  -1489273.77321
  24093728.855     -149281.674 5
  20623574.5034    -295534.53747   -225130.43762
 91  5 13 18 37 29.9990000  0  5G18G 2G11G16G19
  20623517.034      737806.102 7    566026.04123
  23363996.8004   -2800128.59745  -2140106.51961
  23718550.276    -2027606.209 6  -1517485.98921
  24086665.987     -186363.934 5        -0.42131
  20622683.8944    -300220.83947   -228782.09462
 91  5 13 18 37 44.9990000  0  5G18G 2G11G16G19
  20626667.761      754371.884 7    578934.42123
  23354135.9644   -2851981.09845  -2180510.95061
  23711677.9724   -2063729.03546  -1545633.61861
  24079637.5504    -223349.07445    -28819.91361
  20621797.2304    -304873.04247   -232407.17862
 91  5 13 18 37 59.9990000  0  5G18G 2G11G16G19
  20629837.417      771028.914 7    591913.90523
  23344275.105    -2903799.972 6  -2220889.17821
  23704815.2614   -2099772.13846  -1573719.11161
  24072603.862     -260240.230 4    -57566.18321
  20620922.5344    -309494.43747   -236008.26262
 91  5 13 18 38 14.9990000  0  5G18G 2G11G16G19
  20633025.190      787775.223 7    604962.95323
  23334417.651    -2955587.254 6  -2261242.80021
  23697974.6904   -2135737.21046  -1601743.80261
  24065610.2764    -297038.89445    -86240.36261
  20620045.7304    -314087.02747   -239586.88762
 91  5 13 18 38 29.9990000  0  5G18G 2G11G16G19
  20636227.667      804608.292 7    618079.60823
  23324572.511    -3007344.808 6  -2301573.26321
  23691141.9874   -2171626.04446  -1629709.08861
  24058623.8624    -333747.21245   -114844.17561
  20619175.9954    -318653.08447   -243144.85062
 91  5 13 18 38 44.9990000  0  5G18G 2G11G16G19
  20639449.589      821531.646 7    631266.61823
  23314726.2144   -3059069.22546  -2341877.90061
  23684326.0504   -2207434.79646  -1657611.96961
  24051654.628     -370361.495 5   -143374.68821
  20618313.3084    -323189.33747   -246679.58162
 91  5 13 18 38 59.9990000  0  5G18G 2G11G16G19
  20642687.761      838552.871 7    644529.89023
  23304891.4484   -3110752.80346  -2382150.69061
  23677531.7224   -2243155.59646  -1685446.32161
  24044711.4564    -406873.83545   -171825.77861
  20617458.3864    -327688.37147   -250185.31462
 91  5 13 18 39 14.9990000  0  5G18G 2G11G16G19
  20645945.315      855669.517 7    657867.52223
  23295063.917    -3162397.478 6  -2422393.18321
  23670751.487    -2278790.366 6  -1713213.62121
  24037770.4804    -443286.57044   -200199.29861
  20616605.3864    -332152.46547   -253663.82062
 91  5 13 18 39 29.9990000  0  5G18G 2G11G16G19
  20649220.253      872880.983 7    671279.03123
  23285242.6904   -3214003.54446  -2462605.58061
  23663984.589    -2314339.197 6  -1740913.96721
  24030867.651     -479599.784 5   -228495.15621
  20615767.4014    -336582.17747   -257115.53762
 91  5 13 18 39 44.9990000  0  5G18G 2G11G16G19
  20652514.089      890192.987 7    684768.88823
  23275430.433    -3265565.306 6  -2502783.46121
  23657237.972    -2349795.984 6  -1768542.62621
  24023975.1514    -515807.75845   -256709.14361
  20614928.7454    -340971.66247   -260535.90962
 91  5 13 18 39 59.9990000  0  5G18G 2G11G16G19
  20655826.940      907601.165 7    698333.67723
  23265624.995    -3317086.859 6  -2542930.02221
  23650510.558    -2385164.727 6  -1796102.65121
  24017104.6594    -551914.43645   -284844.11261
  20614101.7454    -345325.29647   -263928.34162
 91  5 13 18 40 14.9990000  0  5G18G 2G11G16G19
  20659160.308      925108.914 7    711976.06123
  23255833.8784   -3368564.42046  -2583042.30261
  23643795.4874   -2420441.38846  -1823590.90361
  24010256.3234    -587916.12845   -312897.27661
  20613278.6514    -349639.57647   -267290.11662
 91  5 13 18 40 29.9990000  0  5G18G 2G11G16G19
  20662508.050      942711.741 7    725692.52923
  23246039.206    -3420002.429 6  -2623123.76921
  23637098.995    -2455630.228 6  -1851010.75221
  24003425.2224    -623816.88545   -340871.81661
  20612464.6204    -353919.05547   -270624.76662
 91  5 13 18 40 44.9990000  0  5G18G 2G11G16G19
  20665876.722      960412.144 7    739485.03423
  23236260.2144   -3471398.00846  -2663172.17261
  23630421.214    -2490728.316 6  -1878359.86921
  23996605.565     -659613.880 5   -368765.54821
  20611657.5264    -358161.32947   -273930.42762
 91  5 13 18 40 59.9990000  0  5G18G 2G11G16G19
  20669261.925      978202.645 7    753347.74023
  23226488.2224   -3522758.33546  -2703193.08361
  23623754.370    -2525742.758 6  -1905643.79521
  23989823.995     -695314.252 5   -396583.91121
  20610855.1204    -362373.65647   -277212.75762
 91  5 13 18 41 14.9990000  0  5G18G 2G11G16G19
  20672664.347      996085.989 7    767282.79623
  23216719.378    -3574080.773 6  -2743184.47921
  23617110.409    -2560670.719 6  -1932860.34721
  23983041.636     -730915.521 5   -424325.08721
  20610058.9404    -366553.57347   -280469.82562
 91  5 13 18 41 29.9990000  0  5G18G 2G11G16G19
  20676084.167     1014055.703 7    781285.14823
  23206961.362    -3625371.356 6  -2783151.03821
  23610480.9564   -2595517.89946  -1960013.95561
  23976289.5734    -766423.38745   -451993.45761
  20609269.3394    -370707.23247   -283706.43762
 91  5 13 18 41 44.9990000  0  5G18G 2G11G16G19
  20679520.581     1032113.752 7    795356.33323
  23197203.237    -3676627.981 6  -2823091.16421
  23603866.065    -2630281.943 6  -1987102.78521
  23969548.7304    -801835.83845   -479587.53561
  20608483.878     -374832.787 7   -286921.14422
 91  5 13 18 41 59.9990000  0  5G18G 2G11G16G19
  20682974.980     1050262.354 7    809498.07923
  23187458.831    -3727848.214 6  -2863002.92421
  23597265.683    -2664960.505 6  -2014124.98921
  23962828.6054    -837150.41745   -507105.27161
  20607706.2924    -378927.93147   -290112.16662
 91  5 13 18 42 14.9990000  0  5G18G 2G11G16G19
  20686445.612     1068500.385 7    823709.51123
  23177720.573    -3779032.985 6  -2902887.05021
  23590680.542    -2699554.168 6  -2041081.06221
  23956125.5974    -872368.12745   -534547.58661
  20606932.3944    -382993.88047   -293280.43462
 91  5 13 18 42 29.9990000  0  5G18G 2G11G16G19
  20689934.198     1086828.457 7    837991.10823
  23167983.878    -3830181.127 6  -2942742.64221
  23584115.558    -2734061.668 6  -2067969.99121
  23949440.5814    -907487.79845   -561913.52861
  20606163.2374    -387029.77747   -296425.28162
 91  5 13 18 42 44.9990000  0  5G18G 2G11G16G19
  20693436.081     1105237.964 7    852336.16023
  23158261.940    -3881301.175 6  -2982576.34721
  23577563.917    -2768491.112 6  -2094798.07621
  23942780.120     -942517.629 5   -589209.40121
  20605400.9874    -391044.10747   -299553.33062
 91  5 13 18 42 59.9990000  0  5G18G 2G11G16G19
  20696956.636     1123732.494 7    866747.46323
  23148534.1204   -3932389.20546  -3022385.10061
  23571027.8314   -2802838.64646  -2121562.35861
  23936127.878     -977453.821 5   -616432.33221
  20604641.5194    -395033.19347   -302661.69962
 91  5 13 18 43 14.9990000  0  5G18G 2G11G16G19
  20700492.136     1142314.343 7    881226.81023
  23138826.620    -3983442.795 6  -3062166.98921
  23564505.886    -2837101.582 6  -2148260.72721
  23929497.675    -1012293.856 5   -643580.31121
  20603886.1284    -398994.95347   -305748.77962
 91  5 13 18 43 29.9990000  0  5G18G 2G11G16G19
  20704045.745     1160986.825 7    895776.77823
  23129119.4484   -4034458.65246  -3101919.51161
  23558003.5814   -2871276.33146  -2174890.35961
  23922886.128    -1047034.390 5   -670650.80821
  20603139.6284    -402926.05247   -308811.96762
 91  5 13 18 43 44.9990000  0  5G18G 2G11G16G19
  20707615.894     1179750.263 7    910397.61923
  23119410.565    -4085435.954 6  -3141641.96421
  23551517.3784   -2905362.09046  -2201450.65661
  23916300.1594   -1081674.41645   -697642.99961
  20602397.0814    -406826.13547   -311850.98862
 91  5 13 18 43 59.9990000  0  5G18G 2G11G16G19
  20711203.417     1198602.040 7    925087.29423
  23109721.526    -4136377.108 6  -3181336.25121
  23545045.9014   -2939361.13646  -2227943.37261
  23909722.909    -1116216.509 5   -724558.81821
  20601658.9804    -410697.78447   -314867.85462
 91  5 13 18 44 14.9990000  0  5G18G 2G11G16G19
  20714806.925     1217542.371 7    939845.97423
  23100031.0504   -4187281.66446  -3221002.02961
  23538595.4644   -2973272.69946  -2254367.93961
  23903165.6594   -1150660.01545   -751397.83061
  20600927.6594    -414540.71447   -317862.33962
 91  5 13 18 44 29.9990000  0  5G18G 2G11G16G19
  20718428.300     1236571.410 7    954673.78223
  23090352.737    -4238149.087 6  -3260638.86521
  23532159.9014   -3007096.20246  -2280723.86661
  23896631.792    -1185004.231 5   -778159.55721
  20600203.6834    -418354.59547   -320834.19062
 91  5 13 18 44 44.9990000  0  5G18G 2G11G16G19
  20722066.401     1255690.107 7    969571.44823
  23080681.315    -4288978.034 6  -3300245.73221
  23525738.855    -3040830.077 6  -2307009.95721
  23890117.0114   -1219248.20745   -804843.06161
  20599483.3154    -422138.33347   -323782.55362
 91  5 13 18 44 59.9990000  0  5G18G 2G11G16G19
  20725723.222     1274903.319 7    984542.76523
  23071017.050    -4339763.774 6  -3339818.93621
  23519337.2224   -3074469.39346  -2333222.38561
  23883617.878    -1253387.247 5   -831444.82521
  20598770.6054    -425887.19447   -326703.74162
 91  5 13 18 45 14.9990000  0  5G18G 2G11G16G19
  20729397.659     1294207.961 7    999585.32823
  23061351.1514   -4390509.19346  -3379360.72061
  23512954.589    -3108016.916 6  -2359363.27421
  23877146.1284   -1287423.93045   -857966.86261
  20598061.9644    -429604.14447   -329600.05862
 91  5 13 18 45 29.9990000  0  5G18G 2G11G16G19
  20733087.355     1313599.834 7   1014695.86223
  23051711.2454   -4441218.03646  -3418873.99361
  23506585.230    -3141476.090 6  -2385435.33921
  23870679.769    -1321362.131 5   -884412.16521
  20597361.8004    -433293.18447   -332474.63262
 91  5 13 18 45 44.9990000  0  5G18G 2G11G16G19
  20736793.581     1333078.671 7   1029874.15423
  23042073.378    -4491890.579 6  -3458358.99421
  23500238.2764   -3174846.89046  -2411438.53061
  23864250.2534   -1355201.56945   -910780.47161
  20596661.5974    -436954.76447   -335327.80962
 91  5 13 18 45 59.9990000  0  5G18G 2G11G16G19
  20740517.917     1352648.384 7   1045123.26623
  23032428.058    -4542522.378 6  -3497812.26421
  23493903.3474   -3208124.90846  -2437369.42561
  23857823.495    -1388937.985 5   -937068.53321
  20595972.0344    -440584.75947   -338156.37762
 91  5 13 18 46 14.9990000  0  5G18G 2G11G16G19
  20744259.065     1372305.022 7   1060440.11123
  23022803.370    -4593117.412 6  -3537236.84121
  23487585.3084   -3241313.80446  -2463230.84561
  23851421.276    -1422575.565 5   -963279.52621
  20595288.8474    -444187.30947   -340963.55462
 91  5 13 18 46 29.9990000  0  5G18G 2G11G16G19
  20748014.925     1392051.798 7   1075827.19323
  23013189.5584   -4643672.00446  -3576629.91261
  23481289.4484   -3274409.76946  -2489019.87661
  23845044.7304   -1456110.42445   -989410.55961
  20594606.9484    -447758.97447   -343746.66762
 91  5 13 18 46 44.9990000  0  5G18G 2G11G16G19
  20751790.831     1411887.474 7   1091283.54923
  23003573.128    -4694187.107 6  -3615992.22821
  23475008.378    -3307413.813 6  -2514737.28321
  23838682.9484   -1489543.51745  -1015462.21361
  20593932.8394    -451300.99347   -346506.68162
 91  5 13 18 46 59.9990000  0  5G18G 2G11G16G19
  20755581.526     1431812.130 7   1106809.23923
  22993957.7454   -4744662.61246  -3655323.69361
  23468745.440    -3340325.582 6  -2540382.78121
  23832334.6204   -1522874.61945  -1041434.46061
  20593265.8554    -454813.23247   -349243.48762
 91  5 13 18 47 14.9990000  0  5G18G 2G11G16G19
  20759390.7924    1451831.40847   1122408.66263
  22984367.9334   -4795092.65246  -3694619.72861
  23462503.5734   -3373138.89446  -2565951.56761
  23826015.901    -1556097.713 5  -1067322.49021
  20592603.3704    -458289.99047   -351952.64562
 91  5 13 18 47 29.9990000  0  5G18G 2G11G16G19
  20763217.925     1471942.344 7   1138079.50723
  22974780.2454   -4845480.02546  -3733882.52561
  23456275.284    -3405856.309 6  -2591445.63321
  23819714.659    -1589215.812 5  -1093128.74321
  20591948.2374    -461734.34247   -354636.55962
 91  5 13 18 47 44.9990000  0  5G18G 2G11G16G19
  20767062.706     1492145.211 7   1153821.98523
  22965198.2924   -4895824.12546  -3773111.60761
  23450068.5894   -3438477.15446  -2616864.43861
  23813432.5504   -1622228.20445  -1118852.63461
  20591298.4484    -465145.80847   -357294.84762
 91  5 13 18 47 59.9990000  0  5G18G 2G11G16G19
  20770925.253     1512438.884 7   1169635.21823
  22955629.5654   -4946125.63646  -3812307.48761
  23443880.4724   -3471002.08546  -2642208.53861
  23807164.753    -1655135.539 5  -1144494.62621
  20590658.9014    -468525.45347   -359928.33362
 91  5 13 18 48 14.9990000  0  5G18G 2G11G16G19
  20774803.261     1532828.025 7   1185522.84023
  22946065.2764   -4996379.83746  -3851466.50061
  23437709.823    -3503426.072 6  -2667473.92621
  23800929.1444   -1687932.80845  -1170050.82561
  20590019.8554    -471868.54247   -362533.33962
 91  5 13 18 48 29.9990000  0  5G18G 2G11G16G19
  20778700.480     1553302.250 7   1201476.76923
  22936508.753    -5046596.885 6  -3890596.55321
  23431555.245    -3535759.069 6  -2692668.44621
  23794711.2614   -1720630.29645  -1195529.37961
  20589390.4484    -475185.31747   -365117.84462
 91  5 13 18 48 44.9990000  0  5G18G 2G11G16G19
  20782612.714     1573865.983 7   1217500.43823
  22926960.636    -5096772.091 6  -3929694.00921
  23425422.5504   -3567996.29346  -2717788.32161
  23788496.3234   -1753223.47745  -1220926.61261
  20588761.8554    -478471.33147   -367678.37662
 91  5 13 18 48 59.9990000  0  5G18G 2G11G16G19
  20786544.597     1594520.012 7   1233594.47423
  22917422.026    -5146904.163 6  -3968757.86721
  23419306.4334   -3600136.34746  -2742832.47961
  23782317.714    -1785711.110 5  -1246241.52021
  20588145.1674    -481725.60047   -370214.17362
 91  5 13 18 49 14.9990000  0  5G18G 2G11G16G19
  20790492.714     1615264.529 7   1249759.01423
  22907893.901    -5196992.844 6  -4007787.91021
  23413210.3084   -3632178.74246  -2767800.56761
  23776154.7454   -1818092.67045  -1271473.82861
  20587531.6594    -484948.05747   -372725.18462
 91  5 13 18 49 29.9990000  0  5G18G 2G11G16G19
  20794456.769     1636101.314 7   1265995.45323
  22898368.4724   -5247036.26746  -4046782.69761
  23407126.581    -3664121.379 6  -2792690.92121
  23770022.2304   -1850366.11646  -1296621.89861
  20586927.4804    -488136.81947   -375209.93462
 91  5 13 18 49 44.9990000  0  5G18G 2G11G16G19
  20798439.808     1657026.983 7   1282301.15523
  22888853.1594   -5297037.44146  -4085744.56361
  23401070.198    -3695967.080 6  -2817505.70721
  23763895.261    -1882534.377 5  -1321688.07821
  20586323.0974    -491295.16147   -377670.98062
 91  5 13 18 49 59.9990000  0  6G18G 2G11G16G 6G19
  20802438.167     1678044.330 7   1298678.29023
  22879342.597    -5346993.256 6  -4124671.08221
  23395029.5194   -3727712.55146  -2842242.42561
  23757792.933    -1914594.599 5  -1346669.94421
  24248674.6284         -0.35154
  20585729.1364    -494420.17347   -380106.05962
 91  5 13 18 50 14.9990000  0  6G18G 2G11G16G 6G19
  20806454.917     1699153.311 7   1315126.83523
  22869842.362    -5396903.508 6  -4163562.07721
  23389006.714    -3759357.492 6  -2866900.81121
  23751715.2224   -1946546.60845  -1371567.52661
  24240982.2694     -40377.45443
  20585139.9094    -497511.66447   -382515.01862
 91  5 13 18 50 29.9990000  0  6G18G 2G11G16G 6G19
  20810489.995     1720354.910 7   1331647.54223
  22860355.855    -5446767.203 6  -4202416.80721
  23383006.9094   -3790900.70046  -2891479.90961
  23745655.300    -1978389.513 5  -1396380.13021
  24233304.1984     -80745.05844
  20584562.0424    -500568.88847   -384897.27262
 91  5 13 18 50 44.9990000  0  6G18G 2G11G16G 6G19
  20814541.464     1741644.641 7   1348236.92023
  22850878.3154   -5496588.35246  -4241238.38161
  23377020.917    -3822346.082 6  -2915982.78821
  23739616.784    -2010127.158 5  -1421110.69921
  24225621.4094    -121107.34944
  20583982.8394    -503596.19947   -387256.21562
 91  5 13 18 50 59.9990000  0  6G18G 2G11G16G 6G19
  20818610.331     1763021.534 7   1364894.22723
  22841401.9334   -5546367.85546  -4280027.50561
  23371056.6904   -3853694.32046  -2940409.96361
  23733591.3154   -2041760.07145  -1445759.68361
  24217939.6204    -161465.46044
  20583411.5504    -506594.64047   -389592.66462
 91  5 13 18 51 14.9990000  0  6G18G 2G11G16G 6G19
  20822694.394     1784491.498 7   1381624.05323
  22831938.5034   -5596099.37046  -4318779.24461
  23365110.9484   -3884938.89746  -2964756.37361
  23727591.120    -2073281.991 5  -1470322.09121
  24210268.839     -201813.291 4        -0.28631
  20582847.5264    -509557.95247   -391901.74262
 91  5 13 18 51 29.9990000  0  6G18G 2G11G16G 6G19
  20826796.573     1806049.046 7   1398422.12723
  22822487.7454   -5645788.08346  -4357497.62261
  23359181.323    -3916085.027 6  -2989026.06021
  23721618.3394   -2104698.08945  -1494802.08561
  24202593.370     -242156.147 4    -31436.06721
  20582292.3004    -512491.60747   -394187.70662
 91  5 13 18 51 44.9990000  0  6G18G 2G11G16G 6G19
  20830917.222     1827700.055 7   1415293.02523
  22813038.2374   -5695428.05746  -4396178.02661
  23353275.886    -3947126.496 6  -3013214.21021
  23715666.7064   -2136002.47046  -1519195.09361
  24194919.6834    -282488.34343    -62863.58461
  20581738.7764    -515389.82147   -396446.04962
 91  5 13 18 51 59.9990000  0  6G18G 2G11G16G 6G19
  20835053.183     1849439.307 7   1432232.68323
  22803603.4564   -5745024.28446  -4434824.33661
  23347390.0814   -3978067.99046  -3037324.44261
  23709724.6984   -2167200.12345  -1543504.91961
  24187236.0504    -322814.91343    -94286.66161
  20581196.3314    -518257.49047   -398680.59662
 91  5 13 18 52 14.9990000  0  6G18G 2G11G16G 6G19
  20839207.7614    1871268.94147   1449242.77663
  22794175.3784   -5794574.36446  -4473434.69561
  23341518.1284   -4008907.05646  -3061354.87761
  23703802.636    -2198288.482 5  -1567729.48621
  24179568.323     -363133.708 4   -125703.78621
  20580653.5344    -521092.45447   -400889.66162
 91  5 13 18 52 29.9990000  0  6G18G 2G11G16G 6G19
  20843379.526     1893187.755 7   1466322.35223
  22784752.5584   -5844079.19746  -4512009.78561
  23335670.5584   -4039644.56346  -3085306.17161
  23697914.9804   -2229268.60845  -1591869.76261
  24171900.3474    -403445.99343   -157115.74261
  20580121.0264    -523895.85347   -403074.12762
 91  5 13 18 52 44.9990000  0  6G18G 2G11G16G 6G19
  20847566.769     1915198.148 7   1483473.29023
  22775335.2614   -5893535.95546  -4550547.43361
  23329839.597    -4070277.415 6  -3109175.91721
  23692042.3314   -2260137.52745  -1615923.42961
  24164227.3944    -443749.08343   -188520.52561
  20579591.5974    -526664.93547   -405231.85562
 91  5 13 18 52 59.9990000  0  6G18G 2G11G16G 6G19
  20851774.542     1937301.882 7   1500696.96423
  22765940.745    -5942942.845 6  -4589046.20321
  23324030.823    -4100803.699 6  -3132962.61121
  23686187.730    -2290893.590 5  -1639889.16721
  24156557.292     -484041.389 3   -219916.93621
  20579074.1594    -529398.33747   -407361.77662
 91  5 13 18 53 14.9990000  0  6G18G 2G11G16G 6G19
  20855996.370     1959496.222 7   1517991.24023
  22756550.026    -5992302.265 6  -4627507.98921
  23318243.5034   -4131225.70146  -3156668.05361
  23680354.4724   -2321539.23245  -1663768.79161
  24148893.8154    -524325.57343   -251307.04861
  20578557.8394    -532098.51147   -409465.80962
 91  5 13 18 53 29.9990000  0  6G18G 2G11G16G 6G19
  20860237.909     1981779.553 7   1535354.85623
  22747165.362    -6041615.348 6  -4665933.65221
  23312473.6124   -4161544.19246  -3180292.86461
  23674543.472    -2352075.461 5  -1687563.18621
  24141230.323     -564602.821 3   -282691.70121
  20578051.1594    -534766.70247   -411544.91662
 91  5 13 18 53 44.9990000  0  6G18G 2G11G16G 6G19
  20864495.862     2004157.387 7   1552792.11223
  22737789.847    -6090876.601 6  -4704318.93821
  23306723.050    -4191753.549 6  -3203832.60621
  23668758.4874   -2382496.71545  -1711267.95161
  24133563.3624    -604867.76144   -314066.77661
  20577549.0114    -537397.34447   -413594.76862
 91  5 13 18 53 59.9990000  0  6G18G 2G11G16G 6G19
  20868772.011     2026630.424 7   1570303.55223
  22728424.8624   -6140085.06446  -4742663.10061
  23300998.5504   -4221852.52646  -3227286.33761
  23662991.190    -2412801.999 5  -1734882.41121
  24125908.6284    -645119.67344   -345431.76161
  20577057.0034    -539989.72747   -415614.80562
 91  5 13 18 54 14.9990000  0  6G18G 2G11G16G 6G19
  20873065.362     2049189.333 7   1587881.91123
  22719067.722    -6189249.901 6  -4780973.27321
  23295286.6984   -4251850.35646  -3250661.26961
  23657245.6594   -2443000.39046  -1758413.59161
  24118254.636     -685368.047 4   -376793.95121
  20576570.1054    -542553.18147   -417612.30462
 91  5 13 18 54 29.9990000  0  6G18G 2G11G16G 6G19
  20877375.839     2071837.843 7   1605530.08223
  22709718.261    -6238367.039 6  -4819246.28321
  23289601.862    -4281742.749 6  -3273954.03421
  23651517.6204   -2473087.65845  -1781858.18161
  24110589.394     -725608.891 4   -408150.20121
  20576086.7764    -545083.96647   -419584.34662
 91  5 13 18 54 44.9990000  0  6G18G 2G11G16G 6G19
  20881702.878     2094577.432 7   1623249.22623
  22700381.1754   -6287434.75646  -4857480.76861
  23283932.589    -4311527.956 6  -3297163.26721
  23645808.9094   -2503062.32945  -1805214.99061
  24102934.245     -765840.909 4   -439499.67321
  20575613.4334    -547580.58847   -421529.77262
 91  5 13 18 54 59.9990000  0  6G18G 2G11G16G 6G19
  20886047.901     2117410.871 7   1641041.49723
  22691052.769    -6336449.889 6  -4895674.27221
  23278285.3704   -4341202.53246  -3320286.32461
  23640123.956    -2532921.291 5  -1828481.63721
  24095286.917     -806060.976 4   -470839.78721
  20575145.3314    -550039.94947   -423446.15662
 91  5 13 18 55 14.9990000  0  6G18G 2G11G16G 6G19
  20890409.2924    2140335.24847   1658904.63663
  22681736.3234   -6385415.15746  -4933828.90561
  23272659.386    -4370769.186 6  -3343325.26221
  23634465.7924   -2562667.29445  -1851660.24761
  24087626.612     -846272.086 4   -502172.93321
  20574682.4954    -552465.11347   -425335.89062
 91  5 13 18 55 29.9990000  0  6G18G 2G11G16G 6G19
  20894788.995     2163347.692 7   1676836.39323
  22672428.769    -6434333.049 6  -4971946.63621
  23267053.8314   -4400230.19946  -3366281.88761
  23628831.2924   -2592302.65045  -1874752.69261
  24079979.9094    -886477.00244   -533501.30061
  20574227.2844    -554858.59547   -427200.94262
 91  5 13 18 55 44.9990000  0  6G18G 2G11G16G 6G19
  20899185.909     2186449.313 7   1694837.63623
  22663130.433    -6483202.468 6  -5010026.59721
  23261466.7764   -4429584.22246  -3389155.13861
  23623214.8704   -2621825.98445  -1897757.82561
  24072330.5814    -926674.65644   -564823.91461
  20573776.8004    -557219.35547   -429040.49562
 91  5 13 18 55 59.9990000  0  6G18G 2G11G16G 6G19
  20903598.519     2209640.847 7   1712908.94723
  22653839.6364   -6532022.55346  -5048068.12761
  23255900.4334   -4458830.16146  -3411944.18061
  23617615.378    -2651236.674 5  -1920675.19721
  24064677.5194    -966864.17944   -596140.27461
  20573334.9564    -559546.43347   -430853.80262
 91  5 13 18 56 14.9990000  0  6G18G 2G11G16G 6G19
  20908028.581     2232921.260 7   1731049.51523
  22644557.4174   -6580793.97446  -5086071.74761
  23250353.722    -4487968.684 6  -3434649.51121
  23612040.823    -2680535.599 5  -1943505.46421
  24057031.6444   -1007046.79244   -627451.18161
  20572898.4874    -561840.89947   -432641.69562
 91  5 13 18 56 29.9990000  0  6G18G 2G11G16G 6G19
  20912475.175     2256288.537 7   1749257.76423
  22635288.2694   -6629518.20946  -5124038.57561
  23244830.065    -4517001.306 6  -3457272.31021
  23606488.9724   -2709724.15245  -1966249.71361
  24049392.8864   -1047224.14145   -658758.04261
  20572467.7304    -564104.65047   -434405.64662
 91  5 13 18 56 44.9990000  0  6G18G 2G11G16G 6G19
  20916938.636     2279746.840 7   1767536.94123
  22626029.839    -6678191.110 6  -5161965.41921
  23239328.4954   -4545923.44846  -3479809.05661
  23600954.2224   -2738798.09645  -1988904.68761
  24041745.3704   -1087392.10044   -690057.57461
  20572043.4954    -566333.33247   -436142.28662
 91  5 13 18 56 59.9990000  0  6G18G 2G11G16G 6G19
  20921419.690     2303292.332 7   1785884.06323
  22616769.3474   -6726816.21646  -5199854.99961
  23233844.8314   -4574738.60746  -3502262.42761
  23595438.1204   -2767760.48345  -2011472.72061
  24034105.683    -1127554.432 5   -721352.68821
  20571625.8944    -568530.62447   -437854.45262
 91  5 13 18 57 14.9990000  0  6G18G 2G11G16G 6G19
  20925917.690     2326927.418 7   1804300.99723
  22607526.776    -6775390.550 6  -5237705.02421
  23228383.2064   -4603443.71546  -3524629.99861
  23589951.1284   -2796608.93245  -2033951.95461
  24026457.7694   -1167708.44044   -752641.37161
  20571215.4644    -570693.83647   -439540.07562
 91  5 13 18 57 29.9990000  0  6G18G 2G11G16G 6G19
  20930433.362     2350653.599 7   1822788.91523
  22598295.159    -6823912.602 6  -5275514.31221
  23222943.5264   -4632037.05546  -3546910.52661
  23584478.730    -2825341.685 5  -2056341.06121
  24018822.5654   -1207852.82744   -783922.54061
  20570808.7694    -572821.46247   -441197.95762
 91  5 13 18 57 44.9990000  0  6G18G 2G11G16G 6G19
  20934964.706     2374467.930 7   1841345.51923
  22589072.3624   -6872385.03946  -5313284.94861
  23217521.667    -4660521.274 6  -3569106.02421
  23579038.5344   -2853961.56445  -2078642.20261
  24011187.050    -1247990.460 5   -815198.42221
  20570412.0264    -574916.45847   -442830.41562
 91  5 13 18 57 59.9990000  0  6G18G 2G11G16G 6G19
  20939513.073     2398370.712 7   1859971.04523
  22579854.4484   -6920807.29846  -5351016.48661
  23212121.925    -4688895.429 6  -3591215.72421
  23573611.933    -2882467.824 5  -2100854.83521
  24003548.3154   -1288120.75544   -846468.61361
  20570020.0974    -576978.32947   -444437.05862
 91  5 13 18 58 14.9990000  0  6G18G 2G11G16G 6G19
  20944080.370     2422367.029 7   1878669.45723
  22570652.9484   -6969174.03746  -5388704.76361
  23206745.6284   -4717154.29746  -3613235.61761
  23568213.4014   -2910855.52345  -2122975.04261
  23995907.737    -1328238.954 4   -877729.32521
  20569632.6594    -579002.18447   -446014.08462
 91  5 13 18 58 29.9990000  0  6G18G 2G11G16G 6G19
  20948662.206     2446453.250 7   1897437.92323
  22561455.6754   -7017488.51646  -5426352.31261
  23201387.956    -4745300.916 6  -3635168.04021
  23562831.2694   -2939127.45445  -2145005.03661
  23988284.440    -1368348.379 5   -908983.25621
  20569254.2764    -580991.32047   -447564.05462
 91  5 13 18 58 44.9990000  0  6G18G 2G11G16G 6G19
  20953263.761     2470632.172 7   1916278.62523
  22552274.4954   -7065747.91646  -5463956.94661
  23196053.542    -4773332.069 6  -3657010.48021
  23557477.4724   -2967280.74545  -2166942.63761
  23980645.0584   -1408446.11944   -940228.10161
  20568883.3474    -582942.87147   -449084.73462
 91  5 13 18 58 59.9990000  0  6G18G 2G11G16G 6G19
  20957880.519     2494898.484 7   1935187.41923
  22543105.4874   -7113957.16646  -5501522.49661
  23190738.917    -4801252.647 6  -3678766.75421
  23552139.511    -2995320.704 5  -2188791.90121
  23973026.698    -1448537.520 5   -971467.91721
  20568518.2534    -584862.00647   -450580.15962
 91  5 13 18 59 14.9990000  0  6G18G 2G11G16G 6G19
  20962516.573     2519256.747 7   1954167.86523
  22533933.1754   -7162111.51646  -5539045.26961
  23185449.448    -4829057.719 6  -3700433.02921
  23546822.5034   -3023242.31145  -2210548.94361
  23965388.105    -1488617.760 5  -1002699.10621
  20568159.4804    -586743.98747   -452046.62962
 91  5 13 18 59 29.9990000  0  6G18G 2G11G16G 6G19
  20967169.222     2543704.371 7   1973217.94123
  22524784.7614   -7210213.24046  -5576527.03661
  23180181.9564   -4856749.68546  -3722011.18161
  23541534.8554   -3051047.90445  -2232215.58761
  23957760.3394   -1528689.70543  -1033923.84261
  20567809.4874    -588591.37647   -453486.14362
 91  5 13 18 59 44.9990000  0  6G18G 2G11G16G 6G19
  20971838.987     2568243.654 7   1992339.44723
  22515644.433    -7258259.651 6  -5613965.70021
  23174931.894    -4884325.558 6  -3743498.86721
  23536261.901    -3078734.664 5  -2253789.62021
  23950145.183    -1568750.684 5  -1065139.97521
  20567462.4404    -590401.59947   -454896.70062
 91  5 13 18 59 59.9990000  0  6G18G 2G11G16G 6G19
  20976524.956     2592874.122 7   2011531.99823
  22506506.1754   -7306251.05346  -5651361.51461
  23169708.3154   -4911785.63146  -3764896.29061
  23531021.542    -3106303.104 5  -2275271.45121
  23942522.0114   -1608801.13744  -1096347.99661
  20567127.8704    -592175.13747   -456278.66962
 91  5 13 19  0 14.9990000  0  6G18G 2G11G16G 6G19
  20981230.097     2617590.013 7   2030791.11723
  22497387.0894   -7354192.71246  -5688718.55261
  23164503.9564   -4939134.93446  -3786207.45061
  23525794.690    -3133758.355 5  -2296665.10521
  23934900.433    -1648846.738 5  -1127552.13721
  20566795.1834    -593917.52447   -457636.37062
 91  5 13 19  0 29.9990000  0  6G18G 2G11G16G 6G19
  20985951.089     2642395.874 7   2050120.33823
  22488268.4564   -7402080.26746  -5726033.44861
  23159320.956    -4966368.721 6  -3807428.54521
  23520590.3864   -3161095.91945  -2317967.04661
  23927285.1054   -1688882.88245  -1158748.99961
  20566470.6284    -595624.29447   -458966.31262
 91  5 13 19  0 44.9990000  0  6G18G 2G11G16G 6G19
  20990686.605     2667289.137 7   2069517.66423
  22479164.417    -7449915.767 6  -5763307.77921
  23154160.526    -4993489.287 6  -3828561.43721
  23515414.5034   -3188318.03945  -2339179.04461
  23919667.3394   -1728912.33644  -1189940.51461
  20566152.0894    -597297.75647   -460270.30762
 91  5 13 19  0 59.9990000  0  6G18G 2G11G16G 6G19
  20995439.894     2692268.014 7   2088981.70523
  22470075.9254   -7497700.79046  -5800542.76961
  23149019.855    -5020498.049 6  -3849607.21621
  23510254.7614   -3215426.53645  -2360302.49361
  23912053.0344   -1768936.64245  -1221128.18161
  20565839.7064    -598939.79847   -461549.81662
 91  5 13 19  1 14.9990000  0  6G18G 2G11G16G 6G19
  21000210.081     2717332.542 7   2108512.48723
  22460994.4174   -7545435.11246  -5837738.25261
  23143902.089    -5047394.441 6  -3870565.40021
  23505113.8474   -3242420.89945  -2381337.01261
  23904437.7224   -1808955.72945  -1252311.66861
  20565532.7764    -600550.10747   -462804.59362
 91  5 13 19  1 29.9990000  0  6G18G 2G11G16G 6G19
  21004996.269     2742484.505 7   2128111.39923
  22451923.394    -7593116.516 6  -5874892.48821
  23138807.081    -5074176.212 6
  23500002.972    -3269298.774 5
  23896823.4564   -1848967.42845  -1283489.47161
  20565232.1204    -602126.53547   -464032.97362
 91  5 13 19  1 44.9990000  0  6G18G 2G11G16G 6G19
  21009799.105     2767727.586 7   2147781.31423
  22442854.6904   -7640741.21846  -5912002.55261
  23133730.2844   -5100839.27946
  23494912.808    -3296056.659 5
  23889210.1444   -1888968.27844  -1314658.78661
  20564940.1754    -603665.41347   -465232.09362
 91  5 13 19  1 59.9990000  0  6G18G 2G11G16G 6G19
  21014618.659     2793059.471 7   2167520.42723
  22433807.0114   -7688311.24146  -5949070.01461
  23128679.315    -5127385.625 6
  23489837.776    -3322696.602 5
  23881600.440    -1928960.348 5  -1345821.27921
  20564656.7614    -605168.93247   -466403.65762
 91  5 13 19  2 14.9990000  0  6G18G 2G11G16G 6G19
  21019456.792     2818479.025 7   2187327.84923
  22424761.151    -7735827.483 6  -5986095.57021
  23123652.628    -5153815.858 6
  23484798.956    -3349219.229 6
  23873982.6984   -1968944.84343  -1376977.85761
  20564374.6364    -606637.99047   -467548.37362
 91  5 13 19  2 29.9990000  0  6G18G 2G11G16G 6G19
  21024311.222     2843988.142 7   2207205.06723
  22415732.167    -7783287.613 6  -6023077.41221
  23118640.815    -5180127.776 6
  23479770.714    -3375622.149 6
  23866382.0264   -2008919.46945  -1408126.67661
  20564102.3004    -608070.55647   -468664.65862
 91  5 13 19  2 44.9990000  0  6G18G 2G11G16G 6G19
  21029182.972     2869584.922 7   2227150.58923
  22406709.9404   -7830693.43846  -6060016.92861
  23113658.198    -5206322.909 6
  23474764.940    -3401907.408 5
  23858771.6364   -2048886.43143  -1439269.65161
  20563836.0814    -609468.60147   -469754.04062
 91  5 13 19  2 59.9990000  0  6G18G 2G11G16G 6G19
  21034069.675     2895266.533 7   2247162.20923
  22397695.2224   -7878047.33646  -6096915.97661
  23108695.456    -5232403.696 6
  23469791.808    -3428077.539 5
  23851173.0974   -2088848.21345  -1470408.53161
  20563579.1904    -610834.67346   -470818.50862
 91  5 13 19  3 14.9990000  0  6G18G 2G11G16G 6G19
  21038974.167     2921038.257 7   2267244.05823
  22388696.440    -7925343.861 6  -6133770.31221
  23103754.042    -5258364.494 6
  23464826.667    -3454126.811 5
  23843569.1904   -2128799.45244  -1501539.17861
  20563323.4404    -612163.33647   -471853.82762
 91  5 13 19  3 29.9990000  0  6G18G 2G11G16G 6G19
  21043894.440     2946897.490 7   2287394.09123
  22379708.2224   -7972585.40846  -6170581.81361
  23098838.3624   -5284207.61946
  23459894.901    -3480057.942 5
  23835967.769    -2168743.057 5  -1532663.91121
  20563077.8624    -613457.31747   -472862.12662
 91  5 13 19  3 44.9990000  0  6G18G 2G11G16G 6G19
  21048831.058     2972841.704 7   2307610.34323
  22370728.9874   -8019774.34846  -6207352.32761
  23093938.394    -5309935.170 6
  23454983.112    -3505873.095 5
  23828367.698    -2208681.202 5  -1563784.40421
  20562836.9644    -614718.92147   -473845.18962
 91  5 13 19  3 59.9990000  0  6G18G 2G11G16G 6G19
  21053783.526     2998873.607 7   2327894.92423
  22361758.9334   -8066907.45146  -6244079.32961
  23089068.8474   -5335543.76346
  23450093.519    -3531569.018 5
  23820768.7614   -2248611.16244  -1594898.44761
  20562606.6364    -615945.13446   -474800.67762
 91  5 13 19  4 14.9990000  0  6G18G 2G11G16G 6G19
  21058754.730     3024992.327 7   2348247.15423
  22352800.448    -8113985.388 6  -6280763.35721
  23084218.862    -5361033.987 6
  23445222.190    -3557146.577 5
  23813173.8394   -2288533.39845  -1626006.55561
  20562375.5584    -617136.72547   -475729.18862
 91  5 13 19  4 29.9990000  0  6G18G 2G11G16G 6G19
  21063743.526     3051197.957 7   2368667.11123
  22343847.6054   -8161007.95546  -6317404.23261
  23079389.2534   -5386405.41446
  23440381.011    -3582605.327 5
  23805569.4014   -2328448.11243  -1657108.77261
  20562161.1514    -618293.54347   -476630.60162
 91  5 13 19  4 44.9990000  0  6G18G 2G11G16G 6G19
  21068744.737     3077488.565 7   2389153.27623
  22334912.3154   -8207976.96546  -6354003.36061
  23074583.831    -5411659.790 6
  23435559.230    -3607947.161 5
  23797983.401    -2368356.971 5  -1688206.37521
  20561941.7844    -619417.53747   -477506.44062
 91  5 13 19  4 59.9990000  0  6G18G 2G11G16G 6G19
  21073765.362     3103869.149 7   2409709.55823
  22325987.8154   -8254887.03846  -6390556.57361
  23069801.6284   -5436791.57146
  23430756.550    -3633166.715 5
  23790390.448    -2408255.169 3  -1719295.72921
  20561738.0974    -620503.16347   -478352.37762
 91  5 13 19  5 14.9990000  0  6G18G 2G11G16G 6G19
  21078800.776     3130338.544 7   2430335.04023
  22317070.753    -8301738.885 6  -6427064.41221
  23065042.8474   -5461801.51146
  23425983.089    -3658264.749 5
  23782801.769    -2448143.228 5  -1750377.21921
  20561535.3474    -621551.44447   -479169.22262
 91  5 13 19  5 29.9990000  0  6G18G 2G11G16G 6G19
  21083856.761     3156896.086 7   2451029.21223
  22308170.323    -8348533.007 6  -6463527.28421
  23060307.4564   -5486690.00946
  23421228.480    -3683241.888 5
  23775210.2224   -2488022.37044  -1781451.62861
  20561345.7454    -622563.14947   -479957.56362
 91  5 13 19  5 44.9990000  0  6G18G 2G11G16G 6G19
  21088927.995     3183543.266 7   2471793.22823
  22299273.5584   -8395267.32546  -6499943.54461
  23055593.7304   -5511454.93246
  23416499.581    -3708095.926 5
  23767624.026    -2527890.392 5  -1812517.58421
  20561158.6904    -623536.60547   -480716.09162
 91  5 13 19  5 59.9990000  0  6G18G 2G11G16G 6G19
  21094011.808     3210273.435 7   2492621.91423
  22290387.6514   -8441948.32046  -6536318.25961
  23050902.456    -5536102.552 6
  23411788.769    -3732833.649 5
  23760037.198    -2567754.030 5  -1843579.94721
  20560978.5584    -624478.25447   -481449.85162
 91  5 13 19  6 14.9990000  0  6G18G 2G11G16G 6G19
  21099116.269     3237090.048 7   2513517.95923
  22281519.1284   -8488572.25646  -6572648.50661
  23046235.112    -5560629.042 6
  23407109.440    -3757451.150 5
  23752453.2454   -2607609.84045
  20560806.1754    -625384.35547   -482155.90062
 91  5 13 19  6 29.9990000  0  6G18G 2G11G16G 6G19
  21104235.065     3263994.098 7   2534482.13523
  22272657.5264   -8535137.92846  -6608933.36061
  23041590.878    -5585033.113 6
  23402448.175    -3781947.109 5
  23744870.526    -2647456.526 5
  20560642.6674    -626253.94747   -482833.50462
 91  5 13 19  6 44.9990000  0  6G18G 2G11G16G 6G19
  21109372.308     3290985.655 7   2555514.49523
  22263801.597    -8581645.437 6  -6645172.89521
  23036971.565    -5609314.450 6
  23397809.331    -3806321.552 5
  23737288.925    -2687294.331 5
  20560481.5734    -627086.93247   -483482.57962
 91  5 13 19  6 59.9990000  0  6G18G 2G11G16G 6G19
  21114524.222     3318061.708 7   2576612.70523
  22254968.7304   -8628097.20546  -6681368.99461
  23032373.2064   -5633475.59446
  23393194.706    -3830577.100 5
  23729702.620    -2727125.861 4        -0.25431
  20560330.3554    -627886.05047   -484105.27362
 91  5 13 19  7 14.9990000  0  6G18G 2G11G16G 6G19
  21119693.253     3345225.099 7   2597778.96423
  22246139.2454   -8674489.99446  -6717519.12361
  23027799.472    -5657513.190 6  -4345982.15721
  23388600.0504   -3854710.58145  -2858444.48661
  23722130.3944   -2766948.34145    -31030.48661
  20560185.4804    -628648.19347   -484699.15762
 91  5 13 19  7 29.9990000  0  6G18G 2G11G16G 6G19
  21124878.597     3372472.796 7   2619010.91723
  22237324.9014   -8720826.69346  -6753625.55561
  23023248.2304   -5681429.88646  -4364618.54261
  23384032.3704   -3878725.01745  -2877156.97661
  23714552.495    -2806764.496 4    -62055.97921
  20560047.8944    -629376.28347   -485266.48962
 91  5 13 19  7 44.9990000  0  6G18G 2G11G16G 6G19
  21130080.081     3399806.693 7   2640310.04223
  22228511.0734   -8767105.14946  -6789686.60261
  23018719.167    -5705223.534 6  -4383159.03021
  23379483.0194   -3902618.11145  -2895774.91461
  23706984.401    -2846572.477 5    -93075.02121
  20559914.4874    -630068.37347   -485805.78262
 91  5 13 19  7 59.9990000  0  6G18G 2G11G16G 6G19
  21135297.589     3427225.073 7   2661674.99123
  22219717.534    -8813326.671 6  -6825703.27621
  23014218.909    -5728895.449 6  -4401604.67421
  23374959.6364   -3926391.13545  -2914299.28461
  23699400.956    -2886373.889 4   -124088.92021
  20559790.9254    -630725.91347   -486318.15462
 91  5 13 19  8 14.9990000  0  6G18G 2G11G16G 6G19
  21140530.269     3454727.704 7   2683105.58723
  22210932.4874   -8859491.26146  -6861675.60661
  23009736.0654   -5752445.33846  -4419955.23061
  23370458.292    -3950043.975 5  -2932730.02621
  23691833.230    -2926168.823 5
  20559670.9404    -631349.02447   -486803.68862
 91  5 13 19  8 29.9990000  0  6G18G 2G11G16G 6G19
  21145782.605     3482316.189 7   2704603.09023
  22202162.456    -8905597.074 6  -6897602.13021
  23005278.144    -5775871.370 6  -4438209.25621
  23365979.253    -3973575.154 5  -2951065.95321
  23684255.972    -2965955.618 5
  20559559.0114    -631935.93047   -487261.01662
 91  5 13 19  8 44.9990000  0  6G18G 2G11G16G 6G19
  21151047.683     3509987.536 7   2726165.16123
  22193398.2844   -8951646.89346  -6933485.01561
  23000842.8554   -5799176.02846  -4456368.73061
  23361523.6284   -3996987.13945  -2969309.02461
  23676689.386    -3005737.143 5
  20559454.8474    -632489.52247   -487692.38962
 91  5 13 19  8 59.9990000  0  6G18G 2G11G16G 6G19
  21156328.534     3537745.819 7   2747794.96823
  22184643.589    -8997636.351 6  -6969320.87221
  22996431.3554   -5822354.98046  -4474430.24161
  23357087.089    -4020275.940 5  -2987456.10621
  23669126.058    -3045509.278 5        -0.06431
  20559356.7694    -633005.56047   -488094.50062
 91  5 13 19  9 14.9990000  0  6G18G 2G11G16G 6G19
  21161627.019     3565587.796 7   2769489.99523
  22175903.4334   -9043568.41546  -7005112.00361
  22992044.519    -5845410.992 6  -4492395.95021
  23352679.886    -4043444.604 5  -3005509.54921
  23661556.6754   -3085275.11145    -30986.13561
  20559265.7454    -633487.03647   -488469.67362
 91  5 13 19  9 29.9990000  0  6G18G 2G11G16G 6G19
  21166941.495     3593515.985 7   2791252.19623
  22167177.4254   -9089440.20746  -7040856.16561
  22987681.7454   -5868341.14046  -4510263.58561
  23348299.761    -4066490.137 5  -3023467.06721
  23653988.386    -3125031.994 4    -61965.52021
  20559182.0894    -633931.34347   -488815.88262
 91  5 13 19  9 44.9990000  0  6G18G 2G11G16G 6G19
  21172270.839     3621529.146 7   2813080.61122
  22158456.511    -9135252.807 6  -7076554.20621
  22983342.5194   -5891146.34646  -4528033.87461
  23343934.355    -4089413.646 5  -3041329.49421
  23646425.003    -3164781.081 5    -92938.55621
  20559101.6054    -634339.56047   -489133.96862
 91  5 13 19  9 59.9990000  0  6G18G 2G11G16G 6G19
  21177620.823     3649626.456 7   2834974.60523
  22149751.237    -9181006.756 6  -7112206.56221
  22979024.8474   -5913827.01846  -4545707.11461
  23339598.565    -4112215.901 5  -3059097.40521
  23638860.0814   -3204522.98544   -123906.20561
  20559033.0734    -634712.28147   -489424.39962
 91  5 13 19 10 14.9990000  0  6G18G 2G11G16G 6G19
  21182981.573     3677810.326 7   2856936.03922
  22141056.620    -9226699.471 6  -7147811.19621
  22974732.4724   -5936380.47746  -4563281.23361
  23335286.214    -4134893.913 5  -3076768.53521
  23631303.7454   -3244255.46345   -154866.41561
  20558967.7924    -635046.98047   -489685.20062
 91  5 13 19 10 29.9990000  0  6G18G 2G11G16G 6G19
  21188361.190     3706076.440 7   2878961.55723
  22132368.7374   -9272334.75646  -7183371.06861
  22970464.886    -5958810.560 6  -4580759.20221
  23330991.3624   -4157451.63245  -3094345.94661
  23623739.1594   -3283982.41745   -185822.36861
  20558913.4014    -635347.68047   -489919.51162
 91  5 13 19 10 44.9990000  0  6G18G 2G11G16G 6G19
  21193755.347     3734423.649 7   2901050.27423
  22123699.8154   -9317913.71346  -7218887.05161
  22966218.831    -5981118.154 6  -4598141.72821
  23326719.1124   -4179890.10145  -3111830.40661
  23616182.667    -3323705.130 5   -216774.98521
  20558860.7064    -635615.59047   -490128.27162
 91  5 13 19 10 59.9990000  0  6G18G 2G11G16G 6G19
  21199165.800     3762850.720 7   2923201.21323
  22115034.480    -9363437.041 6  -7254359.68721
  22961997.7924   -6003304.06546  -4615429.44961
  23322474.5194   -4202210.39045  -3129222.78461
  23608623.1364   -3363424.50545   -247724.99661
  20558816.9254    -635851.54947   -490312.13562
 91  5 13 19 11 14.9990000  0  6G18G 2G11G16G 6G19
  21204590.394     3791354.364 7   2945411.82523
  22106383.839    -9408907.914 6  -7289791.45621
  22957798.5344   -6025371.26346  -4632624.65861
  23318247.4724   -4224415.44545  -3146525.38461
  23601062.3704   -3403143.84045   -278675.00761
  20558775.4724    -636058.85447   -490473.66762
 91  5 13 19 11 29.9990000  0  6G18G 2G11G16G 6G19
  21210028.198     3819937.960 7   2967684.73223
  22097740.386    -9454322.595 6  -7325179.43321
  22953624.4564   -6047315.81146  -4649724.28961
  23314046.237    -4246501.662 5  -3163735.36721
  23593509.4724   -3442859.60445   -309622.20561
  20558743.9564    -636233.82947   -490610.01062
 91  5 13 19 11 44.9990000  0  6G18G 2G11G16G 6G19
  21215485.472     3848603.975 7   2990021.86823
  22089112.534    -9499678.288 6  -7360521.45621
  22949471.8314   -6069134.87446  -4666726.16361
  23309867.0734   -4268466.60946  -3180850.84361
  23585948.8394   -3482568.99345   -340564.39161
  20558716.2144    -636373.62147
 91  5 13 19 11 59.9990000  0  6G18G 2G11G16G 6G19
  21220954.667     3877352.403 7   3012423.21523
  22080489.323    -9544975.158 6  -7395817.63921
  22945342.511    -6090828.377 6  -4683630.17521
  23305705.737    -4290310.065 5  -3197871.68221
  23578391.4334   -3522272.44845   -371502.05461
  20558697.1514    -636478.55647
 91  5 13 19 12 14.9990000  0  6G18G 2G11G16G 6G19
  21226440.159     3906184.063 7   3034889.41922
  22071882.448    -9590211.714 6  -7431066.82321
  22941238.448    -6112394.684 6  -4700435.06821
  23301573.542    -4312030.554 5  -3214796.68621
  23570837.9804   -3561968.46445   -402433.85461
  20558681.7374    -636547.09947
 91  5 13 19 12 29.9990000  0  6G18G 2G11G16G 6G19
  21231943.542     3935094.294 7   3057416.84422
  22063281.511    -9635392.374 6  -7466272.44821
  22937158.4014   -6133838.39046  -4717144.44561
  23297468.237    -4333632.842 5  -3231629.59721
  23563290.0424   -3601662.01545   -433363.75161
  20558675.0424    -636584.15847
 91  5 13 19 12 44.9990000  0  6G18G 2G11G16G 6G19
  21237458.831     3964081.459 7   3080004.22323
  22054696.417    -9680518.590 6  -7501435.65622
  22933100.3554   -6155160.80646  -4733759.32761
  23293372.894    -4355118.303 5  -3248371.46021
  23555733.6204   -3641354.49145   -464292.85361
  20558673.8864    -636591.14747
 91  5 13 19 12 59.9990000  0  6G18G 2G11G16G 6G19
  21242991.472     3993148.653 7   3102653.95823
  22046117.9724   -9725586.98646  -7536553.79961
  22929067.815    -6176358.284 6  -4750276.82421
  23289309.503    -4376483.277 5  -3265019.46921
  23548181.9804   -3681042.60545   -495218.47761
  20558680.9804    -636564.67647
 91  5 13 19 13 14.9990000  0  6G18G 2G11G16G 6G19
  21248537.058     4022293.807 7   3125364.44023
  22037554.144    -9770599.500 6  -7571628.40821
  22925056.190    -6197432.694 6  -4766698.42621
  23285267.800    -4397730.044 5  -3281575.31321
  23540627.706    -3720728.497 5   -526142.45921
  20558691.5974    -636506.79047
 91  5 13 19 13 29.9990000  0  6G18G 2G11G16G 6G19
  21254097.870     4051517.990 7   3148136.50523
  22028994.761    -9815554.443 6  -7606658.14821
  22921068.690    -6218382.365 6  -4783022.82821
  23281242.8554   -4418857.02145  -3298037.85961
  23533077.1054   -3760410.70145   -557063.47561
  20558708.9564    -636416.01247
 91  5 13 19 13 44.9990000  0  6G18G 2G11G16G 6G19
  21259674.425     4080822.691 7   3170971.31623
  22020453.245    -9860450.381 6  -7641641.92022
  22917106.7144   -6239205.53746  -4799248.67661
  23277248.2224   -4439862.68545  -3314405.86061
  23525527.769    -3800087.732 5   -587980.55921
  20558733.7534    -636290.84947
 91  5 13 19 13 59.9990000  0  6G18G 2G11G16G 6G19
  21265264.011     4110210.487 7   3193870.87323
  22011926.112    -9905284.261 6  -7676577.33022
  22913169.667    -6259899.218 6  -4815373.61221
  23273275.901    -4460744.100 5  -3330677.05121
  23517983.628    -3839756.860 5   -618891.38421
  20558763.542     -636128.357 7
 91  5 13 19 14 14.9990000  0  6G18G 2G11G16G 6G19
  21270874.784     4139679.298 7   3216833.55522
  22003408.800    -9950057.784 6  -7711465.71222
  22909258.339    -6280465.259 6  -4831399.08121
  23269328.7534   -4481503.01645  -3346852.78061
  23510431.8084   -3879420.12745   -649797.72561
  20558799.3234    -635930.52547
 91  5 13 19 14 29.9990000  0  6G18G 2G11G16G 6G19
  21276496.0194    4169224.59547   3239855.84063
  21994895.808    -9994775.191 6  -7746310.36222
  22905366.4014   -6300907.77746  -4847328.29961
  23265399.0264   -4502143.83746  -3362936.47261
  23502885.5584   -3919081.80945   -680702.78861
  20558846.0734    -635701.75046   -490195.36962
 91  5 13 19 14 44.9990000  0  6G18G 2G11G16G 6G19
  21282134.3784    4198850.61947   3262941.02362
  21986395.870   -10039432.001 6  -7781107.80622
  22901501.2304   -6321222.08646  -4863157.62761
  23261497.3234   -4522662.02946  -3378924.64261
  23495339.308    -3958737.410 5   -711603.13921
  20558895.2844    -635437.41647   -489989.39462
 91  5 13 19 14 59.9990000  0  6G18G 2G11G16G 6G19
  21287787.558     4228561.951 7   3286092.68322
  21977913.089   -10084023.813 6  -7815854.58522
  22897658.5034   -6341403.56146  -4878883.42061
  23257615.948    -4543052.993 6  -3394813.65521
  23487796.6904   -3998382.91045   -742495.59261
  20558951.8944    -635133.25047   -489752.37762
 91  5 13 19 15 14.9990000  0  6G18G 2G11G16G 6G19
  21293457.440     4258357.908 7   3309310.28922
  21969438.870   -10128550.581 6  -7850550.69022
  22893843.4334   -6361452.16046  -4894505.69961
  23253758.5344   -4563317.14446  -3410603.84061
  23480249.6444   -4038018.23945   -773380.12461
  20559018.5114    -634789.35047   -489484.40262
 91  5 13 19 15 29.9990000  0  6G18G 2G11G16G 6G19
  21299143.237     4288232.656 7   3332589.29122
  21960979.526   -10173017.897 6  -7885200.46922
  22890053.917    -6381373.352 6  -4910028.69321
  23249922.3154   -4583459.76146  -3426299.34361
  23472710.667    -4077649.212 5   -804261.26421
  20559093.2224    -634411.34746   -489189.85062
 91  5 13 19 15 44.9990000  0  6G18G 2G11G16G 6G19
  21304846.0424    4318190.65347   3355933.15062
  21952528.417   -10217421.154 6  -7919800.33822
  22886288.105    -6401162.397 6  -4925448.71621
  23246113.659    -4603476.546 5  -3441896.80421
  23465170.9254   -4117271.08445   -835135.34961
  20559166.9954    -633994.59447   -488865.10162
 91  5 13 19 15 59.9990000  0  6G18G 2G11G16G 6G19
  21310559.394     4348229.062 7   3379339.67922
  21944088.667   -10261762.729 6  -7954352.13821
  22882548.0654   -6420821.72546  -4940767.66661
  23242330.8004   -4623369.78745  -3457397.99861
  23457631.105    -4156886.774 5   -866004.54021
  20559254.9724    -633541.63947   -488512.14962
 91  5 13 19 16 14.9990000  0  6G18G 2G11G16G 6G19
  21316292.8004    4378351.08547   3402811.35962
  21935663.901   -10306039.250 6  -7988853.24622
  22878831.589    -6440347.771 6  -4955982.74821
  23238569.2374   -4643136.08245  -3472800.26861
  23450091.026    -4196492.896 5   -896866.41021
  20559347.2694    -633049.17047   -488128.40962
 91  5 13 19 16 29.9990000  0  6G18G 2G11G16G 6G19
  21322039.8234    4408558.55747   3426349.62162
  21927250.651   -10350248.631 6  -8023302.03822
  22875140.628    -6459738.395 6  -4971092.30721
  23234830.5264   -4662773.61945  -3488102.22261
  23442557.5344   -4236087.45745   -927719.11761
  20559454.7144    -632515.35346   -487712.43862
 91  5 13 19 16 44.9990000  0  6G18G 2G11G16G 6G19
  21327806.3314    4438854.52247   3449956.83862
  21918851.980   -10394387.620 6  -8057695.97922
  22871479.1984   -6478990.36346  -4986093.83361
  23231120.675    -4682279.012 5  -3503301.19621
  23435023.745    -4275667.542 5   -958560.64821
  20559560.9094    -631936.95947   -487261.73862
 91  5 13 19 16 59.9990000  0  6G18G 2G11G16G 6G19
  21333585.3554    4469234.85347   3473629.79762
  21910467.690   -10438460.225 6  -8092038.19922
  22867840.776    -6498107.340 6  -5000990.16921
  23227432.9174   -4701656.16745  -3518400.24161
  23427499.706    -4315237.024 5   -989393.88621
  20559679.7924    -631317.78746   -486779.26562
 91  5 13 19 17 14.9990000  0  6G18G 2G11G16G 6G19
  21339383.8474    4499699.46747   3497368.42762
  21902089.675   -10482465.921 6  -8126328.27822
  22864228.276    -6517088.937 6  -5015781.00321
  23223767.9644   -4720904.87045  -3533399.20961
  23419970.730    -4354795.736 5  -1020218.70921
  20559803.8004    -630657.75647   -486264.96062
 91  5 13 19 17 29.9990000  0  6G18G 2G11G16G 6G19
  21345196.7064    4530248.64047   3521172.94962
  21893725.8944  -10526404.22846  -8160565.85162
  22860642.370    -6535934.597 6  -5030465.91121
  23220131.9804   -4740024.78346  -3548297.79261
  23412439.175    -4394343.283 5  -1051034.84421
  20559939.8944    -629956.38646   -485718.43962
 91  5 13 19 17 44.9990000  0  6G18G 2G11G16G 6G19
  21351026.1594    4560881.10647   3545042.37562
  21885381.980   -10570275.933 6  -8194751.52322
  22857080.073    -6554645.162 6  -5045045.56321
  23216520.815    -4759016.799 6  -3563096.73321
  23404923.362    -4433880.749 5  -1081843.17721
  20560077.3474    -629214.58847   -485140.41262
 91  5 13 19 17 59.9990000  0  6G18G 2G11G16G 6G19
  21356870.6904    4591595.28847   3568975.47262
  21877045.9644  -10614082.56246  -8228886.48362
  22853545.237    -6573221.914 6  -5059520.93521
  23212925.862    -4777882.256 6  -3577797.04421
  23397398.948    -4473409.670 5  -1112644.76021
  20560228.7614    -628433.79246   -484532.00062
 91  5 13 19 18 14.9990000  0  6G18G 2G11G16G 6G19
  21362732.1514    4622391.44247   3592972.44862
  21868718.870   -10657823.553 6  -8262970.30122
  22850038.081    -6591664.240 6  -5073891.56321
  23209360.112    -4796620.825 6  -3592398.46621
  23389878.011    -4512929.504 5  -1143439.38921
  20560382.7064    -627613.36947   -483892.71262
 91  5 13 19 18 29.9990000  0  6G18G 2G11G16G 6G19
  21368605.6204    4653266.51547   3617030.91362
  21860409.440   -10701501.877 6  -8297005.28222
  22846553.198    -6609974.986 6  -5088159.65821
  23205821.878    -4815235.449 6  -3606903.31521
  23382356.487    -4552443.354 5  -1174229.22521
  20560546.4174    -626756.50647   -483225.02662
 91  5 13 19 18 44.9990000  0  6G18G 2G11G16G 6G19
  21374496.167     4684219.126 7   3641149.81022
  21852110.745   -10745118.562 6  -8330992.23522
  22843093.894    -6628155.174 6  -5102326.01921
  23202298.4644   -4833727.24046  -3621312.48061
  23374839.839    -4591952.552 5  -1205015.52821
  20560717.0194    -625864.54747   -482529.98862
 91  5 13 19 18 59.9990000  0  6G18G 2G11G16G 6G19
  21380401.3704    4715252.41247   3665331.55862
  21843823.659   -10788669.854 6  -8364928.23822
  22839658.230    -6646201.084 6  -5116387.74521
  23198804.4954   -4852092.47845  -3635622.97161
  23367321.8624   -4631453.46245  -1235795.26561
  20560891.9564    -624933.73447   -481804.67962
 91  5 13 19 19 14.9990000  0  6G18G 2G11G16G 6G19
  21386324.3624    4746365.30547   3689575.34362
  21835545.120   -10832156.732 6  -8398814.04122
  22836251.1754   -6664113.54946  -5130345.47861
  23195334.394    -4870331.931 5  -3649835.50621
  23359811.597    -4670947.251 5  -1266569.58421
  20561076.347     -623965.099 7   -481049.88922
 91  5 13 19 19 29.9990000  0  6G18G 2G11G16G 6G19
  21392261.8554    4777560.81147   3713883.49762
  21827281.2694  -10875575.88146  -8432647.07962
  22832866.761    -6681889.192 6  -5144196.61721
  23191892.292    -4888442.753 5  -3663947.81721
  23352290.831    -4710430.663 5  -1297335.68121
  20561271.0504    -622955.43847   -480263.13662
 91  5 13 19 19 44.9990000  0  6G18G 2G11G16G 6G19
  21398210.5264    4808841.73047   3738258.20862
  21819036.698   -10918924.387 7  -8466425.05822
  22829512.675    -6699524.773 6  -5157938.61721
  23188460.6284   -4906421.85745  -3677957.46161
  23344783.7454   -4749900.71945  -1328091.50561
  20561469.3704    -621901.60947   -479441.97262
 91  5 13 19 19 59.9990000  0  6G18G 2G11G16G 6G19
  21404179.8004    4840203.05847   3762695.57762
  21810794.128   -10962206.934 6  -8500151.64522
  22826181.612    -6717025.039 6  -5171575.17021
  23185066.3084   -4924274.30945  -3691868.43361
  23337276.019    -4789362.500 5  -1358840.79121
  20561679.4174    -620808.44647   -478590.16062
 91  5 13 19 20 14.9990000  0  6G18G 2G11G16G 6G19
  21410163.0654    4871643.33547   3787194.45562
  21802575.5424  -11005424.61746  -8533827.69262
  22822876.347    -6734391.228 6  -5185107.25321
  23181693.3004   -4942001.01645  -3705681.43461
  23329766.206    -4828817.280 5  -1389584.67821
  20561894.9174    -619677.36347   -477708.80262
 91  5 13 19 20 29.9990000  0  6G18G 2G11G16G 6G19
  21416163.3944    4903169.14347   3811759.99162
  21794363.612   -11048570.485 6  -8567447.77322
  22819598.456    -6751616.320 6  -5198529.39121
  23178349.8704   -4959595.32445  -3719391.26661
  23322257.159    -4868258.234 5  -1420317.76021
  20562118.2064    -618501.49947   -476792.53662
 91  5 13 19 20 44.9990000  0  6G18G 2G11G16G 6G19
  21422175.7064    4934777.14847   3836389.56962
  21786166.5424  -11091647.64146  -8601014.32762
  22816345.9724   -6768703.12746  -5211843.77561
  23175021.1054   -4977060.19345  -3733000.22661
  23314755.933    -4907688.418 5  -1451042.47021
  20562348.4094    -617284.00947   -475843.84062
 91  5 13 19 20 59.9990000  0  6G18G 2G11G16G 6G19
  21428207.2144    4966463.36247   3861080.09262
  21777980.8864  -11134660.00946  -8634530.39062
  22813121.667    -6785655.524 6  -5225053.41121
  23171716.745    -4994399.484 5  -3746511.33821
  23307253.480    -4947111.964 5  -1481761.99621
  20562587.8944    -616028.68547   -474865.67562
 91  5 13 19 21 14.9990000  0  6G18G 2G11G16G 6G19
  21434253.1674    4998232.24847   3885835.03462
  21769807.6514  -11177602.82046  -8667992.25262
  22809920.651    -6802468.754 6  -5238154.61221
  23168446.4724   -5011608.71945  -3759921.12861
  23299755.7614   -4986524.16245  -1512472.68561
  20562835.7764    -614730.78647   -473854.32762
 91  5 13 19 21 29.9990000  0  6G18G 2G11G16G 6G19
  21440313.3084    5030081.16947   3910652.33862
  21761648.5424  -11220478.28346  -8701401.64162
  22806747.605    -6819145.040 6  -5251149.10421
  23165200.3944   -5028690.29546  -3773231.41361
  23292255.0264   -5025927.63545  -1543176.56961
  20563088.5114    -613392.90347   -472811.81862
 91  5 13 19 21 44.9990000  0  6G18G 2G11G16G 6G19
  21446387.6364    5062015.47747   3935536.17462
  21753503.2694  -11263280.82046  -8734754.19562
  22803602.003    -6835678.571 6  -5264032.35821
  23161972.3864   -5045638.16546  -3786437.49961
  23284764.003    -5065316.626 5  -1573869.15421
  20563352.3474    -612009.29547   -471733.68262
 91  5 13 19 21 59.9990000  0  6G18G 2G11G16G 6G19
  21452482.7614    5094031.88247   3960483.99062
  21745374.1364  -11306013.49847  -8768052.31662
  22800482.3084   -6852072.39646  -5276806.74861
  23158770.2374   -5062455.86745  -3799542.16461
  23277267.0114   -5104694.36345  -1604553.04761
  20563624.6754    -610583.00347   -470622.28662
 91  5 13 19 22 14.9990000  0  6G18G 2G11G16G 6G19
  21458591.1674    5126131.36747   3985496.53762
  21737254.1984  -11348674.88746  -8801294.88862
  22797390.003    -6868325.194 6  -5289471.24221
  23155597.183    -5079142.120 5  -3812544.42021
  23269774.730    -5144059.731 5  -1635227.22121
  20563903.1674    -609112.77947   -469476.65362
 91  5 13 19 22 29.9990000  0  6G18G 2G11G16G 6G19
  21464713.7924    5158313.39947   4010573.40562
  21729149.8864  -11391265.46947  -8834482.28862
  22794324.003    -6884437.363 6  -5302026.17021
  23152445.0344   -5095697.37945  -3825444.57461
  23262287.5264   -5183413.29745  -1665892.23461
  20564192.3084    -607599.25547   -468297.28162
 91  5 13 19 22 44.9990000  0  6G18G 2G11G16G 6G19
  21470855.4644    5190578.32247   4035714.86662
  21721060.7374  -11433784.26447  -8867613.75462
  22791286.5264   -6900407.89246  -5314470.71961
  23149324.0814   -5112120.40046  -3838241.69861
  23254800.2304   -5222754.23645  -1696547.40961
  20564487.3554    -606041.51747   -467083.46262
 91  5 13 19 22 59.9990000  0  6G18G 2G11G16G 6G19
  21477011.026     5222932.868 7   4060926.15622
  21712981.3234  -11476224.48647  -8900683.99362
  22788270.9644   -6916229.86346  -5326799.52861
  23146223.558    -5128405.029 6  -3850930.97221
  23247317.1054   -5262075.76445  -1727187.45361
  20564796.3704    -604432.74246   -465829.87762
 91  5 13 19 23 14.9990000  0  6G18G 2G11G16G 6G19
  21483184.1514    5255368.45147   4086200.59862
  21704916.7534  -11518594.41046  -8933699.45862
  22785289.839    -6931911.464 6  -5339018.94121
  23143150.0654   -5144559.50645  -3863518.83661
  23239836.3154   -5301386.38345  -1757818.99961
  20565108.2144    -602781.38147   -464543.09962
 91  5 13 19 23 29.9990000  0  6G18G 2G11G16G 6G19
  21489373.042     5287889.245 7   4111541.43722
  21696870.3784  -11560889.52346  -8966656.62862
  22782333.003    -6947448.392 6  -5351125.61921
  23140092.3624   -5160579.51945  -3876001.94261
  23232361.980    -5340681.796 5  -1788438.66521
  20565432.7304    -601083.16247   -463219.81662
 91  5 13 19 23 44.9990000  0  6G18G 2G11G16G 6G19
  21495576.8084    5320495.34347   4136948.74362
  21688835.8394  -11603109.48546  -8999555.23462
  22779404.9644   -6962840.04846  -5363119.10961
  23137074.9874   -5176464.45945  -3888379.81161
  23224882.308    -5379961.661 5  -1819046.29821
  20565762.6594    -599337.52047   -461859.57962
 91  5 13 19 23 59.9990000  0  6G18G 2G11G16G 6G19
  21501797.886     5353186.457 7   4162422.29822
  21680821.8474  -11645254.79447  -9032395.67862
  22776502.823    -6978086.709 6  -5374999.61021
  23134085.3554   -5192214.82345  -3900652.78561
  23217411.815    -5419226.459 5  -1849642.13621
  20566106.4804    -597544.76047   -460462.62462
 91  5 13 19 24 14.9990000  0  6G18G 2G11G16G 6G19
  21508033.315     5385962.505 7   4187962.03222
  21672811.8704  -11687324.57647  -9065177.26262
  22773628.886    -6993187.526 6  -5386766.46421
  23131107.9174   -5207830.07445  -3912820.46661
  23209946.597    -5458475.470 5  -1880225.68121
  20566455.2764    -595704.30647   -459028.50162
 91  5 13 19 24 29.9990000  0  6G18G 2G11G16G 6G19
  21514288.776     5418820.332 7   4213565.48822
  21664818.737   -11729321.740 7  -9097902.27122
  22770782.1444   -7008145.66846  -5398422.15461
  23128161.5584   -5223313.53645  -3924885.47661
  23202476.214    -5497712.018 5  -1910799.51921
  20566814.2374    -593819.32347   -457559.69162
 91  5 13 19 24 44.9990000  0  6G18G 2G11G16G 6G19
  21520556.245     5451762.285 7   4239234.49422
  21656844.3004  -11771243.82647  -9130568.77162
  22767963.245    -7022958.445 6  -5409964.55121
  23125245.065    -5238662.307 5  -3936845.55021
  23195013.534    -5536933.528 5  -1941361.64321
  20567181.5504    -591887.20047   -456054.14662
 91  5 13 19 24 59.9990000  0  6G18G 2G11G16G 6G19
  21526840.964     5484789.660 7   4264970.07122
  21648880.6904  -11813089.36747  -9163175.62462
  22765173.862    -7037624.212 6  -5421392.40621
  23122343.401    -5253874.993 5  -3948699.57421
  23187551.4874   -5576138.66045  -1971910.94761
  20567558.3234    -589906.39847   -454510.66562
 91  5 13 19 25 14.9990000  0  6G18G 2G11G16G 6G19
  21533142.120     5517898.021 7   4290768.74922
  21640928.456   -11854862.400 7  -9195725.98222
  22762409.8864   -7052147.00046  -5432708.85861
  23119476.612    -5268955.719 5  -3960450.76921
  23180096.526    -5615331.600 5  -2002450.83521
  20567944.4484    -587881.19547   -452932.58362
 91  5 13 19 25 29.9990000  0  6G18G 2G11G16G 6G19
  21539457.167     5551089.120 6   4316631.89722
  21632995.425   -11896561.056 7  -9228218.39122
  22759672.909    -7066524.962 6  -5443912.45121
  23116639.206    -5283902.921 6  -3972097.92321
  23172640.5584   -5654510.64545  -2032979.86361
  20568340.1594    -585809.83546   -451318.53762
 91  5 13 19 25 44.9980000  0  6G18G 2G11G16G 6G19
  21545788.350     5584358.739 6   4342556.23122
  21625076.029   -11938184.154 7  -9260651.92322
  22756966.2174   -7080758.61246  -5455003.60861
  23113818.0614   -5298717.04346  -3983641.36261
  23165190.678    -5693674.750 6  -2063497.24421
  20568740.5224    -583693.99547   -449669.83362
 91  5 13 19 25 59.9980000  0  6G18G 2G11G16G 6G19
  21552135.287     5617710.542 6   4368544.60022
  21617167.467   -11979737.603 7  -9293031.17822
  22754282.420    -7094850.284 6  -5465984.11321
  23111019.725    -5313400.611 6  -3995083.09521
  23157733.4434   -5732829.78545  -2094007.59261
  20569152.8814    -581533.86547   -447986.61162
 91  5 13 19 26 14.9980000  0  6G18G 2G11G16G 6G19
  21558499.576     5651145.209 6   4394597.53722
  21609274.178   -12021215.430 7  -9325351.51022
  22751631.1394   -7108795.86946  -5476850.78461
  23108253.1074   -5327949.64746  -4006419.96461
  23150287.9284   -5771969.99545  -2124506.35561
  20569570.3734    -579326.42647   -446266.53662
 91  5 13 19 26 29.9980000  0  6G18G 2G11G16G 6G19
  21564876.123     5684663.792 6   4420715.86522
  21601395.014   -12062616.502 7  -9357612.03122
  22749005.0924   -7122594.10446  -5487602.66061
  23105508.326    -5342363.436 6  -4017651.46421
  23142840.295    -5811094.460 5  -2154992.83321
  20570001.2644    -577070.57147   -444508.72762
 91  5 13 19 26 44.9980000  0  6G18G 2G11G16G 6G19
  21571270.053     5718268.219 6   4446901.08522
  21593530.881   -12103938.618 7  -9389811.03322
  22746407.209    -7136242.744 6  -5498237.94821
  23102789.701    -5356639.519 5  -4028775.65721
  23135401.811    -5850200.903 5  -2185465.32021
  20570439.8264    -574764.01747   -442711.41662
 91  5 13 19 26 59.9980000  0  6G18G 2G11G16G 6G19
  21577682.811     5751959.720 6   4473154.15322
  21585684.904   -12145180.088 7  -9421947.19422
  22743839.4284   -7149739.97546  -5508755.26461
  23100102.4514   -5370776.11646  -4039791.16761
  23127960.9984   -5889287.85345  -2215922.56961
  20570892.5454    -572405.12646   -440873.32462
 91  5 13 19 27 14.9980000  0  6G18G 2G11G16G 6G19
  21584108.498     5785733.538 6   4499471.36322
  21577852.850   -12186345.541 7  -9454024.11722
  22741297.8894   -7163090.42346  -5519158.20561
  23097440.8424   -5384778.11545  -4050701.79561
  23120528.2794   -5928360.05445  -2246368.38161
  20571347.1474    -569998.87947   -438998.33262
 91  5 13 19 27 29.9980000  0  6G18G 2G11G16G 6G19
  21590551.170     5819586.834 6   4525850.50422
  21570032.568   -12227437.699 7  -9486043.93022
  22738784.279    -7176296.614 6  -5529448.73421
  23094796.217    -5398648.216 5  -4061509.64821
  23113093.0224   -5967420.14045  -2276804.71661
  20571815.5764    -567547.63847   -437088.27962
 91  5 13 19 27 44.9980000  0  6G18G 2G11G16G 6G19
  21597010.998     5853522.384 7   4552293.73622
  21562225.912   -12268453.139 7  -9518003.95522
  22736300.2484   -7189355.33446  -5539624.35861
  23092182.217    -5412383.197 5  -4072212.20921
  23105660.272    -6006465.093 5  -2307229.29221
  20572289.2094    -565048.40947   -435140.83262
 91  5 13 19 27 59.9980000  0  6G18G 2G11G16G 6G19
  21603481.514     5887539.505 6   4578800.53022
  21554434.600   -12309392.314 7  -9549904.56522
  22733842.9434   -7202267.03246  -5549685.41261
  23089591.545    -5425983.539 5  -4082809.86921
  23098231.7014   -6045495.52345  -2337642.50761
  20572779.3504    -562501.60946   -433156.31362
 91  5 13 19 28 14.9980000  0  6G18G 2G11G16G 6G19
  21609972.131     5921638.536 6   4605371.14822
  21546659.467   -12350254.740 7  -9581745.37122
  22731413.561    -7215031.109 6  -5559631.44621
  23087033.8344   -5439448.98745  -4093302.43461
  23090813.2724   -6084510.84045  -2368043.97761
  20573268.0844    -559906.67747   -431134.29062
 91  5 13 19 28 29.9980000  0  6G18G 2G11G16G 6G19
  21616475.272     5955814.802 6   4632001.95422
  21538896.951   -12391044.631 7  -9613529.65322
  22729010.6934   -7227651.68946  -5569465.65661
  23084495.5684   -5452783.90045  -4103693.26661
  23083393.725    -6123515.544 5  -2398437.14921
  20573769.5224    -557268.03846   -429078.21862
 91  5 13 19 28 44.9980000  0  6G18G 2G11G16G 6G19
  21622992.115     5990070.784 6   4658694.87022
  21531150.022   -12431759.287 7  -9645255.30522
  22726637.6784   -7240126.33446  -5579186.15861
  23081986.3974   -5465985.65146  -4113980.33061
  23075970.545    -6162507.066 5  -2428820.07221
  20574281.2874    -554583.10347   -426986.06562
 91  5 13 19 28 59.9980000  0  6G18G 2G11G16G 6G19
  21629526.0374    6024403.00046   4685447.19362
  21523418.6154  -12472402.15447  -9676925.02862
  22724289.0294   -7252458.29446  -5588795.47461
  23079493.818    -5479057.544 6  -4124166.20321
  23068546.6474   -6201488.72745  -2459195.33561
  20574803.2404    -551855.12346   -424860.37062
 91  5 13 19 29 14.9980000  0  6G18G 2G11G16G 6G19
  21636072.842     6058806.576 6   4712255.12222
  21515695.678   -12512977.661 7  -9708542.26222
  22721967.6704   -7264651.88946  -5598296.97861
  23077031.5064   -5492004.01745  -4134254.34661
  23061134.936    -6240465.170 5  -2489566.49421
  20575325.7014    -549088.53947   -422704.59962
 91  5 13 19 29 29.9980000  0  6G18G 2G11G16G 6G19
  21642636.248     6093290.749 7   4739125.84922
  21507988.568   -12553476.332 7  -9740099.61922
  22719678.7094   -7276697.68246  -5607683.30661
  23074595.0374   -5504816.21446  -4144237.87861
  23053719.3894   -6279427.04145  -2519926.33661
  20575864.9754    -546274.04946   -420511.49362
 91  5 13 19 29 44.9980000  0  6G18G 2G11G16G 6G19
  21649214.6004    6127853.39646   4766057.72562
  21500297.732   -12593899.851 7  -9771598.42222
  22717415.5924   -7288597.27646  -5616955.71461
  23072178.5144   -5517495.62245  -4154117.93561
  23046306.920    -6318376.109 5  -2550276.15521
  20576404.6314    -543413.34447   -418282.38062
 91  5 13 19 29 59.9980000  0  6G18G 2G11G16G 6G19
  21655806.5294    6162493.08647   4793049.63262
  21492618.107   -12634249.626 7  -9803039.75422
  22715176.2254   -7300351.92946  -5626115.18961
  23069790.631    -5530043.669 5  -4163895.60121
  23038899.0224   -6357313.88345  -2580617.20461
  20576961.7404    -540507.88146   -416018.39062
 91  5 13 19 30 14.9980000  0  6G18G 2G11G16G 6G19
  21662408.4904    6197206.90846   4820099.30562
  21484950.545   -12674528.353 7  -9834425.73122
  22712967.2564   -7311964.22546  -5635163.71661
  23067426.6544   -5542463.28745  -4173573.23061
  23031489.6864   -6396242.91245  -2610951.42261
  20577519.0764    -537560.19347   -413721.49562
 91  5 13 19 30 29.9980000  0  6G18G 2G11G16G 6G19
  21669028.264     6231995.551 6   4847207.28722
  21477302.615   -12714734.920 7  -9865755.48422
  22710786.3974   -7323433.09546  -5644100.50961
  23065092.701    -5554753.198 5  -4183149.76521
  23024092.459    -6435162.440 5  -2641278.25221
  20578091.6544    -534569.37646   -411390.99662
 91  5 13 19 30 44.9980000  0  6G18G 2G11G16G 6G19
  21675663.9594    6266856.78046   4874371.82262
  21469664.084   -12754871.037 7  -9897030.33322
  22708629.7094   -7334760.56346  -5652927.09661
  23062778.873    -5566915.646 5  -4192626.99021
  23016683.8184   -6474074.40145  -2671599.15361
  20578667.0924    -531537.38447   -409028.40962
 91  5 13 19 30 59.9980000  0  6G18G 2G11G16G 6G19
  21682314.7874    6301798.87846   4901599.37362
  21462038.232   -12794928.523 7  -9928243.91522
  22706503.2724   -7345938.24046  -5661636.97861
  23060488.240    -5578942.433 5  -4201998.52721
  23009271.8184   -6512970.65745  -2701907.88361
  20579254.9204    -528455.65146   -406627.06362
 91  5 13 19 31 14.9980000  0  6G18G 2G11G16G 6G19
  21688976.0454    6336816.00246   4928885.38362
  21454432.803   -12834912.713 7  -9959400.38622
  22704402.5454   -7356971.35546  -5670234.21461
  23058223.1544   -5590838.73845  -4211268.37161
  23001882.1004   -6551856.40645  -2732208.39461
  20579846.1314    -525329.47347   -404191.08662
 91  5 13 19 31 29.9980000  0  6G18G 2G11G16G 6G19
  21695656.6234    6371903.79446   4956226.46362
  21446835.4124  -12874827.85847  -9990503.05362
  22702330.1864   -7367864.25646  -5678722.18361
  23055985.3114   -5602609.18745  -4220440.12861
  22994480.506    -6590736.183 5  -2762504.23321
  20580449.6624    -522163.48047   -401724.08262
 91  5 13 19 31 44.9980000  0  6G18G 2G11G16G 6G19
  21702345.8894    6407070.27946   4983628.85962
  21439254.014   -12914665.383 7 -10021545.23622
  22700284.6394   -7378608.42546  -5687094.27061
  23053770.4594   -5614245.26845  -4229507.20961
  22987083.5844   -6629601.51745  -2792788.84361
  20581060.3264    -518949.30447   -399219.53462
 91  5 13 19 31 59.9980000  0  6G18G 2G11G16G 6G19
  21709052.7254    6442308.56146   5011087.19962
  21431684.170   -12954431.999 7 -10052532.16622
  22698269.9124   -7389210.52646  -5695355.64561
  23051579.0684   -5625753.79845  -4238474.88361
  22979688.318    -6668459.183 5  -2823067.46321
  20581681.397     -515693.474 7   -396682.54222
 91  5 13 19 32 14.9980000  0  6G18G 2G11G16G 6G19
  21715771.2484    6477620.55446   5038602.98362
  21424135.475   -12994125.371 7 -10083462.02422
  22696278.381    -7399668.204 6  -5703504.49521
  23049413.0224   -5637132.45145  -4247341.36661
  22972292.5224   -6707307.02145  -2853338.42961
  20582308.0614    -512393.64047   -394111.25162
 91  5 13 19 32 29.9980000  0  6G18G 2G11G16G 6G19
  21722505.6704    6513002.99046   5066173.64962
  21416595.6704  -13033748.74347 -10114337.33562
  22694313.8894   -7409984.50446  -5711543.17361
  23047272.3264   -5648384.46045  -4256109.15561
  22964908.0844   -6746148.23545  -2883604.23761
  20582945.8974    -509052.90447   -391508.08662
 91  5 13 19 32 44.9980000  0  6G18G 2G11G16G 6G19
  21729248.1784    6548456.46946   5093799.67462
  21409067.576   -13073301.382 7 -10145157.53322
  22692379.9514   -7420158.85846  -5719471.23861
  23045154.6314   -5659509.33245  -4264777.88761
  22957513.9594   -6784982.15245  -2913864.39461
  20583587.9984    -505670.69247   -388872.59762
 91  5 13 19 32 59.9980000  0  6G18G 2G11G16G 6G19
  21736012.7094    6583980.62946   5121480.78261
  21401553.8974  -13112783.16647 -10175922.52462
  22690470.2644   -7430191.14446  -5727288.61061
  23043065.2794   -5670507.01345  -4273347.51661
  22950124.8734   -6823808.96345  -2944118.97561
  20584240.1394    -502247.15846   -386204.91762
 91  5 13 19 33 14.9980000  0  6G18G 2G11G16G 6G19
  21742786.8654    6619573.32246   5149215.28462
  21394055.701   -13152195.856 7 -10206633.66422
  22688588.3654   -7440083.08146  -5734996.62161
  23040992.967    -5681379.750 5  -4281819.76521
  22942740.9984   -6862630.38045  -2974369.37461
  20584898.2094    -498783.88847   -383506.26662
 91  5 13 19 33 29.9980000  0  6G18G 2G11G16G 6G19
  21749572.0844    6655237.89246   5177005.78761
  21386568.522   -13191535.785 7 -10237288.11022
  22686732.7484   -7449831.01346  -5742592.40261
  23038945.8184   -5692123.62945  -4290191.61861
  22935356.131    -6901442.972 5  -3004612.84521
  20585565.3424    -495277.37147   -380773.92462
 91  5 13 19 33 44.9980000  0  6G18G 2G11G16G 6G19
  21756371.5844    6690973.38646   5204851.57662
  21379097.920   -13230803.584 7 -10267886.35522
  22684905.584    -7459435.740 6  -5750076.61321
  23036931.9284   -5702739.54545  -4298463.73361
  22927970.193    -6940247.385 5  -3034849.98821
  20586241.4984    -491728.19047   -378008.33762
 91  5 13 19 33 59.9980000  0  6G18G 2G11G16G 6G19
  21763185.7174    6726784.38946   5232756.19062
  21371639.8974  -13269994.47947 -10298424.67062
  22683107.1864   -7468892.21546  -5757445.29461
  23034934.959    -5713222.751 5  -4306632.47921
  22920586.0924   -6979038.84745  -3065077.06761
  20586925.0534    -488131.58047   -375205.79162
 91  5 13 19 34 14.9980000  0  6G18G 2G11G16G 6G19
  21770010.592     6762664.857 6   5260714.93722
  21364193.6074  -13309114.38847 -10328907.67962
  22681335.0144   -7478206.37846  -5764703.08361
  23032966.498    -5723579.363 5  -4314702.58521
  22913207.4904   -7017823.47746  -3095298.77961
  20587619.2094    -484493.51047   -372370.93662
 91  5 13 19 34 29.9980000  0  6G18G 2G11G16G 6G19
  21776854.5844    6798611.48246   5288725.22462
  21356765.3264  -13348166.24147 -10359337.65462
  22679586.7564   -7487381.12446  -5771852.24061
  23031015.5064   -5733812.48045  -4322676.44361
  22905829.287    -7056604.224 5  -3125517.50021
  20588318.0684    -480816.88447   -369506.04362
 91  5 13 19 34 44.9980000  0  6G18G 2G11G16G 6G19
  21783707.8574    6834620.92746   5316784.46961
  21349342.592   -13387152.912 7 -10389716.83622
  22677867.6624   -7496419.48746  -5778895.12961
  23029091.4124   -5743925.07945  -4330556.39861
  22898449.4674   -7095384.15545  -3155735.54961
  20589024.7254    -477104.72247   -366613.45562
 91  5 13 19 34 59.9980000  0  6G18G 2G11G16G 6G19
  21790572.6624    6870696.28546   5344895.06762
  21341936.3424  -13426071.25647 -10420042.77962
  22676176.5064   -7505318.09146  -5785829.11761
  23027191.6934   -5753913.84745  -4338339.86961
  22891075.2794   -7134159.99346  -3185950.39361
  20589738.9434    -473353.65346   -363690.54862
 91  5 13 19 35 14.9980000  0  6G18G 2G11G16G 6G19
  21797448.5684    6906835.63046   5373055.54062
  21334543.9044  -13464922.98847
  22674508.0764   -7514078.73646  -5792655.60061
  23025316.9364   -5763780.70345  -4346028.33461
  22883692.8114   -7172933.57546
  20590459.5144    -469565.53347   -360738.78062
 91  5 13 19 35 29.9980000  0  6G18G 2G11G16G 6G19
  21804340.3654    6943045.93746   5401271.30262
  21327166.037   -13503700.919 7
  22672865.9674   -7522694.17146  -5799368.92861
  23023462.857    -5773518.796 6  -4353616.45121
  22876314.8114   -7211697.83645
  20591190.6784    -465733.17546   -357752.52762
 91  5 13 19 35 44.9980000  0  6G18G 2G11G16G 6G19
  21811241.9364    6979325.24446   5429540.82661
  21319798.678   -13542406.507 7
  22671254.9904   -7531166.03046  -5805970.37661
  23021629.2254   -5783129.74645  -4361105.50661
  22868940.2174   -7250454.47845
  20591926.2484    -461858.07147   -354732.97562
 91  5 13 19 35 59.9980000  0  6G18G 2G11G16G 6G19
  21818161.9284    7015672.30946   5457863.15561
  21312447.7874  -13581040.55747 -10540797.92162
  22669670.4514   -7539495.15146  -5812460.60861
  23019826.732    -5792614.405 5  -4368496.15621
  22861565.928    -7289204.335 5  -3306763.97221
  20592672.2724    -457941.12446   -351680.81962
 91  5 13 19 36 14.9980000  0  6G18G 2G11G16G 6G19
  21825093.1234    7052092.20746   5486242.23061
  21305111.568   -13619598.037 7 -10570842.67422
  22668113.4674   -7547676.44346  -5818835.64461
  23018050.959    -5801967.707 5  -4375784.46821
  22854195.3814   -7327942.44745  -3336949.45261
  20593426.1864    -453977.37847   -348592.18962
 91  5 13 19 36 29.9980000  0  6G18G 2G11G16G 6G19
  21832035.5764    7088576.02946   5514671.12161
  21297785.7954  -13658087.33947 -10600834.29762
  22666582.350    -7555718.347 6  -5825102.06921
  23016293.8114   -5811198.37745  -4382977.20161
  22846826.1864   -7366677.30146  -3367132.38161
  20594186.6234    -449975.16446   -345473.58562
 91  5 13 19 36 44.9980000  0  6G18G 2G11G16G 6G19
  21838988.5064    7125125.47546   5543151.14661
  21290474.889   -13696506.363 7 -10630771.16522
  22665079.8034   -7563618.74146  -5831258.22861
  23014561.8734   -5820304.45946  -4390072.85161
  22839453.248    -7405406.799 5  -3397311.18021
  20594956.4124    -445932.41147   -342323.39962
 91  5 13 19 36 59.9980000  0  6G18G 2G11G16G 6G19
  21845958.0614    7161740.96246   5571682.63261
  21283178.7094  -13734854.70247 -10660652.95062
  22663604.0924   -7571377.07246  -5837303.68061
  23012850.3504   -5829285.33646  -4397070.94461
  22832082.482    -7444130.550 5  -3427485.48721
  20595733.3504    -441848.53846   -339141.16862
 91  5 13 19 37 14.9980000  0  6G18G 2G11G16G 6G19
  21852937.6864    7198428.54746   5600270.29161
  21275895.2954  -13773125.97947 -10690474.68162
  22662156.693    -7578987.132 6  -5843233.60421
  23011168.1154   -5838135.02245  -4403966.79661
  22824721.4824   -7482842.44446  -3457650.52161
  20596518.5614    -437717.42246   -335922.12762
 91  5 13 19 37 29.9980000  0  6G18G 2G11G16G 6G19
  21859933.3574    7235184.33946   5628911.10461
  21268627.5684  -13811323.87647 -10720239.24562
  22660735.1934   -7586452.56146  -5849050.83861
  23009504.4904   -5846857.21045  -4410763.31261
  22817352.545    -7521546.126 6  -3487809.19821
  20597315.8734    -433542.60246   -332669.03262
 91  5 13 19 37 44.9980000  0  6G18G 2G11G16G 6G19
  21866939.9364    7272010.81746   5657606.99061
  21261372.9124  -13849445.62647 -10749944.46862
  22659341.6394   -7593770.54046  -5854753.15461
  23007870.6314   -5855449.38845  -4417458.54061
  22809991.0294   -7560238.76946  -3517959.28061
  20598117.5454    -429321.27147   -329379.69062
 91  5 13 19 37 59.9980000  0  6G18G 2G11G16G 6G19
  21873962.6934    7308904.88346   5686355.55661
  21254131.8114  -13887493.91747 -10779592.45262
  22657975.4674   -7600943.88846  -5860342.78761
  23006261.2324   -5863914.32745  -4424054.60861
  22802630.1934   -7598923.42046  -3548103.08861
  20598931.0064    -425056.27846   -326056.32562
 91  5 13 19 38 14.9980000  0  6G18G 2G11G16G 6G19
  21880997.3184    7345866.79446   5715156.97861
  21246904.0844  -13925468.24347 -10809182.80262
  22656639.3504   -7607972.04046  -5865819.27461
  23004669.553    -5872251.581 5  -4430551.22421
  22795262.9364   -7637599.52745  -3578240.27361
  20599748.4984    -420747.16747   -322698.58962
 91  5 13 19 38 29.9980000  0  6G18G 2G11G16G 6G19
  21888042.5534    7382897.72946   5744012.18761
  21239693.6234  -13963367.32447 -10838714.51662
  22655330.4204   -7614853.70846  -5871181.62661
  23003113.6864   -5880459.86546  -4436947.31961
  22787904.365    -7676265.819 5  -3608369.80921
  20600576.2564    -416392.57146   -319305.40262
 91  5 13 19 38 44.9980000  0  6G18G 2G11G16G 6G19
  21895102.5374    7419997.61946   5772921.13061
  21232495.3114  -14001190.67547 -10868187.22162
  22654050.2874   -7621588.41346  -5876429.45361
  23001580.201    -5888539.130 6  -4443242.86921
  22780554.2254   -7714921.93846  -3638491.40561
  20601415.0144    -411992.07146   -315876.44962
 91  5 13 19 38 59.9980000  0  6G18G 2G11G16G 6G19
  21902174.7254    7457168.85746   5801885.65661
  21225311.7724  -14038935.61547 -10897598.83062
  22652794.7254   -7628173.47846  -5881560.67361
  23000066.889    -5896486.722 6  -4449435.77221
  22773197.186    -7753565.214 5  -3668603.01821
  20602261.3654    -407542.98947   -312409.64662
 91  5 13 19 39 14.9980000  0  6G18G 2G11G16G 6G19
  21909264.4824    7494412.06846   5830906.28061
  21218145.7094  -14076601.47347 -10926948.82162
  22651570.436    -7634608.308 6  -5886574.84121
  22998576.0144   -5904302.01345  -4455525.63061
  22765850.201    -7792195.000 5  -3698704.10621
  20603117.115     -403044.674 7   -308904.47722
 91  5 13 19 39 29.9980000  0  6G18G 2G11G16G 6G19
  21916365.272     7531729.046 6   5859984.37321
  21210992.8504  -14114186.28947 -10956235.65662
  22650375.5144   -7640890.92046  -5891470.39261
  22997114.107    -5911983.325 5  -4461511.07221
  22758501.1074   -7830809.56745  -3728793.30061
  20603986.615     -398495.058 6   -305359.33922
 91  5 13 19 39 44.9980000  0  6G18G 2G11G16G 6G19
  21923474.9674    7569118.44146   5889118.90161
  21203857.6394  -14151690.52847 -10985459.70462
  22649209.6314   -7647021.91146  -5896247.78361
  22995679.0844   -5919531.19845  -4467392.54461
  22751155.0454   -7869409.50146  -3758871.10561
  20604859.357     -393894.676 7   -301774.63622
 91  5 13 19 39 59.9980000  0  6G18G 2G11G16G 6G19
  21930606.2094    7606578.24446   5918308.29361
  21196734.2094  -14189116.38547 -11014622.67862
  22648070.8264   -7653003.52846  -5900908.79261
  22994268.5064   -5926948.00745  -4473171.89261
  22743814.553    -7907996.967 6  -3788939.25221
  20605745.0294    -389245.71947   -298152.08362
 91  5 13 19 40 14.9980000  0  6G18G 2G11G16G 6G19
  21937749.2724    7644102.99546   5947548.29061
  21189627.9754  -14226469.18547 -11043728.72762
  22646959.1314   -7658840.99646  -5905457.47761
  22992879.217    -5934239.213 5  -4478853.35621
  22736472.092    -7946577.153 5  -3819001.69121
  20606637.178     -384553.490 7   -294495.81422
 91  5 13 19 40 29.9980000  0  6G18G 2G11G16G 6G19
  21944902.5144    7681697.16346   5976842.38061
  21182533.8424  -14263744.08147 -11072774.06862
  22645876.404    -7664529.499 6  -5909890.08221
  22991517.209    -5941400.113 5  -4484433.30521
  22729134.0454   -7985145.54346  -3849054.91761
  20607542.561     -379813.317 6   -290802.18422
 91  5 13 19 40 44.9980000  0  6G18G 2G11G16G 6G19
  21952068.3424    7719357.23146   6006187.82161
  21175455.2724  -14300944.04047 -11101761.02162
  22644821.4044   -7670072.13146  -5914209.02361
  22990179.568    -5948433.655 5  -4489913.96921
  22721793.318    -8023705.035 6  -3879101.23221
  20608447.982     -375028.040 6   -287073.41222
 91  5 13 19 40 59.9980000  0  6G18G 2G11G16G 6G19
  21959246.9434    7757085.83146   6035586.66761
  21168390.3034  -14338066.42547 -11130687.52262
  22643796.1704   -7675466.25946  -5918412.24361
  22988861.647    -5955337.564 5  -4495293.65921
  22714457.4044   -8062253.10346  -3909138.65261
  20609369.1394    -370195.03746   -283307.44962
 91  5 13 19 41 14.9980000  0  6G18G 2G11G16G 6G19
  21966437.990     7794878.481 6   6065035.40521
  21161341.1394  -14375115.19547 -11159556.66163
  22642798.1864   -7680716.00446  -5922502.95361
  22987569.7564   -5962116.00945  -4500575.59561
  22707119.756    -8100793.993 5  -3939170.47821
  20610298.8654    -365318.35647   -279507.44762
 91  5 13 19 41 29.9980000  0  6G18G 2G11G16G 6G19
  21973646.5224    7832736.28646   6094534.93661
  21154304.975   -14412088.832 7 -11188367.26322
  22641824.748    -7685819.824 6  -5926479.97521
  22986309.3034   -5968767.63045  -4505758.73061
  22699792.6004   -8139326.11245  -3969195.46461
  20611235.701     -360396.526 6   -275672.27222
 91  5 13 19 41 44.9980000  0  6G18G 2G11G16G 6G19
  21980861.1394    7870665.28246   6124089.92761
  21147285.6234  -14448981.32947 -11217114.63362
  22640883.5374   -7690771.59946  -5930338.50461
  22985070.7324   -5975286.48745  -4510838.35261
  22692458.584    -8177843.508 5  -3999208.95921
  20612179.842     -355423.668 7   -271797.33022
 91  5 13 19 41 59.9980000  0  6G18G 2G11G16G 6G19
  21988090.8654    7908659.46346   6153695.71661
  21140276.8654  -14485798.50947 -11245803.30962
  22639969.506    -7695576.861 6  -5934082.87821
  22983853.693    -5981678.108 5  -4515818.84421
  22685133.482    -8216351.798 6  -4029215.37821
  20613138.381     -350405.142 6   -267886.80522
 91  5 13 19 42 14.9980000  0  6G18G 2G11G16G 6G19
  21995333.9754    7946714.68846   6183349.06861
  21133285.865   -14522544.218 7 -11274436.30922
  22639082.4754   -7700239.76946  -5937716.31861
  22982660.107    -5987946.730 5  -4520703.49321
  22677808.3344   -8254855.07046  -4059217.89561
  20614098.0844    -345344.92147   -263943.78662
 91  5 13 19 42 29.9980000  0  6G18G 2G11G16G 6G19
  22002585.7874    7984834.60246   6213052.82461
  21126307.2794  -14559214.45047 -11303010.48262
  22638221.1154   -7704756.39246  -5941235.77061
  22981488.8654   -5994088.73645  -4525489.51561
  22670485.107    -8293349.397 5  -4089213.44821
  20615072.8184    -340239.11846   -259965.25362
 91  5 13 19 42 44.9980000  0  6G18G 2G11G16G 6G19
  22009853.2094    8023016.18646   6242804.64161
  21119343.889   -14595811.841 7 -11331527.90423
  22637390.2794   -7709129.42046  -5944643.32761
  22980347.2014   -6000106.77246  -4530178.91361
  22663154.9284   -8331837.44845  -4119204.09961
  20616049.279     -335090.257 6   -255953.16822
 91  5 13 19 42 59.9980000  0  6G18G 2G11G16G 6G19
  22017128.834     8061258.235 6   6272603.56421
  21112392.5924  -14632337.33447 -11359989.30362
  22636585.584    -7713359.818 6  -5947939.75721
  22979223.107    -6006001.708 5  -4534772.37621
  22655831.9824   -8370320.33845  -4149190.71661
  20617038.256     -329899.367 6   -251908.33222
 91  5 13 19 43 14.9980000  0  6G18G 2G11G16G 6G19
  22024418.4904    8099564.76946   6302452.74461
  21105455.9514  -14668786.61647 -11388391.31162
  22635807.6004   -7717443.43146  -5951121.79661
  22978124.787    -6011769.699 5  -4539266.94721
  22648515.248    -8408793.808 6  -4179170.00221
  20618033.2254    -324662.28846   -247827.50662
 91  5 13 19 43 29.9980000  0  6G18G 2G11G16G 6G19
  22031724.5144    8137937.47946   6332353.48661
  21098532.232   -14705157.776 7 -11416732.45222
  22635059.373    -7721378.234 6  -5954187.89521
  22977053.5374   -6017408.71845  -4543661.01861
  22641198.943    -8447255.926 6  -4209140.44821
  20619040.389     -319376.958 6   -243709.07822
 91  5 13 19 43 44.9980000  0  6G18G 2G11G16G 6G19
  22039036.420     8176369.095 6   6362300.13121
  21091627.186   -14741458.040 7 -11445018.35023
  22634337.553    -7725171.386 6  -5957143.60321
  22976003.115    -6022926.384 5  -4547960.50821
  22633873.357    -8485713.859 5  -4239107.65021
  20620052.334     -314050.486 6   -239558.59522
 91  5 13 19 43 59.9980000  0  6G18G 2G11G16G 6G19
  22046362.576     8214866.774 6   6392298.24721
  21084733.311   -14777679.702 7 -11473242.99922
  22633645.2174   -7728815.38646  -5959983.09761
  22974974.201    -6028315.149 5  -4552159.53621
  22626558.647    -8524160.142 5  -4269065.77021
  20621076.537     -308675.344 6   -235370.19222
 91  5 13 19 44 14.9980000  0  6G18G 2G11G16G 6G19
  22053696.9754    8253424.15446   6422342.89361
  21077855.857   -14813828.865 7 -11501411.15122
  22632977.9124   -7732316.37046  -5962711.14261
  22973975.2484   -6033581.26745  -4556263.03561
  22619244.459    -8562600.826 6  -4299019.49321
  20622106.818     -303257.324 6   -231148.37222
 91  5 13 19 44 29.9980000  0  6G18G 2G11G16G 6G19
  22061049.350     8292048.116 6   6452439.40921
  21070991.904   -14849898.300 7 -11529517.18022
  22632341.201    -7735667.224 6  -5965322.21421
  22972997.303    -6038717.638 5  -4560265.43421
  22611934.178    -8601028.673 6  -4328963.21721
  20623148.951     -297789.513 6   -226887.75722
 91  5 13 19 44 44.9980000  0  6G18G 2G11G16G 6G19
  22068410.537     8330734.375 6   6482584.47221
  21064141.373   -14885892.294 7 -11557564.42522
  22631731.787    -7738872.203 6  -5967819.60921
  22972046.0534   -6043728.33345  -4564169.89461
  22604622.0144   -8639448.09546  -4358900.41061
  20624195.568     -292276.065 6   -222591.57622
 91  5 13 19 44 59.9980000  0  6G18G 2G11G16G 6G19
  22075782.6544    8369479.15046   6512775.13661
  21057307.498   -14921814.037 7 -11585555.37722
  22631146.553    -7741934.467 6  -5970205.80021
  22971114.100    -6048616.854 6  -4567979.16921
  22597311.225    -8677862.332 6  -4388833.58721
  20625255.279     -286720.171 6   -218262.32622
 91  5 13 19 45 14.9980000  0  6G18G 2G11G16G 6G19
  22083168.326     8408286.627 6   6543014.64521
  21050484.482   -14957659.391 7 -11613486.79722
  22630593.779    -7744849.878 6  -5972477.56521
  22970208.4514   -6053379.54245  -4571690.33661
  22590004.4754   -8716267.20245  -4418759.42661
  20626319.420     -281117.655 6   -213896.74222
 91  5 13 19 45 29.9980000  0  6G18G 2G11G16G 6G19
  22090565.451     8447162.057 6   6573307.11121
  21043680.232   -14993422.550 7 -11641354.17023
  22630067.139    -7747612.753 6  -5974630.46721
  22969322.381    -6058010.555 5  -4575298.97621
  22582695.631    -8754657.152 5  -4448673.61521
  20627396.850     -275462.812 6   -209490.38822
 91  5 13 19 45 44.9980000  0  6G18G 2G11G16G 6G19
  22097975.3424    8486103.22746   6603650.81261
  21036888.389   -15029105.660 7 -11669159.16923
  22629571.725    -7750225.355 6  -5976666.27821
  22968469.397    -6062512.145 5  -4578806.77421
  22575397.881    -8793034.256 6  -4478577.81521
  20628481.912     -269757.687 7   -205044.85122
 91  5 13 19 45 59.9980000  0  6G18G 2G11G16G 6G19
  22105400.459     8525111.315 6   6634046.64221
  21030113.748   -15064707.088 7 -11696900.52322
  22629102.342    -7752686.118 6  -5978583.77521
  22967638.4364   -6066882.93446  -4582212.60061
  22568097.9674   -8831396.94946  -4508470.80661
  20629575.811     -264000.880 6   -200559.04822
 91  5 13 19 46 14.9980000  0  6G18G 2G11G16G 6G19
  22112832.498     8564184.965 6   6664493.56721
  21023354.053   -15100228.017 7 -11724579.14922
  22628663.811    -7754996.160 6  -5980383.81921
  22966829.2014   -6071124.27746  -4585517.54761
  22560797.5684   -8869746.44145  -4538353.52761
  20630683.037     -258193.284 6   -196033.67222
 91  5 13 19 46 29.9980000  0  6G18G 2G11G16G 6G19
  22120282.522     8603327.861 6   6694994.45421
  21016611.350   -15135664.453 7 -11752191.93822
  22628252.2794   -7757151.56346  -5982063.38161
  22966043.9204   -6075232.34245  -4588718.63761
  22553506.475    -8908078.724 6  -4568222.78021
  20631797.764     -252330.868 6   -191465.57722
 91  5 13 19 46 44.9980000  0  6G18G 2G11G16G 6G19
  22127745.568     8642541.073 6   6725550.11721
  21009885.772   -15171015.319 7 -11779738.04723
  22627871.9984   -7759151.26546  -5983621.60161
  22965292.4904   -6079205.79445  -4591814.92861
  22546210.4044   -8946392.74046  -4598077.82861
  20632923.514     -246412.500 6   -186853.88022
 91  5 13 19 46 59.9980000  0  6G18G 2G11G16G 6G19
  22135221.014     8681822.213 6   6756158.72021
  21003172.732   -15206282.439 7 -11807218.90222
  22627519.967    -7760997.306 6  -5985060.09721
  22964562.889    -6083047.328 6  -4594808.35621
  22538926.0534   -8984690.61246  -4627920.30261
  20634061.217     -240440.244 6   -182200.19522
 91  5 13 19 47 14.9980000  0  6G18G 2G11G16G 6G19
  22142710.795     8721173.404 6   6786821.90821
  20996479.209   -15241463.458 7 -11834632.66522
  22627198.342    -7762687.332 6  -5986377.02321
  22963855.740    -6086754.539 5  -4597697.09021
  22531639.568    -9022969.811 6  -4657748.22021
  20635207.881     -234411.539 6   -177502.52222
 91  5 13 19 47 29.9980000  0  6G18G 2G11G16G 6G19
  22150210.686     8760595.601 6   6817540.42321
  20989800.623   -15276556.762 7 -11861978.08222
  22626907.693    -7764219.800 6  -5987571.17121
  22963174.7724   -6090325.53245  -4600479.71361
  22524360.584    -9061228.925 6  -4687560.48221
  20636365.772     -228324.912 6   -172759.71922
 91  5 13 19 47 44.9980000  0  6G18G 2G11G16G 6G19
  22157726.029     8800083.678 6   6848310.28121
  20983137.186   -15311567.672 7 -11889259.29022
  22626642.8344   -7765600.04546  -5988646.69561
  22962521.740    -6093766.072 5  -4603160.71621
  22517083.3974   -9099473.12446  -4717361.15061
  20637534.123     -222185.422 6   -167975.72322
 91  5 13 19 47 59.9980000  0  6G18G 2G11G16G 6G19
  22165253.5064    8839645.50546   6879137.59461
  20976490.600   -15346487.893 7 -11916469.83622
  22626412.053    -7766819.848 6  -5989597.21521
  22961895.3034   -6097068.08745  -4605733.75261
  22509807.3184   -9137694.16246  -4747143.75461
  20638717.631     -215984.999 6   -163144.24722
 91  5 13 19 48 14.9980000  0  6G18G 2G11G16G 6G19
  22172794.4364    8879272.76446   6910015.89561
  20969864.068   -15381325.660 7 -11943616.13523
  22626210.1864   -7767887.56046  -5990429.21761
  22961290.350    -6100240.182 6  -4608205.54221
  22502540.232    -9175900.497 6  -4776914.86121
  20639904.217     -209731.862 6   -158271.69022
 91  5 13 19 48 29.9980000  0  6G18G 2G11G16G 6G19
  22180347.9204    8918967.75546   6940946.96961
  20963249.623   -15416078.199 7 -11970696.01923
  22626037.217    -7768800.447 6  -5991140.58121
  22960710.061    -6103279.583 5  -4610573.92021
  22495267.1154   -9214089.31946  -4806672.34661
  20641105.397     -203423.239 6   -153355.91622
 91  5 13 19 48 44.9980000  0  6G18G 2G11G16G 6G19
  22187915.397     8958732.987 6   6971932.78121
  20956655.397   -15450742.798 7 -11997707.38022
  22625892.662    -7769555.692 6  -5991729.09921
  22960158.654    -6106183.527 5  -4612836.81921
  22488006.3344   -9252257.80646  -4836414.02761
  20642317.811     -197056.412 6   -148394.75922
 91  5 13 19 48 59.9980000  0  6G18G 2G11G16G 6G19
  22195496.1234    8998564.63346   7002970.34461
  20950073.506   -15485322.777 7 -12024652.79823
  22625779.7094   -7770156.85346  -5992197.56161
  22959632.436    -6108955.685 5  -4614996.98221
  22480742.1234   -9290409.43345  -4866142.56561
  20643538.686     -190634.601 6   -143390.77422
 91  5 13 19 49 14.9980000  0  6G18G 2G11G16G 6G19
  22203089.420     9038462.065 6   7034059.16921
  20943510.240   -15519818.772 7 -12051532.78523
  22625694.272    -7770604.602 6  -5992546.47321
  22959126.693    -6111597.026 5  -4617055.17721
  22473485.217    -9328544.933 5  -4895858.47921
  20644770.311     -184158.324 6   -138344.34222
 91  5 13 19 49 29.9980000  0  6G18G 2G11G16G 6G19
  22210691.7724    9078425.52646   7065199.43061
  20936959.412   -15554230.337 7 -12078346.97223
  22625638.1154   -7770898.45846  -5992775.48261
  22958650.857    -6114107.194 5  -4619011.23021
  22466237.014    -9366663.806 6  -4925561.43921
  20646013.451     -177627.259 6   -133255.22622
 91  5 13 19 49 44.9980000  0  6G18G 2G11G16G 6G19
  22218309.928     9118456.241 6   7096392.12121
  20930429.256   -15588555.942 7 -12105094.18423
  22625608.217    -7771037.048 6
  22958197.975    -6116484.455 5  -4620863.68021
  22458987.428    -9404764.531 6  -4955250.30721
  20647267.100     -171039.820 6   -128122.17622
 91  5 13 19 49 59.9980000  0  6G18G 2G11G16G 6G19
  22225941.2324    9158555.70746   7127638.36561
  20923914.443   -15622793.669 7 -12131772.91723
  22625612.725    -7771018.450 6
  22957772.959    -6118727.588 5  -4622611.63321
  22451739.5294   -9442845.29446  -4984923.64261
  20648533.178     -164394.014 6   -122943.64922
 91  5 13 19 50 14.9980000  0  6G18G 2G11G16G 6G19
  22233587.9754    9198723.69046   7158938.00261
  20917416.193   -15656943.488 7 -12158383.15023
  22625645.342    -7770842.692 6
  22957371.2874   -6120836.52445  -4624254.97361
  22444496.100    -9480905.962 6  -5014581.26121
  20649808.053     -157689.714 6   -117719.54322
 91  5 13 19 50 29.9980000  0  6G18G 2G11G16G 6G19
  22241242.2094    9238961.95046   7190292.41061
  20910935.6544  -15691003.55547 -12184923.45063
  22625711.342    -7770507.990 6
  22956994.1784   -6122809.46145  -4625792.38861
  22437262.1934   -9518944.78346  -5044221.86361
  20651096.6784    -150925.03646   -112448.38962
 91  5 13 19 50 44.9980000  0  6G18G 2G11G16G 6G19
  22248913.100     9279269.753 6   7221701.00021
  20904468.6004  -15724974.24047 -12211394.10463
  22625805.514    -7770014.690 6  -5992086.93421
  22956645.068    -6124646.780 5  -4627224.11121
  22430023.537    -9556962.015 6  -5073845.65421
  20652394.115     -144100.231 6   -107130.38422
 91  5 13 19 50 59.9980000  0  6G18G 2G11G16G 6G19
  22256593.1074    9319643.88246   7253161.26661
  20898022.107   -15758858.426 7 -12237797.35123
  22625927.022    -7769365.850 6  -5991581.36321
  22956321.3344   -6126351.76246  -4628552.69961
  22422794.1934   -9594960.70646  -5103455.01661
  20653702.912     -137218.158 6   -101767.75522
 91  5 13 19 51 14.9980000  0  6G18G 2G11G16G 6G19
  22264289.7644    9360084.41746   7284673.27861
  20891589.670   -15792655.790 7 -12264132.94323
  22626079.615    -7768561.363 6  -5990954.50521
  22956020.3264   -6127924.11645  -4629777.93361
  22415568.342    -9632940.680 6  -5133049.77521
  20655024.4674    -130278.83846    -96360.51762
 91  5 13 19 51 29.9980000  0  6G18G 2G11G16G 6G19
  22271998.9044    9400593.68446   7316238.85461
  20885176.232   -15826363.711 7 -12290398.84523
  22626263.631    -7767598.621 6  -5990204.33221
  22955752.9364   -6129361.69145  -4630898.18961
  22408341.107    -9670899.307 6  -5162627.90821
  20656353.959     -123279.478 6    -90906.49822
 91  5 13 19 51 44.9980000  0  6G18G 2G11G16G 6G19
  22279722.0454    9441171.50646   7347857.84361
  20878779.076   -15859981.900 7 -12316594.81823
  22626479.037    -7766477.474 6  -5989330.72921
  22955497.537    -6130664.479 5  -4631913.36721
  22401118.818    -9708836.206 6  -5192189.10821
  20657699.326     -116219.896 6    -85405.55022
 91  5 13 19 51 59.9980000  0  6G18G 2G11G16G 6G19
  22287456.6934    9481819.82446   7379531.77161
  20872399.5764  -15893508.48347 -12342719.41863
  22626720.029    -7765196.029 6  -5988332.22621
  22955278.279    -6131830.187 5  -4632821.76821
  22393905.7564   -9746749.54146  -5221731.94461
  20659059.482     -109098.106 6    -79856.12222
 91  5 13 19 52 14.9980000  0  6G18G 2G11G16G 6G19
  22295202.5684    9522533.10946   7411256.31361
  20866035.772   -15926948.721 7 -12368776.73423
  22626994.201    -7763759.574 6  -5987212.92421
  22955079.201    -6132864.615 5  -4633627.86021
  22386698.123    -9784644.563 6  -5251260.51621
  20660420.959     -101919.139 6    -74262.15122
 91  5 13 19 52 29.9980000  0  6G18G 2G11G16G 6G19
  22302968.5064    9563314.52746   7443033.95061
  20859687.3114  -15960299.09047 -12394764.02263
  22627297.623    -7762164.587 6  -5985970.09721
  22954912.2484   -6133764.48445  -4634329.16261
  22379489.772    -9822517.735 6  -5280772.06121
  20661798.764      -94679.368 6    -68620.79322
 91  5 13 19 52 44.9980000  0  6G18G 2G11G16G 6G19
  22310740.201     9604164.133 6   7474864.72221
  20853358.365   -15993559.261 7 -12420681.02523
  22627632.061    -7760411.028 6  -5984603.71021
  22954764.498    -6134529.697 5  -4634925.42621
  22372289.631    -9860368.900 6  -5310266.46521
  20663187.717      -87378.858 6    -62932.10922
 91  5 13 19 52 59.9980000  0  6G18G 2G11G16G 6G19
  22318522.5764    9645078.79146   7506746.17661
  20847045.342   -16026732.004 7 -12446529.90523
  22627995.4984   -7758501.53646  -5983115.83361
  22954645.131    -6135163.100 5  -4635419.05321
  22365091.912    -9898200.789 6  -5339745.83321
  20664591.287      -80020.134 6    -57198.06722
 91  5 13 19 53 14.9980000  0  6G18G 2G11G16G 6G19
  22326321.1154    9686060.00946   7538679.49461
  20840750.897   -16059815.624 7 -12472309.33323
  22628389.482    -7756434.638 6  -5981505.28021
  22954545.100    -6135663.237 5  -4635808.81721
  22357890.9364   -9936011.65746  -5369208.80361
  20665999.756      -72601.424 6    -51417.27522
 91  5 13 19 53 29.9980000  0  6G18G 2G11G16G 6G19
  22334133.4594    9727104.49846   7570662.12661
  20834470.5924  -16092812.92347 -12498021.50663
  22628810.8114   -7754213.43146  -5979774.49961
  22954480.772    -6136032.762 5  -4636096.86321
  22350697.7794   -9973804.40446  -5398657.68361
  20667422.9044     -65125.47746    -45591.89162
 91  5 13 19 53 44.9980000  0  6G18G 2G11G16G 6G19
  22341955.1624    9768215.03546   7602696.20661
  20828212.3504  -16125721.18047 -12523664.29463
  22629262.350    -7751835.005 6  -5977921.20521
  22954438.1474   -6136269.29845  -4636281.20561
  22343513.318   -10011576.154 6  -5428090.20921
  20668855.912      -57589.535 6    -39719.75822
 91  5 13 19 53 59.9980000  0  6G18G 2G11G16G 6G19
  22349791.795     9809393.773 6   7634783.44421
  20821964.9904  -16158537.96347 -12549235.80163
  22629748.467    -7749296.909 6  -5975943.49221
  22954414.592    -6136370.704 5
  22336329.584   -10049324.574 6  -5457504.54521
  20670306.1004     -49991.13646    -33798.95162
 91  5 13 19 54 14.9980000  0  6G18G 2G11G16G 6G19
  22357638.6784    9850634.72446   7666919.14861
  20815735.295   -16191268.908 7 -12574740.42223
  22630258.9364   -7746605.08946  -5973845.99261
  22954422.686    -6136342.867 5
  22329150.748   -10087055.401 6  -5486905.15121
  20671757.397      -42336.045 6    -27833.96722
 91  5 13 19 54 29.9980000  0  6G18G 2G11G16G 6G19
  22365500.951     9891940.851 6   7699105.63421
  20809523.9204  -16223910.59247 -12600175.48863
  22630801.326    -7743756.184 6  -5971626.09321
  22954451.061    -6136182.575 5
  22321975.295   -10124765.304 6  -5516289.46921
  20673232.053      -34620.687 6    -21822.02422
 91  5 13 19 54 44.9980000  0  6G18G 2G11G16G 6G19
  22373374.670     9933307.897 6   7731339.60221
  20803328.732   -16256467.138 7 -12625544.21223
  22631372.373    -7740754.496 6  -5969287.13521
  22954505.912    -6135894.222 5
  22314801.318   -10162458.302 6  -5545660.63021
  20674706.4434     -26849.27046    -15766.40662
 91  5 13 19 54 59.9980000  0  6G18G 2G11G16G 6G19
  22381253.6154    9974738.40346   7763623.01461
  20797151.0924  -16288935.91247 -12650844.54763
  22631973.006    -7737597.356 6  -5966827.03921
  22954581.1314   -6135475.27545
  22307630.9434  -10200131.76946  -5575016.56561
  20676200.748      -19019.030 6     -9664.94622
 91  5 13 19 55 14.9980000  0  6G18G 2G11G16G 6G19
  22389152.0374   10016233.43346   7795956.70861
  20790989.5924  -16321315.54047 -12676075.41263
  22632603.0144   -7734283.37646  -5964244.74661
  22954689.943    -6134924.189 5        -0.36331
  22300467.3344  -10237784.39546  -5604356.23661
  20677697.5224     -11128.50046     -3516.51062
 91  5 13 19 55 29.9980000  0  6G18G 2G11G16G 6G19
  22397060.053    10057788.921 6   7828337.49921
  20784844.545   -16353609.561 7 -12701239.57623
  22633262.607    -7730816.164 6  -5961543.02921
  22954820.545    -6134244.787 5       528.99721
  22293307.717   -10275419.618 6  -5633682.36021
  20679213.764       -3181.254 6      2676.12122
 91  5 13 19 55 44.9980000  0  6G18G 2G11G16G 6G19
  22404981.545    10099404.721 6   7860765.29521
  20778712.740   -16385817.888 7 -12726336.95823
  22633952.318    -7727195.957 6  -5958722.11621
  22954977.576    -6133437.441 5      1158.04921
  22286142.897   -10313037.474 6  -5662994.95521
  20680732.592        4822.833 7      8913.05122
 91  5 13 19 55 59.9980000  0  6G18G 2G11G16G 6G19
  22412912.842    10141082.431 6   7893241.32921
  20772602.826   -16417938.829 7 -12751366.25023
  22634672.8344   -7723421.07146  -5955780.65761
  22955154.123    -6132500.618 5      1887.97121
  22278992.9124  -10350636.28946  -5692292.71461
  20682268.522       12885.546 6     15195.65422
 91  5 13 19 56 14.9980000  0  6G18G 2G11G16G 6G19
  22420855.943    10182820.568 6   7925764.45221
  20766507.4824  -16449973.51647 -12776328.33163
  22635417.850    -7719492.627 6  -5952719.55721
  22955352.920    -6131435.651 5      2717.76121
  22271839.350   -10388217.067 6  -5721576.41921
  20683813.5224      21005.78146     21523.08462
 91  5 13 19 56 29.9980000  0  6G18G 2G11G16G 6G19
  22428805.2484   10224620.52646   7958335.74561
  20760427.1544  -16481920.18947 -12801221.83363
  22636196.365    -7715409.076 6  -5949537.58421
  22955580.209    -6130240.889 5      3648.67021
  22264694.482   -10425778.073 6  -5750844.70921
  20685371.123       29185.132 6     27896.58122
 91  5 13 19 56 44.9980000  0  6G18G 2G11G16G 6G19
  22436774.514    10266482.944 6   7990955.70321
  20754364.475   -16513778.184 7 -12826046.23523
  22637004.490    -7711169.795 6  -5946234.25921
  22955832.3574   -6128915.93845      4681.04461
  22257552.1624  -10463318.69946  -5780097.11561
  20686935.8654      37424.51846     34316.85462
 91  5 13 19 56 59.9980000  0  6G18G 2G11G16G 6G19
  22444754.647    10308405.552 6   8023622.56721
  20748319.139   -16545549.432 7 -12850803.04023
  22637838.154    -7706776.771 6  -5942811.14621
  22956108.1004   -6127462.78645      5813.33761
  22250408.4124  -10500840.83746  -5809335.11961
  20688516.522       45721.996 6     40782.39622
 91  5 13 19 57 14.9980000  0  6G18G 2G11G16G 6G19
  22452742.107    10350389.103 6   8056336.91421
  20742290.5224  -16577232.84847 -12875491.41063
  22638704.2724   -7702228.93246  -5939267.38961
  22956413.5684   -6125880.44545      7046.24061
  22243271.6004  -10538343.31646  -5838557.81861
  20690105.4824      54078.96446     47294.29062
 91  5 13 19 57 29.9980000  0  6G18G 2G11G16G 6G19
  22460743.084    10392433.429 6   8089098.61521
  20736276.998   -16608828.478 7 -12900111.36723
  22639597.1074   -7697526.58546  -5935603.23261
  22956740.623    -6124169.395 5      8379.49021
  22236137.9284  -10575826.39246  -5867765.38561
  20691709.561       62495.227 6     53852.39022
 91  5 13 19 57 44.9980000  0  6G18G 2G11G16G 6G19
  22468756.248    10434539.452 6   8121908.39921
  20730281.4754  -16640335.45147 -12924662.24663
  22640523.537    -7692668.829 6  -5931817.98421
  22957085.607    -6122328.561 5      9813.84121
  22229009.1074  -10613288.85146  -5896956.89061
  20693321.998       70971.853 6     60457.52822
 91  5 13 19 57 59.9980000  0  6G18G 2G11G16G 6G19
  22476777.6544   10476705.70946   8154765.12261
  20724303.537   -16671754.537 7 -12949144.63923
  22641478.2484   -7687656.67846  -5927912.41761
  22957464.2564   -6120359.20445     11348.34461
  22221886.451   -10650731.714 6  -5926133.12221
  20694944.834       79507.881 6     67108.95522
 91  5 13 19 58 14.9980000  0  6G18G 2G11G16G 6G19
  22484817.5764   10518928.35246   8187665.76661
  20718339.2404  -16703089.14047 -12973561.20563
  22642459.678    -7682493.724 6  -5923889.36021
  22957860.732    -6118264.972 5     12980.16921
  22214765.5764  -10688158.47346  -5955296.82961
  20696580.217       88099.782 6     73803.91522
 91  5 13 19 58 29.9980000  0  6G18G 2G11G16G 6G19
  22492855.7724   10561208.17446   8220610.98061
  20712392.0374  -16734338.37247 -12997911.24763
  22643469.9204   -7677179.11746  -5919748.13761
  22958279.881    -6116045.096 5     14709.88221
  22207648.295   -10725568.095 6  -5984447.16721
  20698226.4364      96748.60046     80543.22662
 91  5 13 19 58 44.9980000  0  6G18G 2G11G16G 6G19
  22500917.607    10603547.298 6   8253602.38621
  20706463.5844  -16765499.67047 -13022192.76963
  22644511.248    -7671710.472 6  -5915486.87021
  22958729.8264   -6113697.44645     16539.14961
  22200530.8574  -10762958.19846  -6013582.27861
  20699883.631      105456.820 6     87328.82722
 91  5 13 19 58 59.9980000  0  6G18G 2G11G16G 6G19
  22508985.326    10645946.201 6   8286640.38921
  20700551.2094  -16796572.73747 -13046405.54063
  22645580.514    -7666087.434 6  -5911105.30221
  22959200.506    -6111221.322 5     18468.53921
  22193419.600   -10800328.296 6  -6042701.81221
  20701553.0454     114225.00246     94161.15462
 91  5 13 19 59 14.9980000  0  6G18G 2G11G16G 6G19
  22517064.670    10688403.167 6   8319723.61921
  20694654.0224  -16827558.75847 -13070550.48163
  22646679.522    -7660311.385 6  -5906604.50321
  22959696.5684   -6108618.83645     20496.42761
  22186312.162   -10837679.659 6  -6071806.75821
  20703232.842      123051.962 6    101039.28022
 91  5 13 19 59 29.9980000  0  6G18G 2G11G16G 6G19
  22525157.3974   10730917.37246   8352851.45061
  20688772.7324  -16858458.26847 -13094628.01763
  22647808.1074   -7654382.87946  -5901984.89661
  22960216.404    -6105890.445 5     22622.32821
  22179204.686   -10875012.735 6  -6100897.44521
  20704923.4904     131937.18746    107962.80762
 91  5 13 19 59 44.9980000  0  6G18G 2G11G16G 6G19
  22533251.147    10773490.834 6   8386025.47621
  20682911.4364  -16889269.15347 -13118636.49063
  22648964.818    -7648299.930 6  -5897244.95521
  22960760.506    -6103034.203 5     24847.94621
  22172101.8184  -10912325.34246  -6129972.17461
  20706624.3894     140882.96446    114933.51662
 91  5 13 19 59 59.9980000  0  6G18G 2G11G16G 6G19
  22541370.2874   10816121.42846   8419243.99761
  20677064.6704  -16919993.10147 -13142577.22263
  22650152.9434   -7642064.49046  -5892386.18661
  22961324.1864   -6100052.11945     27171.60861
  22165009.9904  -10949619.31446  -6159032.39661
  20708339.154      149887.473 6    121949.99422
 91  5 13 20  0 14.9980000  0  6G18G 2G11G16G 6G19
  22549491.3184   10858809.42046   8452507.25561
  20671233.3894  -16950629.39247 -13166449.64963
  22651367.943    -7635675.794 6  -5887407.99021
  22961917.4044   -6096943.43945     29593.87061
  22157916.990   -10986893.896 6  -6188077.50921
  20710062.568      158951.683 6    129012.99222
 91  5 13 20  0 29.9980000  0  6G18G 2G11G16G 6G19
  22557625.4124   10901554.35446   8485814.87261
  20665422.8974  -16981178.52547 -13190254.16363
  22652611.342    -7629134.479 6  -5882310.89121
  22962537.951    -6093709.174 5     32114.04221
  22150823.818   -11024149.553 6  -6217107.86521
  20711801.4594     168075.03446    136122.06962
 91  5 13 20  0 44.9980000  0  6G18G 2G11G16G 6G19
  22565774.1474   10944359.32246   8519169.27161
  20659625.6864  -17011637.09847 -13213988.11163
  22653888.951    -7622437.339 6  -5877092.35421
  22963174.7564   -6090345.92245     34734.69761
  22143743.467   -11061382.865 6  -6246120.82421
  20713547.545      177260.941 6    143279.90222
 91  5 13 20  0 59.9980000  0  6G18G 2G11G16G 6G19
  22573925.943    10987219.419 6   8552566.63521
  20653845.9434  -17042009.78647 -13237655.14063
  22655190.756    -7615589.124 6  -5871756.10221
  22963838.420    -6086858.743 5     37451.89221
  22136657.4204  -11098598.51146  -6275120.00661
  20715307.615      186504.774 6    150482.86322
 91  5 13 20  1 14.9980000  0  6G18G 2G11G16G 6G19
  22582095.0064   11030134.39846   8586006.75561
  20648080.8814  -17072296.37847 -13261255.06763
  22656525.022    -7608589.851 6  -5866302.14221
  22964520.639    -6083247.617 5     40265.70821
  22129582.123   -11135796.361 6  -6304105.32221
  20717075.670      195806.586 6    157731.00722
 91  5 13 20  1 29.9980000  0  6G18G 2G11G16G 6G19
  22590269.8344   11073103.61146   8619489.13861
  20642336.8344  -17102497.44747 -13284788.36463
  22657884.4364   -7601440.01546  -5860730.85061
  22965231.764    -6079513.154 5     43175.63921
  22122506.740   -11172976.726 6  -6333077.02221
  20718860.170      205166.163 6    165024.15822
 91  5 13 20  1 44.9980000  0  6G18G 2G11G16G 6G19
  22598457.5064   11116129.98246   8653016.06761
  20636603.2484  -17132609.89847 -13308252.60063
  22659274.5224   -7594136.57446  -5855039.87161
  22965975.3424   -6075652.25746     46184.04661
  22115436.272   -11210136.523 6  -6362032.69321
  20720649.943      214586.653 6    172364.78122
 91  5 13 20  1 59.9980000  0  6G18G 2G11G16G 6G19
  22606656.6544   11159211.56946   8686586.01161
  20630891.0764  -17162635.23747 -13331648.96463
  22660692.178    -7586681.451 6  -5849230.69921
  22966730.3034   -6071666.84645     49289.50661
  22108364.2324  -11247277.43446  -6390973.61861
  20722455.217      224066.438 6    179751.60022
 91  5 13 20  2 14.9980000  0  6G18G 2G11G16G 6G19
  22614868.0764   11202348.29146   8720198.91961
  20625195.3974  -17192573.36547 -13354977.36963
  22662138.373    -7579074.537 6  -5843303.25021
  22967511.7564   -6067556.87945     52492.01161
  22101305.092   -11284399.166 6  -6419899.62621
  20724270.600      233605.831 6    187184.86922
 91  5 13 20  2 29.9980000  0  6G18G 2G11G16G 6G19
  22623082.8974   11245546.73546   8753859.91761
  20619514.8184  -17222417.36247 -13378232.42663
  22663616.7954   -7571309.03446  -5837252.21461
  22968318.9514   -6063315.80345     55796.66561
  22094244.357   -11321494.882 6  -6448805.35321
  20726098.772      243211.829 6    194670.03622
 91  5 13 20  2 44.9980000  0  6G18G 2G11G16G 6G19
  22631318.7174   11288801.53846   8787564.84061
  20613852.1784  -17252172.46747 -13401418.22163
  22665124.811    -7563390.364 6  -5831081.83821
  22969153.397    -6058949.135 5     59199.20621
  22087186.107   -11358569.757 6  -6477694.84621
  20727935.857      252878.983 6    202202.86022
 91  5 13 20  2 59.9980000  0  6G18G 2G11G16G 6G19
  22639559.5844   11332111.02746   8821312.36861
  20608208.4364  -17281840.01047 -13424535.78263
  22666662.162    -7555320.013 6  -5824793.27721
  22970007.6704   -6054458.54745     62698.31261
  22080133.2954  -11395625.11546  -6506569.12361
  20729789.686      262606.212 6    209782.49122
 91  5 13 20  3 14.9980000  0  6G18G 2G11G16G 6G19
  22647812.2484   11375478.72146   8855105.24561
  20602577.8654  -17311416.32347 -13447582.25563
  22668226.9124   -7547094.17546  -5818383.54261
  22970883.490    -6049840.304 5     66296.86721
  22073088.662   -11432657.163 6  -6535425.24721
  20731651.123      272397.328 6    217411.91022
 91  5 13 20  3 29.9980000  0  6G18G 2G11G16G 6G19
  22656074.709    11418901.533 6   8888941.07621
  20596967.8894  -17340904.04547 -13470559.69463
  22669820.514    -7538715.670 6  -5811854.85221
  22971785.943    -6045097.299 5     69992.63821
  22066046.1004  -11469668.65046  -6564265.33661
  20733526.607      282249.662 6    225089.03322
 91  5 13 20  3 44.9980000  0  6G18G 2G11G16G 6G19
  22664345.4754   11462375.58746   8922816.83961
  20591372.7564  -17370306.92447 -13493471.02263
  22671442.0614   -7530188.45846  -5805210.27061
  22972711.2404   -6040233.58145     73782.48861
  22059008.076   -11506663.230 6  -6593092.26821
  20735411.842      292159.370 6    232810.85922
 91  5 13 20  3 59.9980000  0  6G18G 2G11G16G 6G19
  22672632.482    11505904.604 6   8956735.43621
  20585792.6934  -17399620.74247 -13516312.95163
  22673092.318    -7521508.590 6  -5798446.75721
  22973660.6154   -6035245.29345     77669.43661
  22051971.0064  -11543636.76746  -6621902.79861
  20737310.732      302130.775 6    240580.75722
 91  5 13 20  4 14.9980000  0  6G18G 2G11G16G 6G19
  22680924.2644   11549489.72946   8990697.74461
  20580233.1074  -17428844.32747 -13539084.57363
  22674773.4674   -7512674.89746  -5791563.36661
  22974635.381    -6030131.174 5     81654.36421
  22044940.740   -11580588.023 6  -6650695.95321
  20739220.006      312165.315 6    248399.86222
 91  5 13 20  4 29.9980000  0  6G18G 2G11G16G 6G19
  22689231.365    11593130.729 6   9024703.58121
  20574689.2874  -17457977.92447 -13561786.07163
  22676487.0064   -7503687.57646  -5784560.27161
  22975629.8574   -6024891.77145     85736.94561
  22037911.686   -11617516.948 6  -6679471.72321
  20741143.943      322262.688 6    256267.92322
 91  5 13 20  4 44.9980000  0  6G18G 2G11G16G 6G19
  22697545.318    11636827.663 6   9058753.01021
  20569161.4204  -17487020.96947 -13584417.01263
  22678225.4204   -7494546.43846  -5777437.32061
  22976650.9754   -6019526.98545     89917.21661
  22030885.592   -11654423.241 6  -6708229.85221
  20743073.857      332423.451 6    264185.38022
 91  5 13 20  4 59.9980000  0  6G18G 2G11G16G 6G19
  22705869.443    11680581.052 6   9092846.43221
  20563653.7254  -17515972.45847 -13606976.60963
  22679992.686    -7485250.489 6  -5770193.73921
  22977693.5224   -6014035.76245     94196.04261
  22023867.7254  -11691305.70246  -6736969.41761
  20745020.8114     342648.80646    272153.16262
 91  5 13 20  5 14.9980000  0  6G18G 2G11G16G 6G19
  22714206.8184   11724387.71846   9126981.37161
  20558160.5064  -17544835.65947 -13629467.41163
  22681792.389    -7475803.141 6  -5762832.18821
  22978763.506    -6008421.502 5     98570.72321
  22016853.686   -11728167.638 6  -6765692.98421
  20746978.529      352935.400 6    280168.67022
 91  5 13 20  5 29.9980000  0  6G18G 2G11G16G 6G19
  22722552.5684   11768249.33446   9161159.12561
  20552683.8184  -17573608.37947 -13651887.71063
  22683620.4904   -7466202.48846  -5755351.17361
  22979858.428    -6002682.248 5    103042.77321
  22009847.7874  -11765006.90546  -6794398.87061
  20748951.881      363285.300 6    288233.50122
 91  5 13 20  5 44.9980000  0  6G18G 2G11G16G 6G19
  22730910.225    11812165.230 5   9195379.17821
  20547227.9754  -17602290.94047 -13674237.75063
  22685474.5684   -7456448.88846  -5747750.97561
  22980975.9754   -5996818.54745    107611.83361
  22002842.522   -11801823.696 6  -6823087.26921
  20750927.178      373698.475 6    296347.63922
 91  5 13 20  5 59.9980000  0  6G18G 2G11G16G 6G19
  22739277.779    11856137.252 5   9229642.95921
  20541786.5614  -17630881.65247 -13696516.22163
  22687360.889    -7446540.594 6  -5740030.23021
  22982111.3974   -5990828.99045    112278.93261
  21995838.311   -11838616.244 6  -6851756.76821
  20752924.592      384176.881 6    304512.61022
 91  5 13 20  6 14.9980000  0  6G18G 2G11G16G 6G19
  22747655.6704   11900161.40445   9263947.37761
  20536364.1074  -17659384.01847 -13718725.85663
  22689272.7644   -7436481.43546  -5732191.94861
  22983275.186    -5984717.598 5    117041.00221
  21988840.4364  -11875388.13746  -6880410.15561
  20754929.592      394716.720 6    312725.44522
 91  5 13 20  6 29.9980000  0  6G18G 2G11G16G 6G19
  22756043.795    11944236.986 6   9298291.85121
  20530955.1154  -17687798.49847 -13740867.00363
  22691218.881    -7426272.124 6  -5724236.64421
  22984463.7014   -5978484.99545    121897.52761
  21981848.678   -11912139.834 6  -6909047.82321
  20756950.248      405317.611 6    320985.85822
 91  5 13 20  6 44.9980000  0  6G18G 2G11G16G 6G19
  22764441.5684   11988366.42046   9332678.29261
  20525567.1624  -17716122.28047 -13762937.48163
  22693189.490    -7415909.979 6  -5716162.26521
  22985671.936    -5972128.415 5    126850.59321
  21974859.4044  -11948868.43446  -6937667.50661
  20758975.006      415982.606 6    329296.22222
 91  5 13 20  6 59.9980000  0  6G18G 2G11G16G 6G19
  22772847.0294   12032550.92845   9367107.64361
  20520192.1864  -17744353.90947 -13784936.14563
  22695189.3114   -7405393.30046  -5707967.46361
  22986900.4124   -5965646.23345    131901.59461
  21967873.7874  -11985572.29246  -6966267.88061
  20761019.982      426713.391 6    337657.85422
 91  5 13 20  7 14.9980000  0  6G18G 2G11G16G 6G19
  22781266.420    12076786.942 5   9401577.13021
  20514838.5764  -17772496.86047 -13806865.71563
  22697219.4364   -7394725.81846
  22988162.397    -5959042.640 5    137047.20221
  21960890.9514  -12022254.96046  -6994851.75061
  20763071.045      437506.446 6
 91  5 13 20  7 29.9980000  0  6G18G 2G11G16G 6G19
  22789696.9674   12121070.96446   9436084.01961
  20509498.1624  -17800554.50447 -13828728.80763
  22699277.732    -7383911.125 6
  22989441.428    -5952321.105 5    142284.68921
  21953909.818   -12058919.625 6  -7023421.60621
  20765138.764      448358.365 6
 91  5 13 20  7 44.9980000  0  6G18G 2G11G16G 6G19
  22798131.873    12165403.325 5   9470628.58221
  20504176.7254  -17828525.90447 -13850524.70263
  22701364.615    -7372948.615 6
  22990740.998    -5945480.711 5    147614.75721
  21946945.3654  -12095565.61646  -7051976.90461
  20767212.686      459269.872 6
 91  5 13 20  7 59.9980000  0  6G18G 2G11G16G 6G19
  22806574.5454   12209787.24645   9505213.33261
  20498870.2724  -17856407.88747 -13872250.91763
  22703480.607    -7361835.068 6  -5674026.03221
  22992063.772    -5938518.889 5    153039.49421
  21939972.178   -12132189.574 6  -7080515.02321
  20769302.217      470244.533 6    371578.12522
 91  5 13 20  8 14.9980000  0  6G18G 2G11G16G 6G19
  22815030.6784   12254224.31545   9539839.50361
  20493584.1154  -17884198.35047 -13893905.82363
  22705623.4044   -7350568.60246  -5665246.99061
  22993415.0224   -5931433.66645    158560.40761
  21933003.475   -12168789.363 6  -7109034.31521
  20771400.811      481284.331 6    380180.54522
 91  5 13 20  8 29.9980000  0  6G18G 2G11G16G 6G19
  22823497.162    12298712.436 5   9574505.42721
  20488309.7174  -17911899.35947 -13915491.02063
  22707795.5224   -7339151.42946  -5656350.49561
  22994788.537    -5924227.062 5    164175.80921
  21926047.506   -12205366.900 6  -7137536.27221
  20773514.389      492387.433 6    388832.28922
 91  5 13 20  8 44.9980000  0  6G18G 2G11G16G 6G19
  22831970.7174   12343251.13345   9609210.76761
  20483055.7404  -17939511.07447 -13937006.63763
  22709997.889    -7327583.843 6  -5647336.81221
  22996186.3734   -5916899.42645    169885.59561
  21919093.412   -12241922.337 6  -7166021.00321
  20775639.811      503553.729 6    397533.28522
 91  5 13 20  8 59.9980000  0  6G18G 2G11G16G 6G19
  22840461.115    12387841.673 5   9643956.50321
  20477819.0844  -17967032.10247 -13958451.58763
  22712224.248    -7315864.495 6  -5638204.86221
  22997598.2014   -5909449.76445    175690.48861
  21912139.506   -12278454.089 6  -7194487.27221
  20777777.357      514784.657 6    406284.63322
 91  5 13 20  9 14.9980000  0  6G18G 2G11G16G 6G19
  22848957.678    12432486.592 5   9678744.61421
  20472600.2954  -17994459.36347 -13979823.47563
  22714487.092    -7303990.580 6  -5628952.47521
  22999041.8184   -5901875.35145    181592.49361
  21905191.8114  -12314959.32946  -7222932.88661
  20779925.756      526083.295 6    415088.74422
 91  5 13 20  9 29.9980000  0  6G18G 2G11G16G 6G19
  22857459.4984   12477182.32345   9713572.32261
  20467398.1394  -18021796.21347 -14001124.91563
  22716774.803    -7291965.686 6  -5619582.45221
  23000510.311    -5894179.926 5    187588.87321
  21898251.342   -12351441.226 6  -7251360.31921
  20782089.264      537446.427 6    423943.11622
 91  5 13 20  9 44.9980000  0  6G18G 2G11G16G 6G19
  22865978.1234   12521928.74645   9748439.53361
  20462213.7564  -18049042.84847 -14022356.05163
  22719090.9044   -7279789.92946  -5610094.85161
  23001994.506    -5886363.501 5    193679.55421
  21891307.0844  -12387900.00946  -7279769.73561
  20784264.100      548873.900 6    432847.61722
 91  5 13 20  9 59.9980000  0  6G18G 2G11G16G 6G19
  22874504.4514   12566725.84245   9783346.21461
  20457045.8974  -18076198.77447 -14043516.50563
  22721438.670    -7267463.149 6  -5600489.59421
  23003505.467    -5878426.113 5    199864.41321
  21884378.990   -12424335.047 6  -7308160.64721
  20786451.607      560366.201 6    441802.63122
 91  5 13 20 10 14.9980000  0  6G18G 2G11G16G 6G19
  22883036.943    12611574.531 5   9818293.10021
  20451895.1314  -18103263.07247 -14064605.56363
  22723813.5294   -7254984.43546  -5590765.92161
  23005039.3344   -5870366.94945    206144.22961
  21877449.3504  -12460745.15946  -7336532.13461
  20788649.826      571924.483 6    450809.06522
 91  5 13 20 10 29.9980000  0  6G18G 2G11G16G 6G19
  22891581.647    12656476.645 5   9853281.62821
  20446762.8264  -18130233.35747 -14085621.36163
  22726215.334    -7242351.412 6  -5580922.01921
  23006592.592    -5862183.445 5    212520.87121
  21870527.826   -12497128.130 6  -7364882.47221
  20790862.897      583551.202 6    459868.82522
 91  5 13 20 10 44.9970000  0  6G18G 2G11G16G 6G19
  22900133.118    12701427.047 5   9888307.78221
  20441649.0244  -18157109.83247 -14106564.06763
  22728648.8454   -7229567.35946  -5570960.42761
  23008173.8374   -5853878.83845    218991.91961
  21863610.329   -12533483.512 6  -7393211.31421
  20793088.735      595243.542 6    468979.72022
 91  5 13 20 10 59.9970000  0  6G18G 2G11G16G 6G19
  22908698.6264   12746431.16645   9923375.77161
  20436550.3064  -18183896.41047 -14127436.71763
  22731110.298    -7216631.069 6  -5560880.21221
  23009778.8924   -5845452.45445    225557.91361
  21856693.704   -12569816.298 6  -7421522.54721
  20795324.399      607002.839 6    478142.78522
 91  5 13 20 11 14.9970000  0  6G18G 2G11G16G 6G19
  22917270.5644   12791483.60345   9958481.42861
  20431470.4394  -18210593.24147 -14148239.44063
  22733602.103    -7203545.474 6  -5550683.66421
  23011404.470    -5836907.115 5    232216.50221
  21849786.1034  -12606126.20546  -7449815.95961
  20797574.314      618826.298 6    487355.84622
 91  5 13 20 11 29.9970000  0  6G18G 2G11G16G 6G19
  22925854.3454   12836589.01345   9993628.37361
  20426408.4854  -18237195.74047 -14168968.65463
  22736120.931    -7190306.071 6  -5540367.25721
  23013055.8144   -5828238.32945    238971.28161
  21842880.087   -12642408.406 6  -7478087.77421
  20799837.087      630718.572 6    496622.52922
 91  5 13 20 11 44.9970000  0  6G18G 2G11G16G 6G19
  22934445.212    12881746.905 5  10028816.19621
  20421364.7514  -18263704.03847 -14189624.47263
  22738668.5484   -7176913.11546  -5529931.19461
  23014730.5014   -5819446.57745    245821.94761
  21835981.0324  -12678663.08546  -7506338.14261
  20802112.923      642679.778 6    505942.92422
 91  5 13 20 11 59.9970000  0  6G18G 2G11G16G 6G19
  22943048.6574   12926951.48645  10064040.40761
  20416336.7434  -18290123.66447 -14210211.19263
  22741246.6344   -7163372.47046  -5519380.05361
  23016419.2594   -5810537.52445    252763.99261
  21829087.306   -12714895.608 6  -7534571.25521
  20804402.712      654704.419 6    515312.74922
 91  5 13 20 12 14.9970000  0  6G18G 2G11G16G 6G19
  22951661.743    12972208.348 5  10099305.36121
  20411328.4544  -18316448.64647 -14230724.15663
  22743850.579    -7149678.207 6  -5508709.21321
  23018140.439    -5801505.357 5    259801.96121
  21822192.8684  -12751099.81646  -7562782.29861
  20806703.189      666798.492 6    524736.68122
 91  5 13 20 12 29.9970000  0  6G18G 2G11G16G 6G19
  22960281.837    13017513.239 5  10134607.70421
  20406335.3684  -18342683.17947 -14251166.64863
  22746485.860    -7135834.701 6  -5497922.07821
  23019884.5794   -5792354.84445    266932.14861
  21815310.3214  -12787280.09646  -7590974.69061
  20809018.4074     678957.85646    534211.48262
 91  5 13 20 12 44.9970000  0  6G18G 2G11G16G 6G19
  22968913.4854   13062867.97145  10169948.90561
  20401362.9154  -18368825.25047 -14271537.08663
  22749146.501    -7121840.127 6  -5487017.23021
  23021645.642    -5783084.167 5    274155.97921
  21808432.642   -12823434.248 6  -7619146.73121
  20811344.681      691184.533 6    543738.74122
 91  5 13 20 12 59.9970000  0  6G18G 2G11G16G 6G19
  22977554.1814   13108268.69645  10205325.98261
  20396401.8924  -18394878.39047 -14291838.23063
  22751840.860    -7107698.120 6  -5475997.50921
  23023435.501    -5773696.810 5    281470.69221
  21801557.9544  -12859565.82946  -7647301.18661
  20813686.853      703475.132 6    553315.81222
 91  5 13 20 13 14.9970000  0  6G18G 2G11G16G 6G19
  22986202.243    13153718.547 5  10240741.28721
  20391463.0094  -18420839.12347 -14312067.37063
  22754560.579    -7093405.340 6  -5464860.28921
  23025243.0324   -5764189.53145    288878.89961
  21794687.5404  -12895671.25346  -7675435.24261
  20816037.009      715833.047 6    562945.33122
 91  5 13 20 13 29.9970000  0  6G18G 2G11G16G 6G19
  22994864.157    13199217.858 6  10276195.14721
  20386539.5874  -18446707.04447 -14332224.18663
  22757308.728    -7078961.392 6  -5453605.28221
  23027075.1264   -5754562.11945    296380.70461
  21787821.212   -12931749.901 6  -7703548.44821
  20818399.7044     728259.02046    572627.87762
 91  5 13 20 13 44.9970000  0  6G18G 2G11G16G 6G19
  23003531.384    13244763.376 5  10311685.02621
  20381636.3764  -18472485.13947 -14352311.00863
  22760086.5794   -7064369.66446  -5442235.12161
  23028927.3994   -5744818.17345    303973.25561
  21780962.0404  -12967804.78446  -7731643.13961
  20820778.196      740750.065 6    582361.13322
 91  5 13 20 13 59.9970000  0  6G18G 2G11G16G 6G19
  23012203.189    13290352.953 5  10347209.22721
  20376745.8534  -18498175.22647 -14372329.25363
  22762890.118    -7049632.075 6  -5430751.30721
  23030809.1184   -5734959.89245    311654.96961
  21774101.9154  -13003837.73846  -7759720.72561
  20823165.814      753304.374 6    592143.68722
 91  5 13 20 14 14.9970000  0  6G18G 2G11G16G 6G19
  23020883.978    13335988.322 5  10382769.11321
  20371874.5794  -18523775.40347 -14392277.43563
  22765723.6344   -7034746.82446  -5419152.42561
  23032703.0094   -5724984.94045    319427.62161
  21767250.1104  -13039846.61246  -7787779.55961
  20825567.376      765924.116 6    601977.23022
 91  5 13 20 14 29.9970000  0  6G18G 2G11G16G 6G19
  23029578.0794   13381664.67045  10418360.91861
  20367020.9544  -18549290.17647 -14412159.07363
  22768581.5324   -7019718.71446  -5407442.23361
  23034621.368    -5714898.150 5    327287.31321
  21760402.7904  -13075836.00346  -7815823.21261
  20827981.3144     778604.71746    611858.18962
 91  5 13 20 14 44.9970000  0  6G18G 2G11G16G 6G19
  23038280.6654   13427385.83045  10453987.66261
  20362181.7434  -18574715.59547 -14431971.08463
  22771468.251    -7004543.917 6  -5395617.73921
  23036565.6264   -5704696.07445    335236.87661
  21753556.3764  -13111801.77146  -7843848.45861
  20830406.517      791350.223 6    621789.73022
 91  5 13 20 14 59.9970000  0  6G18G 2G11G16G 6G19
  23046991.2674   13473150.18245  10489648.04761
  20357359.0484  -18600052.66947 -14451714.25363
  22774384.610    -6989223.493 6  -5383679.75921
  23038526.6814   -5694380.22645    343275.18761
  21746716.4784  -13147744.96746  -7871856.10161
  20832843.829      804159.851 6    631771.23722
 91  5 13 20 15 14.9970000  0  6G18G 2G11G16G 6G19
  23055706.360    13518958.194 5  10525342.44021
  20352554.9704  -18625300.98447 -14471388.25763
  22777327.993    -6973757.520 6  -5371628.38621
  23040512.868    -5683950.420 5    351402.20021
  21739884.1814  -13183665.07846  -7899845.77261
  20835292.689      817033.853 6    641802.90522
 91  5 13 20 15 29.9970000  0  6G18G 2G11G16G 6G19
  23064429.571    13564806.442 5  10561068.20021
  20347767.1574  -18650463.52447 -14490995.42863
  22780299.165    -6958149.017 6  -5359465.94021
  23042518.1574   -5673409.56945    359615.69661
  21733047.860   -13219565.030 6  -7927819.73221
  20837757.626      829969.253 6    651882.41722
 91  5 13 20 15 44.9970000  0  6G18G 2G11G16G 6G19
  23073165.7354   13610694.06545  10596824.64161
  20342996.2434  -18675540.92447 -14510536.25263
  22783292.493    -6942398.758 6  -5347193.04021
  23044548.251    -5662758.659 5    367915.07521
  21726225.196   -13255445.474 6  -7955778.47721
  20840227.423      842965.668 6    662009.47422
 91  5 13 20 15 59.9970000  0  6G18G 2G11G16G 6G19
  23081904.845    13656622.749 5  10632613.09421
  20338238.3374  -18700531.53347 -14530009.44363
  22786319.6894   -6926505.29846  -5334808.54961
  23046595.2204   -5651996.37145    376301.23561
  21719396.7514  -13291304.58246  -7983720.60661
  20842712.274      856024.776 6    672185.38622
 91  5 13 20 16 14.9970000  0  6G18G 2G11G16G 6G19
  23090647.548    13702595.872 5  10668436.17221
  20333501.3924  -18725431.45347 -14549411.97863
  22789372.720    -6910464.866 6  -5322309.53621
  23048662.821    -5641118.702 5    384777.19821
  21712583.3064  -13327138.43646  -8011643.05761
  20845210.618      869150.580 6    682413.26222
 91  5 13 20 16 29.9970000  0  6G18G 2G11G16G 6G19
  23099407.5954   13748607.57845  10704289.27561
  20328778.3844  -18750246.45647 -14568748.33763
  22792450.618    -6894283.368 6  -5309700.59521
  23050756.7354   -5630131.93146    393338.24161
  21705766.3994  -13362952.59046  -8039550.15561
  20847719.728      882337.256 6    692688.57222
 91  5 13 20 16 44.9970000  0  6G18G 2G11G16G 6G19
  23108172.720    13794661.978 5  10740175.65821
  20324073.462   -18774972.274 7 -14588015.19723
  22795559.8214   -6877956.63446  -5296978.49461
  23052868.915    -5619031.770 5    401987.64521
  21698958.9074  -13398742.52946  -8067438.38561
  20850241.298      895589.293 6    703014.81722
 91  5 13 20 16 59.9970000  0  6G18G 2G11G16G 6G19
  23116944.454    13840755.012 5  10776092.14421
  20319385.9074  -18799612.81347 -14607215.60863
  22798693.939    -6861488.912 6  -5284146.51621
  23054999.337    -5607822.285 5    410722.19721
  21692147.8374  -13434512.44246  -8095311.00961
  20852778.493      908902.886 6    713389.02522
 91  5 13 20 17 14.9970000  0  6G18G 2G11G16G 6G19
  23125720.728    13886888.159 5  10812039.90321
  20314710.2984  -18824166.07247 -14626348.01363
  22801851.462    -6844878.341 6  -5271203.24021
  23057155.1814   -5596502.14245    419543.03961
  21685346.8144  -13470260.11546  -8123166.30661
  20855321.798      922280.125 6    723812.82522
 91  5 13 20 17 29.9970000  0  6G18G 2G11G16G 6G19
  23134510.392    13933062.641 5  10848019.86321
  20310055.3454  -18848630.59247 -14645411.27163
  22805043.220    -6828123.634 6  -5258147.65121
  23059330.6344   -5585069.83545    428451.25861
  21678547.087   -13505983.988 6  -8151003.04121
  20857879.399      935722.504 6    734287.38322
 91  5 13 20 17 44.9970000  0  6G18G 2G11G16G 6G19
  23143304.5404   13979277.64145  10884031.39761
  20305417.353   -18873006.830 7 -14664405.72823
  22808258.259    -6811225.470 6  -5244980.27021
  23061524.4934   -5573526.37445    437446.01461
  21671752.9624  -13541684.56346  -8178821.63661
  20860450.001      949229.601 6    744812.38022
 91  5 13 20 17 59.9970000  0  6G18G 2G11G16G 6G19
  23152107.0324   14025527.14245  10920069.82361
  20300793.978   -18897300.587 7 -14683335.91323
  22811496.7044   -6794189.92946  -5231705.84861
  23063739.6264   -5561877.87945    446522.64061
  21664966.3374  -13577367.37246  -8206626.38561
  20863035.6814     962795.49946    755383.20062
 91  5 13 20 18 14.9970000  0  6G18G 2G11G16G 6G19
  23160911.7354   14071815.40445  10956138.45461
  20296189.3844  -18921507.82747 -14702198.69363
  22814765.907    -6777013.013 6  -5218321.26121
  23065979.8214   -5550120.31445    455684.40461
  21658179.720   -13613028.566 6  -8234414.28921
  20865623.876      976424.582 6    766003.24722
 91  5 13 20 18 29.9970000  0  6G18G 2G11G16G 6G19
  23169727.845    14118138.221 5  10992233.95921
  20291597.4394  -18945632.16047 -14720996.86963
  22818061.1424   -6759698.47546  -5204829.43561
  23068239.079    -5538257.258 5    464928.26121
  21651391.7904  -13648671.28746  -8262187.80361
  20868229.681      990113.432 6    776669.85422
 91  5 13 20 18 44.9970000  0  6G18G 2G11G16G 6G19
  23178545.821    14164501.578 5  11028361.08321
  20287024.8604  -18969667.41147 -14739725.62363
  22821385.189    -6742240.414 6  -5191225.77121
  23070522.5954   -5526282.87945    474258.79861
  21644618.2124  -13684289.66646  -8289942.35461
  20870846.814     1003868.025 6    787387.69722
 91  5 13 20 18 59.9970000  0  6G18G 2G11G16G 6G19
  23187382.7434   14210900.43145  11064515.89161
  20282466.9234  -18993618.40347 -14758388.72363
  22824732.4854   -6724643.68246  -5177514.06261
  23072810.0174   -5514202.37544    483672.06661
  21637842.4154  -13719888.05646  -8317681.32361
  20873479.118     1017683.801 6    798153.22722
 91  5 13 20 19 14.9970000  0  6G18G 2G11G16G 6G19
  23196216.071    14257336.645 5  11100699.83021
  20277923.8374  -19017483.16147 -14776984.63063
  22828106.5174   -6706906.59146  -5163692.98061
  23075131.6734   -5502014.10845    493169.33761
  21631072.2354  -13755464.57046  -8345403.24461
  20876118.376     1031562.808 6    808968.01522
 91  5 13 20 19 29.9970000  0  6G18G 2G11G16G 6G19
  23205063.2984   14303811.02545  11136913.44161
  20273400.2824  -19041260.51547 -14795512.43063
  22831509.157    -6689028.175 6  -5149761.76821
  23077474.157    -5489717.061 5    502751.42921
  21624309.2514  -13791017.97046  -8373107.16361
  20878774.048     1045506.231 6    819832.99822
 91  5 13 20 19 44.9970000  0  6G18G 2G11G16G 6G19
  23213913.415    14350318.805 5  11173153.09921
  20268891.314   -19064955.002 7 -14813975.65623
  22834938.8684   -6671013.29746  -5135724.21061
  23079831.3064   -5477316.48445    512414.12961
  21617546.3924  -13826552.75946  -8400796.57261
  20881434.290     1059509.442 6    830744.57622
 91  5 13 20 19 59.9970000  0  6G18G 2G11G16G 6G19
  23222764.712    14396858.825 5  11209417.91221
  20264398.415   -19088567.580 7 -14832375.05523
  22838390.814    -6652862.764 6  -5121580.95321
  23082212.532    -5464812.877 5    522157.06921
  21610785.7204  -13862069.54146  -8428471.94961
  20884114.431     1073571.792 6    841702.23322
 91  5 13 20 20 14.9970000  0  6G18G 2G11G16G 6G19
  23231631.501    14443434.916 5  11245710.82621
  20259923.0404  -19112094.11747 -14850707.41163
  22841871.8374   -6634572.87146  -5107329.10861
  23084617.657    -5452202.662 5    531983.09721
  21604033.4624  -13897564.25846  -8456130.14161
  20886798.649     1087697.373 6    852709.16622
 91  5 13 20 20 29.9970000  0  6G18G 2G11G16G 6G19
  23240501.2354   14490046.14145  11282031.08061
  20255460.5174  -19135535.36047 -14868973.30763
  22845382.798    -6616144.625 6  -5092969.45621
  23087034.048    -5439486.905 5    541891.45521
  21597281.8454  -13933037.74646  -8483771.78761
  20889502.165     1101885.711 6    863764.99022
 91  5 13 20 20 44.9970000  0  6G18G 2G11G16G 6G19
  23249375.8144   14536685.23045  11318373.09061
  20251013.399   -19158898.344 7 -14887178.21623
  22848910.1574   -6597585.09346  -5078507.49761
  23089473.7674   -5426672.66345    551876.49961
  21590533.9544  -13968496.70046  -8511402.10661
  20892210.134     1116129.736 6    874864.21122
 91  5 13 20 20 59.9970000  0  6G18G 2G11G16G 6G19
  23258257.4624   14583355.22245  11354739.14661
  20246582.3454  -19182179.74947 -14905319.56463
  22852465.204    -6578891.248 6  -5063940.88921
  23091933.9234   -5413756.98045    561940.50661
  21583793.4394  -14003937.85246  -8539018.55061
  20894933.196     1130432.831 6    886009.46722
 91  5 13 20 21 14.9970000  0  6G18G 2G11G16G 6G19
  23267140.571    14630056.557 4  11391129.66121
  20242169.634   -19205378.924 7 -14923396.83023
  22856052.259    -6560062.533 6  -5049269.19221
  23094411.954    -5400739.540 5    572083.90021
  21577050.3454  -14039360.34046  -8566620.46561
  20897663.923     1144795.726 6    897201.31722
 91  5 13 20 21 29.9970000  0  6G18G 2G11G16G 6G19
  23276037.603    14676787.328 5  11427543.09621
  20237770.9784  -19228497.38547 -14941411.20663
  22859657.7674   -6541100.63046  -5034493.70061
  23096903.0954   -5387622.13345    582305.22961
  21570311.8844  -14074765.74346  -8594209.05161
  20900410.189     1159216.932 6    908438.59822
 91  5 13 20 21 44.9970000  0  6G18G 2G11G16G 6G19
  23284935.634    14723547.795 5  11463979.65721
  20233385.399   -19251534.782 7 -14959362.41023
  22863294.040    -6522005.479 6  -5019614.37921
  23099421.1734   -5374404.52645    592604.54561
  21563578.5174  -14110153.51046  -8621783.90161
  20903163.712     1173696.955 6    919721.71022
 91  5 13 20 21 59.9970000  0  6G18G 2G11G16G 6G19
  23293838.415    14770336.487 5  11500438.21421
  20229019.1184  -19274492.16247 -14977251.26863
  22866951.142    -6502778.356 6  -5004632.23221
  23101953.728    -5361088.367 5    602980.63921
  21556847.7434  -14145524.73746  -8649345.85761
  20905932.899     1188234.768 6    931049.85722
 91  5 13 20 22 14.9970000  0  6G18G 2G11G16G 6G19
  23302752.6184   14817150.44345  11536916.46161
  20224663.056   -19297372.518 7 -14995080.10623
  22870636.423    -6483422.291 6  -4989549.61121
  23104505.939    -5347676.806 5    613431.14321
  21550117.2514  -14180882.04546  -8676896.97161
  20908708.884     1202827.404 6    942420.72722
 91  5 13 20 22 29.9970000  0  6G18G 2G11G16G 6G19
  23311663.587    14863991.421 5  11573415.74521
  20220325.5714  -19320173.92347 -15012847.42463
  22874346.095    -6463935.596 6  -4974365.18721
  23107079.321    -5334167.805 5    623957.61021
  21543392.4704  -14216223.37346  -8704435.63661
  20911495.579     1217477.020 6    953835.99422
 91  5 13 20 22 44.9970000  0  6G18G 2G11G16G 6G19
  23320581.0094   14910856.11045  11609933.53061
  20216000.298   -19342899.331 7 -15030555.52323
  22878071.8844   -6444321.41546  -4959081.41161
  23109667.4784   -5320564.51545    634557.45161
  21536671.5484  -14251551.77146  -8731964.22261
  20914292.407     1232180.688 6    965293.37822
 91  5 13 20 22 59.9970000  0  6G18G 2G11G16G 6G19
  23329506.087    14957746.454 5  11646471.27821
  20211690.689   -19365546.648 7 -15048202.76923
  22881835.517    -6424577.819 6  -4943696.81921
  23112270.478    -5306865.345 5    645232.01621
  21529950.8294  -14286864.92746  -8759480.92761
  20917101.774     1246940.715 6    976794.68022
 91  5 13 20 23 14.9970000  0  6G18G 2G11G16G 6G19
  23338432.4314   15004662.32945  11683028.99661
  20207396.110   -19388115.656 7 -15065788.99823
  22885614.704    -6404704.894 6  -4928211.43221
  23114896.3924   -5293070.29745    655981.31061
  21523233.978   -14322162.599 6  -8786985.56921
  20919923.4624    1261757.35446    988340.10062
 91  5 13 20 23 29.9970000  0  6G18G 2G11G16G 6G19
  23347362.3214   15051605.38144  11719607.85161
  20203115.962   -19410604.739 7 -15083312.94423
  22889422.767    -6384701.255 6  -4912624.20821
  23117543.126    -5279178.126 5    666806.26521
  21516520.3604  -14357443.09246  -8814476.83461
  20922750.634     1276632.214 6    999930.87922
 91  5 13 20 23 44.9970000  0  6G18G 2G11G16G 6G19
  23356300.3844   15098576.60945  11756208.63361
  20198852.1184  -19433012.41947 -15100773.46163
  22893253.1574   -6364565.45446  -4896933.98261
  23120204.9784   -5265187.44745    677708.07461
  21509808.6424  -14392704.71946  -8841953.39261
  20925593.017     1291567.033 6   1011568.38322
 91  5 13 20 23 59.9970000  0  6G18G 2G11G16G 6G19
  23365244.853    15145577.202 5  11792832.29321
  20194604.064   -19455337.145 7 -15118169.33523
  22897108.6964   -6344296.35246  -4881139.89461
  23122885.1034   -5251097.02245    688687.52161
  21503102.6264  -14427945.88746  -8869414.01261
  20928447.056     1306563.318 6   1023253.78222
 91  5 13 20 24 14.9970000  0  6G18G 2G11G16G 6G19
  23374191.376    15192605.595 4  11829477.66121
  20190370.665   -19477580.570 7 -15135501.86523
  22900997.712    -6323895.523 6  -4865243.16121
  23125584.8994   -5236908.71745    699743.23361
  21496402.009   -14463168.096 6  -8896859.84121
  20931311.587     1321619.694 6   1034986.00422
 91  5 13 20 24 29.9970000  0  6G18G 2G11G16G 6G19
  23383145.985    15239659.124 4  11866142.55621
  20186152.360   -19499744.952 7 -15152772.79523
  22904895.1734   -6303365.61046  -4849245.81561
  23128305.665    -5222625.178 5    710873.13221
  21489701.798   -14498373.534 6  -8924292.61421
  20934188.9464    1336733.81746   1046763.23462
 91  5 13 20 24 44.9970000  0  6G18G 2G11G16G 6G19
  23392109.4624   15286738.08345  11902827.30761
  20181950.3534  -19521829.90347 -15169981.83763
  22908833.814    -6282706.532 6  -4833147.85321
  23131043.0014   -5208246.44245    722077.24461
  21483002.5484  -14533561.77346  -8951711.98061
  20937075.728     1351906.061 6   1058585.74422
 91  5 13 20 24 59.9970000  0  6G18G 2G11G16G 6G19
  23401074.134    15333845.612 5  11939534.32621
  20177763.6734  -19543831.64047 -15187126.03763
  22912783.1184   -6261914.63546  -4816946.38361
  23133790.8144   -5193768.87445    733358.40661
  21476315.4234  -14568728.85046  -8979114.85961
  20939974.298     1367140.278 6   1070456.54322
 91  5 13 20 25 14.9970000  0  6G18G 2G11G16G 6G19
  23410047.6894   15380979.20545  11976261.60661
  20173593.392   -19565752.830 7 -15204207.47023
  22916773.298    -6240992.677 6  -4800643.57921
  23136565.790    -5179195.193 5    744714.45821
  21469624.5714  -14603877.30746  -9006503.22561
  20942887.345     1382433.966 6   1082373.68622
 91  5 13 20 25 29.9970000  0  6G18G 2G11G16G 6G19
  23419018.657    15428140.847 5  12013010.77321
  20169437.0564  -19587591.14747 -15221224.33363
  22920777.321    -6219938.549 6  -4784237.78121
  23139361.446    -5164523.400 5    756146.87121
  21462940.728   -14639004.690 6  -9033875.17121
  20945810.501     1397789.472 6   1094338.99522
 91  5 13 20 25 44.9970000  0  6G18G 2G11G16G 6G19
  23427994.6964   15475326.76245  12049778.89061
  20165297.274   -19609349.914 7 -15238179.20423
  22924807.7354   -6198755.89846  -4767731.84061
  23142166.962    -5149757.221 5    767652.86221
  21456255.7124  -14674114.35546  -9061233.30761
  20948741.274     1413203.499 6   1106349.90922
 91  5 13 20 25 59.9970000  0  6G18G 2G11G16G 6G19
  23436977.3684   15522534.57644  12086564.02161
  20161171.0484  -19631031.55047 -15255073.97363
  22928857.2284   -6177447.31846  -4751127.75961
  23144994.7284   -5134899.09645    779230.56661
  21449581.5324  -14709208.44946  -9088579.31461
  20951684.6264    1428673.97246   1118404.81162
 91  5 13 20 26 14.9970000  0  6G18G 2G11G16G 6G19
  23445967.876    15569767.190 4  12123368.47821
  20157059.321   -19652632.856 7 -15271906.14723
  22932940.110    -6156009.632 6  -4734423.09421
  23147837.368    -5119946.089 4    790882.18621
  21442905.2674  -14744283.61646  -9115910.57361
  20954640.7044    1444204.10646   1130506.20762
 91  5 13 20 26 29.9970000  0  6G18G 2G11G16G 6G19
  23454959.5094   15617021.73745  12160190.02861
  20152965.5564  -19674156.75747 -15288678.00963
  22937044.079    -6134445.990 6  -4717620.26221
  23150705.907    -5104901.570 5    802605.05221
  21436235.157   -14779342.636 6  -9143229.24621
  20957606.384     1459791.171 6   1142651.96022
 91  5 13 20 26 44.9970000  0  6G18G 2G11G16G 6G19
  23463959.079    15664300.586 5  12197030.48421
  20148882.649   -19695600.734 7 -15305387.58623
  22941175.2124   -6112754.12746  -4700717.52561
  23153586.5794   -5089762.84445    814401.35561
  21429566.423   -14814382.920 6  -9170533.31921
  20960583.681     1475437.753 6   1154844.07922
 91  5 13 20 26 59.9970000  0  6G18G 2G11G16G 6G19
  23472956.931    15711605.259 5  12233891.16521
  20144817.6184  -19716962.44147 -15322033.06263
  22945324.1814   -6090931.96946  -4683713.25261
  23156481.134    -5074528.197 5    826272.42621
  21422904.548   -14849401.987 6  -9197820.86121
  20963573.923     1491146.279 6   1167084.46822
 91  5 13 20 27 14.9970000  0  6G18G 2G11G16G 6G19
  23481962.3994   15758933.09344  12270769.82061
  20140768.196   -19738244.643 7 -15338616.58123
  22949502.4314   -6068982.65546  -4666609.90261
  23159398.923    -5059200.909 4    838215.66421
  21416242.548   -14884402.703 6  -9225094.10321
  20966573.907     1506913.848 6   1179370.86622
 91  5 13 20 27 29.9970000  0  6G18G 2G11G16G 6G19
  23490976.845    15806286.460 4  12307668.36321
  20136734.6814  -19759444.46447 -15355135.91363
  22953704.415    -6046903.474 6  -4649405.35621
  23162335.7674   -5043777.72345    850233.61661
  21409587.142   -14919381.925 6  -9252350.59321
  20969586.196     1522743.456 6   1191705.60922
 91  5 13 20 27 44.9970000  0  6G18G 2G11G16G 6G19
  23499993.142    15853662.226 5  12344584.40021
  20132714.149   -19780565.138 7 -15371593.56923
  22957925.8844   -6024697.74446  -4632102.18761
  23165295.314    -5028262.644 5    862323.22721
  21402931.189   -14954342.686 6  -9279592.69921
  20972608.915     1538632.111 6   1204086.36122
 91  5 13 20 27 59.9970000  0  6G18G 2G11G16G 6G19
  23509011.189    15901060.592 5  12381518.03121
  20128710.4624  -19801606.17547 -15387989.17463
  22962182.0874   -6002365.18646  -4614700.22561
  23168257.5404   -5012655.39545    874484.64561
  21396283.399   -14989284.523 6  -9306820.05921
  20975646.837     1554580.251 6   1216513.46022
 91  5 13 20 28 14.9970000  0  6G18G 2G11G16G 6G19
  23518034.0484   15948480.43045
  20124721.439   -19822568.336 7 -15404323.31323
  22966453.845    -5979906.856 6  -4597200.24921
  23171246.681    -4996956.863 4    886717.10521
  21389636.626   -15024207.937 6  -9334033.06021
  20978689.751     1570587.420 6   1228986.55922
 91  5 13 20 28 29.9970000  0  6G18G 2G11G16G 6G19
  23527062.3144   15995921.36344
  20120748.0324  -19843451.89447 -15420596.20363
  22970752.454    -5957323.000 6  -4579602.43521
  23174251.978    -4981167.668 5    899020.24821
  21382994.821   -15059113.060 6  -9361231.81721
  20981748.282     1586653.362 6   1241505.46122
 91  5 13 20 28 44.9970000  0  6G18G 2G11G16G 6G19
  23536095.939    16043386.910 5
  20116789.3994  -19864253.13647 -15436804.95363
  22975068.2984   -5934610.32146  -4561904.25761
  23177275.228    -4965284.364 5    911396.80221
  21376356.9464  -15093996.02946  -9388413.31161
  20984815.884     1602781.822 6   1254073.08122
 91  5 13 20 28 59.9970000  0  6G18G 2G11G16G 6G19
  23545131.970    16090871.024 5        -0.40731
  20112846.0404  -19884977.91447 -15452954.12163
  22979417.4154   -5911774.73546  -4544110.29861
  23180317.501    -4949312.856 5    923842.10921
  21369721.7284  -15128862.63146  -9415582.05361
  20987898.329     1618967.124 6   1266684.99122
 91  5 13 20 29 14.9970000  0  6G18G 2G11G16G 6G19
  23554169.657    16138375.285 5     37015.75321
  20108916.579   -19905624.294 7 -15469042.19823
  22983789.1654   -5888814.92446  -4526219.55061
  23183364.673    -4933251.843 5    936357.02421
  21363091.9784  -15163710.87646  -9442736.48661
  20990987.360     1635211.120 6   1279342.63222
 91  5 13 20 29 29.9970000  0  6G18G 2G11G16G 6G19
  23563208.9934   16185898.50243     74046.68061
  20105002.8454  -19926193.18147 -15485069.88963
  22988175.5564   -5865731.75546  -4508232.66461
  23186442.548    -4917102.312 5    948940.92921
  21356463.3684  -15198541.62146  -9469877.29061
  20994094.392     1651512.830 6   1292045.25422
 91  5 13 20 29 44.9970000  0  6G18G 2G11G16G 6G19
  23572261.978    16233439.364 4    111091.35821
  20101102.7744  -19946685.62447 -15501038.01663
  22992596.321    -5842526.533 6  -4490150.69121
  23189531.4544   -4900865.54245    961592.82661
  21349838.564   -15233355.737 6  -9497005.13121
  20997202.0094    1667871.34146   1304792.11362
 91  5 13 20 29 59.9970000  0  6G18G 2G11G16G 6G19
  23581311.876    16281001.897 5
  20097218.282   -19967097.500 7 -15516943.36023
  22997033.7284   -5819195.23146  -4471970.46061
  23192637.3764   -4884537.98045
  21343217.509   -15268148.820 6  -9524116.57621
  21000327.142     1684291.076 6   1317586.69022
 91  5 13 20 30 14.9970000  0  6G18G 2G11G16G 6G19
  23590368.7674   16328585.20244
  20093350.7204  -19987429.83748 -15532786.72763
  23001498.673    -5795738.991 6  -4453692.90821
  23195763.2124   -4868120.20145
  21336600.4464  -15302921.77846  -9551212.34861
  21003464.064     1700771.409 6   1330428.49822
 91  5 13 20 30 29.9970000  0  6G18G 2G11G16G 6G19
  23599426.1034   16376189.06044
  20089495.9704  -20007682.28547 -15548567.84863
  23005981.4074   -5772157.87446  -4435318.00561
  23198904.657    -4851612.523 5
  21329987.360   -15337674.123 6  -9578292.05522
  21006613.821     1717312.466 6
 91  5 13 20 30 44.9970000  0  5G 2G11G16G 6G19
  20085656.064   -20027856.368 7 -15564287.89923
  23010499.009    -5748453.610 6  -4416847.16221
  23202065.5484   -4835016.89545
  21323375.923   -15372407.378 6  -9605356.88821
  21009769.931     1733912.679 6
 91  5 13 20 30 59.9970000  0  5G 2G11G16G 6G19
  20081832.149   -20047952.089 7 -15579946.89123
  23015032.946    -5724626.349 6  -4398280.48321
  23205239.564    -4818333.515 5
  21316771.142   -15407121.399 6  -9632406.72921
  21012942.032     1750572.162 6
 91  5 13 20 31 14.9970000  0  5G 2G11G16G 6G19
  20078024.2044  -20067965.94047 -15595542.08763
  23019589.9784   -5700672.95746  -4379615.50861
  23208428.892    -4801559.268 5
  21310170.7284  -15441812.43846  -9659438.66861
  21016122.860     1767294.460 6
 91  5 13 20 31 29.9970000  0  5G 2G11G16G 6G19
  20074230.735   -20087900.934 7 -15611075.83723
  23024169.7124   -5676596.44946  -4360854.59561
  23211637.087    -4784697.275 5
  21303571.759   -15476483.439 6  -9686454.99021
  21019320.501     1784076.725 6
 91  5 13 20 31 44.9970000  0  5G 2G11G16G 6G19
  20070452.7514  -20107757.51047 -15626548.48263
  23028777.032    -5652397.585 6  -4341998.35621
  23214863.0954   -4767748.26345        -0.18071
  21296977.7434  -15511134.70046  -9713455.93362
  21022520.126     1800918.699 6   1408465.21722
 91  5 13 20 31 59.9970000  0  5G 2G11G16G 6G19
  20066688.7044  -20127536.42748 -15641960.61463
  23033402.2594   -5628077.44146  -4323047.60761
  23218107.8684   -4750712.99945     13273.92861
  21290387.8924  -15545766.80546  -9740441.94562
  21025740.626     1817819.723 6   1421634.82422
 91  5 13 20 32 14.9970000  0  5G 2G11G16G 6G19
  20062941.4074  -20147230.81548 -15657306.87963
  23038055.8844   -5603629.16746  -4303997.00761
  23221366.5874   -4733584.93645     26620.34361
  21283802.6344  -15580372.76346  -9767407.58661
  21028965.681     1834786.785 6   1434855.88422
 91  5 13 20 32 29.9970000  0  5G 2G11G16G 6G19
  20059208.0174  -20166844.15148 -15672589.98563
  23042732.204    -5579056.656 6  -4284849.62121
  23224646.0094   -4716368.02544     40036.03061
  21277221.8844  -15614955.90246  -9794355.45061
  21032209.017     1851816.355 6   1448125.66621
 91  5 13 20 32 44.9970000  0  5G 2G11G16G 6G19
  20055490.579   -20186376.182 8 -15687809.74023
  23047433.532    -5554359.752 6  -4265605.29121
  23227936.6814   -4699062.05645     53521.07361
  21270644.7284  -15649515.77146  -9821285.17962
  21035458.524     1868908.997 6   1461444.59022
 91  5 13 20 32 59.9970000  0  5G 2G11G16G 6G19
  20051789.8064  -20205830.21948 -15702968.72163
  23052155.993    -5529542.100 6  -4246266.87521
  23231246.8994   -4681671.11545     67072.42061
  21264074.0794  -15684055.68546  -9848199.35562
  21038725.1264    1886061.31346   1474810.00062
 91  5 13 20 33 14.9970000  0  5G 2G11G16G 6G19
  20048101.868   -20225202.421 8 -15718063.93123
  23056897.048    -5504600.111 6  -4226831.56921
  23234570.1264   -4664191.32445     80692.93761
  21257503.5874  -15718571.58546  -9875094.81962
  21041998.7674    1903277.33946   1488225.05862
 91  5 13 20 33 29.9970000  0  5G 2G11G16G 6G19
  20044431.548   -20244494.651 8 -15733096.82523
  23061667.3844   -5479535.82246  -4207300.95661
  23237913.6814   -4646624.84544     94380.96361
  21250941.431   -15753065.239 6  -9901972.95322
  21045286.782     1920555.181 6   1501688.29022
 91  5 13 20 33 44.9970000  0  5G 2G11G16G 6G19
  20040775.814   -20263701.757 7 -15748063.38923
  23066468.0564   -5454344.18746  -4187671.12161
  23241273.548    -4628966.666 4    108140.45421
  21244382.165   -15787531.231 6  -9928829.52022
  21048585.946     1937900.178 6   1515203.85422
 91  5 13 20 33 59.9970000  0  5G 2G11G16G 6G19
  20037136.3684  -20282824.13148 -15762963.93363
  23071278.196    -5429025.852 6  -4167942.56621
  23244652.4234   -4611217.62645    121970.73361
  21237827.8844  -15821969.79646  -9955664.72862
  21051902.689     1955312.097 6   1528771.57021
 91  5 13 20 34 14.9970000  0  5G 2G11G16G 6G19
  20033512.993   -20301868.403 7 -15777803.61323
  23076123.8844   -5403587.85646  -4148120.76461
  23248043.8924   -4593384.72845
  21231277.610   -15856387.473 6  -9982483.65222
  21055228.157     1972784.114 6   1542386.09921
 91  5 13 20 34 29.9970000  0  5G 2G11G16G 6G19
  20029904.3534  -20320833.26147 -15792581.41163
  23080988.954    -5378028.900 6  -4128204.71521
  23251458.501    -4575466.800 4
  21224732.564   -15890782.878 6 -10009285.22222
  21058563.532     1990317.886 6   1556048.75721
 91  5 13 20 34 44.9970000  0  5G 2G11G16G 6G19
  20026312.6494  -20339712.62348 -15807292.59363
  23085872.478    -5352343.234 6  -4108189.92421
  23254885.923    -4557457.807 4        -0.24731
  21218194.439   -15925149.743 6 -10036064.55322
  21061911.657     2007919.436 6   1569764.23022
 91  5 13 20 34 59.9970000  0  5G 2G11G16G 6G19
  20022735.2984  -20358507.56248 -15821937.99563
  23090788.267    -5326532.285 6  -4088077.50021
  23258326.501    -4539359.127 5     14102.44521
  21211658.3924  -15959488.93946 -10062822.32462
  21065275.032     2025587.894 6   1583531.83921
 91  5 13 20 35 14.9970000  0  5G 2G11G16G 6G19
  20019174.1964  -20377220.15648 -15836519.22163
  23095719.7284   -5300598.12346  -4067869.06261
  23261788.0094   -4521173.50845     28272.97661
  21205130.3064  -15993802.38946 -10089560.04262
  21068649.079     2043321.278 6   1597350.04121
 91  5 13 20 35 29.9970000  0  5G 2G11G16G 6G19
  20015628.954   -20395851.150 8 -15851036.86823
  23100677.3994   -5274541.68746  -4047565.34661
  23265267.610    -4502901.768 5     42510.59821
  21198603.720   -16028090.651 6 -10116278.11722
  21072034.634     2061119.016 6   1611218.38721
 91  5 13 20 35 44.9970000  0  5G 2G11G16G 6G19
  20012101.431   -20414399.591 8 -15865490.18723
  23105656.454    -5248362.470 6  -4027165.97421
  23268756.399    -4484543.045 4     56816.05921
  21192083.4314  -16062352.72746 -10142975.80162
  21075435.048     2078982.020 6   1625137.58721
 91  5 13 20 35 59.9970000  0  5G 2G11G16G 6G19
  20008586.907   -20432864.459 8 -15879878.38023
  23110668.3604   -5222059.54346  -4006670.17261
  23272267.782    -4466096.764 5     71189.60721
  21185569.899   -16096587.478 6 -10169652.18322
  21078846.235     2096911.421 6   1639108.53321
 91  5 13 20 36 14.9970000  0  5G 2G11G16G 6G19
  20005087.360   -20451247.383 8 -15894202.72423
  23115695.532    -5195634.799 6  -3986079.46621
  23275795.8374   -4447564.79745     85629.99361
  21179059.493   -16130796.221 6 -10196308.29522
  21082271.032     2114905.723 6   1653130.04521
 91  5 13 20 36 29.9970000  0  5G 2G11G16G 6G19
  20001603.7354  -20469550.68947 -15908465.03063
  23120749.2744   -5169090.95046  -3965395.96261
  23279340.4074   -4428949.53545    100135.29761
  21172556.7284  -16164981.31246 -10222945.99462
  21085705.540     2132962.573 6   1667200.29321
 91  5 13 20 36 44.9970000  0  5G 2G11G16G 6G19
  19998138.017   -20487769.791 8 -15922661.72123
  23125823.1184   -5142423.51446  -3944616.16061
  23282897.376    -4410246.777 4    114708.73721
  21166053.571   -16199137.903 6 -10249561.46922
  21089154.923     2151086.698 6   1681322.97521
 91  5 13 20 36 59.9970000  0  5G 2G11G16G 6G19
  19994686.376   -20505909.725 8 -15936796.72423
  23130916.243    -5115637.805 6  -3923744.17021
  23286471.681    -4391461.949 4    129346.17621
  21159559.790   -16233270.906 6 -10276158.56922
  21092617.024     2169273.150 6   1695494.21621
 91  5 13 20 37 14.9970000  0  5G 2G11G16G 6G19
  19991249.5014  -20523965.91548 -15950866.46963
  23136031.4854   -5088729.43546  -3902776.60661
  23290060.0014   -4372590.85145    144050.86061
  21153069.618   -16267375.497 6 -10302733.52922
  21096089.024     2187526.687 6   1709717.74021
 91  5 13 20 37 29.9970000  0  5G 2G11G16G 6G19
  19987828.759   -20541941.119 8 -15964873.10823
  23141179.649    -5061701.366 6  -3881715.78921
  23293671.024    -4353636.285 5    158820.55121
  21146583.4154  -16301454.35146 -10329288.44062
  21099576.5794    2205844.57746   1723991.39561
 91  5 13 20 37 44.9970000  0  5G 2G11G16G 6G19
  19984424.1104  -20559832.08848 -15978814.10963
  23146350.610    -5034550.708 6  -3860559.45621
  23297295.7354   -4334595.70645    173657.23161
  21140105.9234  -16335504.06046 -10355820.64262
  21103074.087     2224229.980 6   1738317.65921
 91  5 13 20 37 59.9970000  0  5G 2G11G16G 6G19
  19981035.110   -20577641.058 8 -15992691.21923
  23151541.0644   -5007279.89246  -3839309.45861
  23300925.6494   -4315471.55844    188559.01861
  21133631.2674  -16369526.67946 -10382331.73162
  21106587.048     2242681.009 6   1752695.06121
 91  5 13 20 38 14.9970000  0  5G 2G11G16G 6G19
  19977662.532   -20595368.888 8 -16006505.10023
  23156747.7594   -4979889.88646  -3817966.60661
  23304588.7904   -4296264.51244    203525.39161
  21127162.431   -16403522.788 6 -10408822.15622
  21110109.704     2261197.005 6   1767123.09021
 91  5 13 20 38 29.9970000  0  5G 2G11G16G 6G19
  19974302.806   -20613018.892 8 -16020258.33723
  23161981.1734   -4952384.12946  -3796533.54961
  23308256.9934   -4276978.01845
  21120699.024   -16437495.598 6 -10435294.43622
  21113643.259     2279774.693 6   1781599.18721
 91  5 13 20 38 44.9970000  0  5G 2G11G16G 6G19
  19970960.126   -20630587.319 8 -16033948.00823
  23167241.4394   -4924759.27346  -3775007.70061
  23311944.1034   -4257608.75245
  21114237.993   -16471441.272 6 -10461745.56322
  21117193.993     2298418.016 6   1796126.43621
 91  5 13 20 38 59.9970000  0  5G 2G11G16G 6G19
  19967633.243   -20648073.633 8 -16047573.69123
  23172517.048    -4897015.253 6  -3753389.00121
  23315639.3924   -4238156.75944
  21107781.079   -16505359.210 6 -10488175.08122
  21120753.829     2317127.385 6   1810705.15222
 91  5 13 20 39 14.9970000  0  5G 2G11G16G 6G19
  19964321.970   -20665477.718 8 -16061135.30223
  23177827.595    -4869152.198 6  -3731677.53621
  23319364.3214   -4218622.06044        -0.36271
  21101336.1734  -16539249.16146 -10514582.79362
  21124326.001     2335902.916 6   1825335.41022
 91  5 13 20 39 29.9970000  0  5G 2G11G16G 6G19
  19961025.5404  -20682800.10548 -16074633.25563
  23183149.064    -4841170.637 6  -3709873.72521
  23323095.571    -4199005.344 5     15285.23721
  21094891.001   -16573111.281 6 -10540968.81522
  21127912.814     2354744.293 6   1840016.98621
 91  5 13 20 39 44.9970000  0  5G 2G11G16G 6G19
  19957743.548   -20700045.619 8 -16088071.30423
  23188495.8454   -4813075.69046  -3687981.56661
  23326841.1574   -4179311.95045     30630.64061
  21088450.8144  -16606950.38546 -10567336.90762
  21131506.946     2373646.690 6   1854746.10221
 91  5 13 20 39 59.9970000  0  5G 2G11G16G 6G19
  19954476.0244  -20717209.26348 -16101445.55863
  23193864.3214   -4784862.39646  -3665997.21161
  23330608.517    -4159536.892 5     46039.70921
  21082015.6654  -16640761.08046 -10593682.86262
  21135116.376     2392615.285 6   1869526.80621
 91  5 13 20 40 14.9970000  0  5G 2G11G16G 6G19
  19951226.431   -20734289.401 8 -16114754.74523
  23199252.915    -4756529.542 6  -3643919.67021
  23334383.767    -4139679.254 4     61513.11621
  21075589.149   -16674541.752 6 -10620005.42522
  21138739.103     2411651.647 6   1884360.31721
 91  5 13 20 40 29.9970000  0  5G 2G11G16G 6G19
  19947990.353   -20751292.133 8 -16128003.61523
  23204667.892    -4728083.589 6  -3621754.01621
  23338173.3534   -4119745.00443     77046.14561
  21069165.4394  -16708298.27447 -10646309.16562
  21142376.743     2430749.916 6   1899242.06122
 91  5 13 20 40 44.9970000  0  5G 2G11G16G 6G19
  19944771.3764  -20768214.59648 -16141189.94063
  23210102.8064   -4699521.69646  -3599497.99161
  23341986.9154   -4099731.67744     92640.81861
  21062744.3294  -16742027.50646 -10672591.65062
  21146021.274     2449913.252 6   1914174.51421
 91  5 13 20 40 59.9970000  0  5G 2G11G16G 6G19
  19941568.103   -20785056.283 8 -16154313.31223
  23215557.431    -4670843.556 6  -3577151.40621
  23345813.2434   -4079638.90145    108297.40061
  21056332.962   -16775728.742 6 -10698852.30722
  21149680.345     2469142.190 6   1929158.07821
 91  5 13 20 41 14.9970000  0  5G 2G11G16G 6G19
  19938376.9314  -20801819.21548 -16167375.32963
  23221041.790    -4642051.627 6  -3554716.16121
  23349653.392    -4059469.282 5    124013.89921
  21049926.6894  -16809404.10647 -10725092.81362
  21153351.6104    2488434.54646   1944191.07761
 91  5 13 20 41 29.9970000  0  4G 2G11G 6G19
  19935202.071   -20818502.789 8 -16180375.50523
  23226537.8454   -4613145.56046  -3532191.96261
  21043521.1894  -16843052.70846 -10751312.46562
  21157036.524     2507791.052 6   1959274.04321
 91  5 13 20 41 44.9970000  0  4G 2G11G 6G19
  19932042.6574  -20835105.10648 -16193312.36163
  23232065.1494   -4584123.75546  -3509577.58961
  21037124.7354  -16876672.51146 -10777509.66862
  21160730.040     2527213.641 6   1974408.51121
 91  5 13 20 41 59.9970000  0  4G 2G11G 6G19
  19928897.6424  -20851625.88548 -16206185.68263
  23237609.6654   -4554986.04146  -3486872.86861
  21030733.2434  -16910262.98747 -10803684.03262
  21164442.556     2546702.855 6   1989594.89421
 91  5 13 20 42 14.9970000  0  4G 2G11G 6G19
  19925767.657   -20868067.315 8 -16218997.17323
  23243174.446    -4525735.018 6  -3464079.87321
  21024345.0014  -16943826.23946 -10829837.17362
  21168160.5324    2566256.45646   2004831.45161
 91  5 13 20 42 29.9970000  0  4G 2G11G 6G19
  19922656.4544  -20884430.62748 -16231747.79663
  23248755.8454   -4496371.85845  -3441199.50361
  21017963.6184  -16977363.15947 -10855969.80462
  21171894.079     2585873.631 6   2020117.54521
 91  5 13 20 42 44.9970000  0  4G 2G11G 6G19
  19919556.204   -20900717.794 8 -16244439.08223
  23254368.3144   -4466898.82646  -3418233.49661
  21011584.9544  -17010875.60547 -10882083.35762
  21175638.048     2605552.343 6   2035451.58921
 91  5 13 20 42 59.9970000  0  4G 2G11G 6G19
  19916472.5014  -20916924.76148 -16257067.87563
  23259995.337    -4437312.469 5  -3395179.20821
  21005214.3144  -17044359.60047 -10908174.74662
  21179398.376     2625296.303 6   2050836.46621
 91  5 13 20 43 14.9970000  0  4G 2G11G 6G19
  19913403.5714  -20933054.00348 -16269636.11263
  23265649.353    -4407615.336 5  -3372038.59921
  20998846.7744  -17077817.18147 -10934245.55062
  21183165.540     2645103.500 6   2066270.62121
 91  5 13 20 43 29.9970000  0  4G 2G11G 6G19
  19910348.2594  -20949101.75548 -16282140.84163
  23271321.5484   -4377803.72446  -3348808.78761
  20992489.5484  -17111244.39847 -10960292.70362
  21186949.024     2664977.803 6   2081757.07521
 91  5 13 20 43 44.9970000  0  4G 2G11G 6G19
  19907310.4784  -20965071.14248 -16294584.50963
  23277018.314    -4347881.161 6  -3325492.51921
  20986127.9624  -17144644.16746 -10986318.46962
  21190740.368     2684916.174 6   2097293.44421
 91  5 13 20 43 59.9970000  0  4G 2G11G 6G19
  19904285.2284  -20980963.48247 -16306968.14063
  23282734.759    -4317849.131 6  -3302090.94921
  20979780.3534  -17178017.72247 -11012323.79862
  21194550.189     2704917.367 6   2112878.76821
 91  5 13 20 44 14.9970000  0  4G 2G11G 6G19
  19901276.720   -20996775.565 8 -16319289.23423
  23288468.376    -4287704.691 6  -3278601.77521
  20973434.0404  -17211361.54247 -11038305.96862
  21198367.0874    2724984.81046   2128515.70761
 91  5 13 20 44 29.9970000  0  4G 2G11G 6G19
  19898284.134   -21012508.158 8 -16331548.38723
  23294225.4934   -4257448.87046  -3255025.82361
  20967094.1494  -17244676.28947 -11064265.48262
  21202199.540     2745117.716 6   2144203.66121
 91  5 13 20 44 44.9970000  0  4G 2G11G 6G19
  19895304.4784  -21028157.11848 -16343742.37363
  23300007.3144   -4227077.80346  -3231360.07461
  20960760.9464  -17277957.74946 -11090199.04462
  21206040.439     2765320.191 6   2159945.83221
 91  5 13 20 44 59.9970000  0  4G 2G11G 6G19
  19892343.3924  -21043727.58248 -16355875.19063
  23305808.2514   -4196596.90246  -3207608.75061
  20954431.8534  -17311210.81046 -11116110.48662
  21209901.376     2785587.271 6   2175738.34221
 91  5 13 20 45 14.9970000  0  4G 2G11G 6G19
  19889394.243   -21059217.273 8 -16367945.06923
  23311627.6184   -4166004.06146  -3183770.18561
  20948110.314   -17344432.955 7 -11141997.84522
  21213767.314     2805921.550 6   2191583.21421
 91  5 13 20 45 29.9970000  0  4G 2G11G 6G19
  19886463.657   -21074624.819 8 -16379950.93723
  23317468.0094   -4135298.22245  -3159843.54561
  20941796.1344  -17377622.78747 -11167860.01662
  21217652.923     2826324.325 6   2207481.46121
 91  5 13 20 45 44.9970000  0  4G 2G11G 6G19
  19883546.8214  -21089950.06148 -16391892.67963
  23323332.5484   -4104479.53645  -3135828.99661
  20935485.4464  -17410779.80847 -11193696.61962
  21221546.501     2846795.817 6   2223433.24821
 91  5 13 20 45 59.9970000  0  4G 2G11G 6G19
  19880645.2594  -21105196.23548 -16403772.80563
  23329220.3994   -4073551.42946  -3111729.19761
  20929182.931   -17443907.043 7 -11219510.03022
  21225453.642     2867332.783 6   2239436.05721
 91  5 13 20 46 14.9970000  0  4G 2G11G 6G19
  19877758.071   -21120360.779 8 -16415589.32123
  23335130.1574   -4042511.61646  -3087542.34061
  20922883.7434  -17477001.84047 -11245298.14262
  21229374.696     2887937.958 6   2255492.00921
 91  5 13 20 46 29.9970000  0  4G 2G11G 6G19
  19874890.8454  -21135441.18248 -16427340.27163
  23341055.3764   -4011357.64545  -3063266.52961
  20916592.4154  -17510061.28147 -11271058.71162
  21233311.485     2908614.152 6   2271603.30721
 91  5 13 20 46 44.9970000  0  4G 2G11G 6G19
  19872035.1034  -21150442.02648 -16439029.23663
  23347006.7904   -3980094.56546  -3038905.68761
  20910309.2124  -17543089.90747 -11296795.27662
  21237257.712     2929356.692 6   2287766.30321
 91  5 13 20 46 59.9970000  0  4G 2G11G 6G19
  19869197.9784  -21165356.03848 -16450650.53763
  23352974.2434   -3948715.21245  -3014454.25061
  20904031.1574  -17576080.28847 -11322502.03662
  21241219.689     2950172.949 6   2303986.73921
 91  5 13 20 47 14.9970000  0  4G 2G11G 6G19
  19866374.6654  -21180187.59248 -16462207.58363
  23358968.7284   -3917224.11246  -2989915.75861
  20897758.6424  -17609036.47347 -11348182.14662
  21245193.212     2971058.825 6   2320261.42621
 91  5 13 20 47 29.9970000  0  4G 2G11G 6G19
  19863566.7354  -21194941.21648 -16473703.90663
  23364984.0484   -3885626.20046  -2965294.04161
  20891493.962   -17641962.753 7 -11373838.96222
  21249180.1734    2992009.79346   2336586.82961
 91  5 13 20 47 44.9970000  0  4G 2G11G 6G19
  19860775.0094  -21209610.55348 -16485134.54763
  23371016.3764   -3853915.43746  -2940584.36061
  20885234.7904  -17674852.79847 -11399467.53362
  21253178.384     3013032.047 6   2352967.78621
 91  5 13 20 47 59.9970000  0  4G 2G11G 6G19
  19858000.6344  -21224198.56148 -16496501.82063
  23377070.5404   -3822094.95245  -2915789.17261
  20878982.1494  -17707709.29547 -11425069.96562
  21257193.204     3034122.822 6   2369402.13421
 91  5 13 20 48 14.9970000  0  4G 2G11G 6G19
  19855239.3844  -21238704.81048 -16507805.38163
  23383148.267    -3790164.620 5  -2890908.41321
  20872735.8064  -17740531.61747 -11450645.77162
  21261218.517     3055282.598 6   2385890.24521
 91  5 13 20 48 29.9970000  0  4G 2G11G 6G19
  19852493.3604  -21253130.55648 -16519046.21363
  23389243.1574   -3758126.01445  -2865943.28361
  20866496.884   -17773320.922 7 -11476195.85322
  21265259.524     3076510.333 6   2402431.30621
 91  5 13 20 48 44.9970000  0  4G 2G11G 6G19
  19849763.3534  -21267475.74748 -16530224.28463
  23395361.212    -3725979.300 5  -2840893.90521
  20860263.9074  -17806076.79447 -11501719.88162
  21269312.493     3097806.086 6   2419025.37821
 91  5 13 20 48 59.9970000  0  4G 2G11G 6G19
  19847050.5244  -21281738.29748 -16541337.94963
  23401497.860    -3693722.533 5  -2815758.78221
  20854034.6574  -17838796.90047 -11527216.02962
  21273378.032     3119172.166 6   2435674.24921
 91  5 13 20 49 14.9970000  0  4G 2G11G 6G19
  19844353.1814  -21295916.08848 -16552385.57363
  23407657.259    -3661353.936 5  -2790536.51321
  20847817.0014  -17871479.03347 -11552682.59462
  21277456.806     3140610.835 6   2452379.68321
 91  5 13 20 49 29.9970000  0  4G 2G11G 6G19
  19841670.6964  -21310009.51948 -16563367.45963
  23413837.7514   -3628874.24645  -2765227.66161
  20841605.6494  -17904123.51047 -11578119.82062
  21281551.0244    3162121.49646   2469141.20761
 91  5 13 20 49 44.9970000  0  4G 2G11G 6G19
  19839005.0014  -21324016.91548 -16574282.30863
  23420042.0244   -3596281.85445  -2739831.01561
  20835401.6494  -17936728.21947 -11603526.05862
  21285657.5484    3183706.24746   2485960.45961
 91  5 13 20 49 59.9970000  0  4G 2G11G 6G19
  19836352.6964  -21337948.87048 -16585138.37763
  23426258.595    -3563587.749 5  -2714355.12021
  20829202.626   -17969303.690 7 -11628909.51522
  21289777.1894    3205354.43746   2502829.15061
 91  5 13 20 50 14.9970000  0  4G 2G11G 6G19
  19833719.0174  -21351795.68048 -16595928.08963
  23432503.0404   -3530782.53445  -2688792.60761
  20823011.509   -18001840.030 7 -11654262.48422
  21293911.0564    3227075.75246   2519754.82761
 91  5 13 20 50 29.9970000  0  4G 2G11G 6G19
  19831099.4314  -21365560.81748 -16606654.16763
  23438771.642    -3497869.877 5  -2663146.39321
  20816827.314   -18034340.581 7 -11679587.56022
  21298059.751     3248866.888 6   2536734.90421
 91  5 13 20 50 44.9970000  0  4G 2G11G 6G19
  19828494.2514  -21379244.89948 -16617317.08363
  23445051.2204   -3464850.52145  -2637417.04661
  20810647.392   -18066805.507 7 -11704884.87922
  21302216.446     3270727.350 6   2553769.01121
 91  5 13 20 50 59.9970000  0  4G 2G11G 6G19
  19825905.8994  -21392847.66148 -16627916.63463
  23451352.806    -3431724.524 5  -2611604.59521
  20804475.1034  -18099234.37647 -11730154.09662
  21306390.368     3292657.525 6   2570857.44021
 91  5 13 20 51 14.9970000  0  4G 2G11G 6G19
  19823333.6264  -21406369.09348 -16638452.80863
  23457679.1344   -3398492.11345  -2585709.19761
  20798313.587   -18131627.087 7 -11755395.14522
  21310577.4394    3314657.56846   2588000.30361
 91  5 13 20 51 29.9970000  0  4G 2G11G 6G19
  19820775.9784  -21419811.13348 -16648927.12463
  23464024.892    -3365155.692 5  -2559732.79721
  20792155.290   -18163985.478 7 -11780609.45722
  21314774.454     3336725.463 6   2605196.04021
 91  5 13 20 51 44.9970000  0  4G 2G11G 6G19
  19818233.3294  -21433173.66448 -16659339.47963
  23470385.1104   -3331715.25545  -2533675.34661
  20786004.126   -18196309.078 7 -11805796.65522
  21318987.9784    3358861.35346   2622444.76061
 91  5 13 20 51 59.9970000  0  4G 2G11G 6G19
  19815705.0874  -21446458.30448 -16669691.14363
  23476770.149    -3298172.618 5  -2507538.24221
  20779859.6814  -18228599.37047 -11830957.89362
  21323214.9624    3381063.78346   2639745.33261
 91  5 13 20 52 14.9970000  0  4G 2G11G 6G19
  19813192.0404  -21459663.01548 -16679980.52663
  23483175.212    -3264526.063 6  -2481320.18221
  20773721.439   -18260853.946 7 -11856091.30722
  21327451.415     3403334.921 6   2657099.43321
 91  5 13 20 52 29.9970000  0  4G 2G11G 6G19
  19810694.7204  -21472789.08848 -16690208.63463
  23489597.587    -3230777.088 6  -2455022.32021
  20767589.048   -18293073.960 7 -11881197.78522
  21331703.4934    3425673.50846   2674506.10061
 91  5 13 20 52 44.9970000  0  4G 2G11G 6G19
  19808211.8534  -21485833.54748 -16700373.14363
  23496038.673    -3196922.977 6  -2428642.49921
  20761466.556   -18325256.289 7 -11906274.90422
  21335969.0794    3448082.65146   2691967.74361
 91  5 13 20 52 59.9970000  0  4G 2G11G 6G19
  19805743.9314  -21498801.32148 -16710477.90263
  23502500.204    -3162969.211 5  -2402185.03921
  20755348.564   -18357405.795 7 -11931326.45322
  21340246.931     3470557.389 6   2709480.50221
 91  5 13 20 53 14.9970000  0  4G 2G11G 6G19
  19803291.0564  -21511690.48448 -16720521.40463
  23508978.2594   -3128913.97245  -2375648.51761
  20749237.040   -18389520.170 7 -11956350.61922
  21344533.9544    3493099.80446   2727045.99561
 91  5 13 20 53 29.9970000  0  4G 2G11G 6G19
  19800854.2434  -21524500.94848 -16730503.57963
  23515479.728    -3094757.499 5  -2349033.08521
  20743131.415   -18421599.192 7 -11981347.23922
  21348834.1424    3515710.10846   2744664.38261
 91  5 13 20 53 44.9970000  0  4G 2G11G 6G19
  19798430.2904  -21537234.33048 -16740425.69363
  23521997.2594   -3060501.46145  -2322340.08561
  20737035.009   -18453644.157 7 -12006317.32522
  21353151.970     3538386.843 6   2762334.53421
 91  5 13 20 53 59.9970000  0  4G 2G11G 6G19
  19796023.0404  -21549889.13948 -16750286.58063
  23528537.8454   -3026144.59545  -2295568.50561
  20730944.243   -18485653.393 7 -12031259.56122
  21357480.696     3561131.414 6   2780057.54721
 91  5 13 20 54 14.9970000  0  4G 2G11G 6G19
  19793629.1894  -21562464.96148 -16760085.91963
  23535090.8604   -2991686.75345  -2268718.28061
  20724860.5094  -18517626.26747 -12056173.46362
  21361822.501     3583944.528 6   2797833.98021
 91  5 13 20 54 29.9970000  0  4G 2G11G 6G19
  19791252.2514  -21574960.77148 -16769822.91063
  23541670.4074   -2957127.35945  -2241788.90861
  20718781.649   -18549561.574 7 -12081058.09322
  21366180.2514    3606827.24046   2815664.63661
 91  5 13 20 54 44.9970000  0  4G 2G11G 6G19
  19788887.9854  -21587384.69848 -16779503.89163
  23548262.7514   -2922474.78645  -2214786.90961
  20712712.368   -18581467.210 7 -12105919.60922
  21370543.0714    3629771.49646   2833543.24261
 91  5 13 20 54 59.9970000  0  4G 2G11G 6G19
  19786536.7744  -21599734.05448 -16789126.76163
  23554874.5404   -2887726.62945  -2187710.46661
  20706643.485   -18613340.373 7 -12130755.82322
  21374918.9464    3652779.96546   2851471.89661
 91  5 13 20 55 14.9970000  0  4G 2G11G 6G19
  19784201.2204  -21612006.22248 -16798689.48563
  23561506.1574   -2852880.41845  -2160557.63361
  20700589.040   -18645177.960 7 -12155564.31422
  21379311.7514    3675855.37746   2869452.69561
 91  5 13 20 55 29.9970000  0  4G 2G11G 6G19
  19781880.3764  -21624205.12148 -16808195.11963
  23568157.321    -2817940.310 5  -2133331.56121
  20694533.337   -18676983.793 7 -12180348.05722
  21383718.4784    3698994.03346   2887482.78661
 91  5 13 20 55 44.9970000  0  4G 2G11G 6G19
  19779573.0564  -21636329.48348 -16817642.67563
  23574818.8844   -2782905.39245  -2106031.64861
  20688489.134   -18708756.526 7 -12205106.00822
  21388129.189     3722197.156 6   2905563.10521
 91  5 13 20 55 59.9970000  0  4G 2G11G 6G19
  19777280.4624  -21648376.84948 -16827030.22863
  23581502.314    -2747773.331 5  -2078655.99021
  20682449.220   -18740493.283 7 -12229835.92922
  21392558.415     3745467.398 6   2923695.73921
 91  5 13 20 56 14.9970000  0  3G 2G 6G19
  19775002.7984  -21660350.34848 -16836360.22363
  20676417.610   -18772196.976 7 -12254540.08422
  21396996.790     3768801.728 6   2941878.31421
 91  5 13 20 56 29.9970000  0  3G 2G 6G19
  19772737.9154  -21672249.81548 -16845632.53363
  20670387.235   -18803867.385 7 -12279218.30522
  21401454.845     3792200.230 6   2960110.88621
 91  5 13 20 56 44.9970000  0  3G 2G 6G19
  19770487.7044  -21684074.25248 -16854846.37463
  20664370.782   -18835503.178 7 -12303869.54722
  21405914.8294    3815664.05646   2978394.35961
 91  5 13 20 56 59.9970000  0  3G 2G 6G19
  19768253.2824  -21695824.08248 -16864002.08163
  20658354.564   -18867104.538 7 -12328493.96622
  21410398.5014    3839193.01346   2996728.58161
 91  5 13 20 57 14.9970000  0  3G 2G 6G19
  19766029.3294  -21707500.26448 -16873100.40263
  20652348.939   -18898672.272 7 -12353092.17622
  21414882.5874    3862786.05246   3015112.72661
 91  5 13 20 57 29.9970000  0  3G 2G 6G19
  19763822.2124  -21719101.91248 -16882140.64463
  20646348.079   -18930205.313 7 -12377663.36022
  21419388.6964    3886444.13746   3033547.57761
 91  5 13 20 57 44.9970000  0  3G 2G 6G19
  19761629.0484  -21730632.35448 -16891125.40363
  20640354.446   -18961706.655 7 -12402209.83822
  21423897.892     3910164.086 6   3052030.60821
 91  5 13 20 57 59.9970000  0  3G 2G 6G19
  19759447.4784  -21742089.20048 -16900052.81063
  20634366.212   -18993173.828 7 -12426729.69022
  21428427.2044    3933948.25646   3070563.69261
 91  5 13 20 58 14.9970000  0  3G 2G 6G19
  19757280.8844  -21753473.64848 -16908923.80463
  20628382.485   -19024607.722 7 -12451223.61522
  21432962.829     3957795.488 6   3089145.90021
 91  5 13 20 58 29.9970000  0  3G 2G 6G19
  19755128.5174  -21764788.14348 -16917740.29563
  20622408.345   -19056010.574 7 -12475693.34822
  21437514.8604    3981703.59846   3107775.55761
 91  5 13 20 58 44.9970000  0  3G 2G 6G19
  19752989.2044  -21776031.77548 -16926501.56163
  20616438.931   -19087381.060 7 -12500137.86222
  21442073.6814    4005673.72046   3126453.55761
 91  5 13 20 58 59.9970000  0  3G 2G 6G19
  19750864.759   -21787200.777 8 -16935204.69222
  20610476.7904  -19118715.39047 -12524554.21261
  21446648.024     4029709.498 6   3145182.68721
 91  5 13 20 59 14.9970000  0  3G 2G 6G19
  19748750.7044  -21798300.81648 -16943854.05663
  20604517.8454  -19150018.91547 -12548946.53062
  21451232.8604    4053805.37646   3163958.66561
 91  5 13 20 59 29.9970000  0  3G 2G 6G19
  19746652.1184  -21809332.66748 -16952450.29763
  20598568.423   -19181292.242 7 -12573315.33722
  21455830.9074    4077960.66746   3182780.94661
 91  5 13 20 59 44.9970000  0  3G 2G 6G19
  19744565.4624  -21820294.09848 -16960991.66863
  20592623.728   -19212532.885 7 -12597658.67422
  21460439.4704    4102177.44446   3201651.12961
 91  5 13 20 59 59.9970000  0  3G 2G 6G19
  19742493.6894  -21831185.02948 -16969478.10763
  20586684.485   -19243740.638 7 -12621976.37622
  21465058.5324    4126455.94046   3220569.39861
 91  5 13 21  0 14.9960000  0  3G 2G 6G19
  19740434.1764  -21842008.11448 -16977911.67163
  20580751.324   -19274916.388 7 -12646269.14322
  21469689.1214    4150791.54546   3239532.17261
 91  5 13 21  0 29.9960000  0  3G 2G 6G19
  19738387.4734  -21852765.70448 -16986294.20563
  20574823.6994  -19306064.94047 -12670540.71462
  21474332.723     4175186.472 6   3258541.17921
 91  5 13 21  0 44.9960000  0  3G 2G 6G19
  19736353.6374  -21863452.37448 -16994621.48063
  20568903.191   -19337179.342 7 -12694785.67822
  21478984.059     4199643.815 6   3277598.82621
 91  5 13 21  0 59.9960000  0  3G 2G 6G19
  19734332.5044  -21874067.89748 -17002893.31063
  20562990.324   -19368259.257 7 -12719003.77122
  21483652.137     4224164.032 6   3296705.44721
 91  5 13 21  1 14.9960000  0  3G 2G 6G19
  19732327.7774  -21884615.09548 -17011111.89763
  20557081.0664  -19399307.13347 -12743196.89463
  21488329.3874    4248744.46446   3315858.99361
 91  5 13 21  1 29.9960000  0  3G 2G 6G19
  19730333.6764  -21895088.75848 -17019273.19263
  20551180.4494  -19430317.48047 -12767360.77362
  21493018.9814    4273390.48046   3335063.65061
 91  5 13 21  1 44.9960000  0  3G 2G 6G19
  19728352.4264  -21905494.36148 -17027381.44963
  20545284.777   -19461295.643 7 -12791499.57422
  21497720.387     4298096.525 6   3354315.09221
 91  5 13 21  1 59.9960000  0  3G 2G 6G19
  19726387.2384  -21915832.42948 -17035437.07963
  20539395.4884  -19492241.80647 -12815613.43862
  21502432.5434    4322862.20346   3373612.98361
 91  5 13 21  2 14.9960000  0  3G 2G 6G19
  19724432.0204  -21926102.41148 -17043439.66363
  20533513.027   -19523155.335 7 -12839701.88022
  21507157.832     4347687.763 6   3392957.55121
 91  5 13 21  2 29.9960000  0  3G 2G 6G19
  19722489.8324  -21936306.12648 -17051390.60663
  20527636.512   -19554037.978 7 -12863766.25223
  21511893.4414    4372571.51246   3412347.45161
 91  5 13 21  2 44.9960000  0  3G 2G 6G19
  19720561.4184  -21946443.65448 -17059289.97463
  20521764.699   -19584889.276 7 -12887806.20322
  21516640.543     4397513.699 6   3431782.88521
 91  5 13 21  2 59.9960000  0  3G 2G 6G19
  19718644.5904  -21956512.27648 -17067135.65163
  20515900.6524  -19615706.42047 -12911819.53762
  21521398.0904    4422516.99146   3451265.93061
 91  5 13 21  3 14.9960000  0  3G 2G 6G19
  19716742.0354  -21966512.54148 -17074928.06163
  20510042.1524  -19646489.64347 -12935806.43262
  21526167.934     4447581.068 6   3470796.36321
 91  5 13 21  3 29.9960000  0  3G 2G 6G19
  19714852.0124  -21976445.16948 -17082667.76863
  20504191.371   -19677239.383 7 -12959767.24323
  21530948.4344    4472705.31646   3490373.66061
 91  5 13 21  3 44.9960000  0  3G 2G 6G19
  19712975.3484  -21986306.16948 -17090351.66163
  20498347.2384  -19707951.42247 -12983698.66962
  21535738.801     4497893.818 6   3510001.04321
 91  5 13 21  3 59.9960000  0  3G 2G 6G19
  19711111.8874  -21996098.69848 -17097982.20063
  20492509.168   -19738628.410 7 -13007602.78523
  21540548.090     4523143.610 6   3529676.15821
 91  5 13 21  4 14.9960000  0  3G 2G 6G19
  19709261.2704  -22005822.65948 -17105559.31063
  20486678.7154  -19769270.23847 -13031479.50763
  21545361.2774    4548454.61646   3549398.98361
 91  5 13 21  4 29.9960000  0  3G 2G 6G19
  19707423.9494  -22015485.15048 -17113088.52463
  20480853.6844  -19799884.02947 -13055334.37562
  21550189.6914    4573819.51846   3569163.81561
 91  5 13 21  4 44.9960000  0  3G 2G 6G19
  19705595.8484  -22025083.10048 -17120567.44563
  20475033.3014  -19830466.33047 -13079164.70862
  21555025.7854    4599241.57346   3588973.17361
 91  5 13 21  4 59.9960000  0  3G 2G 6G19
  19703783.5744  -22034611.71348 -17127992.33463
  20469220.6524  -19861012.27147 -13102966.70863
  21559877.926     4624725.900 6   3608831.04921
 91  5 13 21  5 14.9960000  0  3G 2G 6G19
  19701983.3164  -22044071.12448 -17135363.30463
  20463413.9104  -19891521.43947 -13126740.05662
  21564737.3244    4650272.48246   3628737.43761
 91  5 13 21  5 29.9960000  0  3G 2G 6G19
  19700196.0204  -22053462.82048 -17142681.50563
  20457616.1914  -19921994.97347 -13150485.63863
  21569612.684     4675879.913 6   3648691.23821
 91  5 13 21  5 44.9960000  0  3G 2G 6G19
  19698421.8634  -22062786.01548 -17149946.32863
  20451824.8794  -19952432.00247 -13174202.77463
  21574495.0204    4701548.98646   3668693.06861
 91  5 13 21  5 59.9960000  0  3G 2G 6G19
  19696660.6294  -22072041.68248 -17157158.53263
  20446038.5904  -19982833.22847 -13197892.00663
  21579391.574     4727278.885 6   3688742.31821
 91  5 13 21  6 14.9960000  0  3G 2G 6G19
  19694912.1764  -22081228.55948 -17164317.13263
  20440260.5354  -20013197.19547 -13221552.20963
  21584299.1764    4753070.78946   3708839.88061
 91  5 13 21  6 29.9960000  0  3G 2G 6G19
  19693177.6684  -22090343.14548 -17171419.40463
  20434492.1764  -20043520.04247 -13245180.36663
  21589221.840     4778928.337 6   3728988.58721
 91  5 13 21  6 44.9960000  0  3G 2G 6G19
  19691454.6214  -22099393.56748 -17178471.67563
  20428726.1454  -20073809.65147 -13268782.62963
  21594151.7854    4804843.59446   3749182.28261
 91  5 13 21  6 59.9960000  0  3G 2G 6G19
  19689747.2384  -22108373.65348 -17185469.14363
  20422970.9104  -20104059.70047 -13292354.06163
  21599097.496     4830822.700 6   3769425.71921
 91  5 13 21  7 14.9960000  0  3G 2G 6G19
  19688051.4654  -22117282.42448 -17192411.03763
  20417220.4734  -20134268.94247 -13315893.69063
  21604052.7234    4856866.54846   3789719.59361
 91  5 13 21  7 29.9960000  0  3G 2G 6G19
  19686369.4104  -22126123.40648 -17199300.11463
  20411479.0664  -20164440.75447 -13339404.16863
  21609019.3244    4882971.75246   3810061.27561
 91  5 13 21  7 44.9960000  0  3G 2G 6G19
  19684700.2234  -22134890.35848 -17206131.49763
  20405746.7854  -20194568.63847 -13362880.40863
  21613997.738     4909144.602 6   3830455.65721
 91  5 13 21  7 59.9960000  0  3G 2G 6G19
  19683045.5124  -22143588.75748 -17212909.46063
  20400020.2544  -20224657.61947 -13386326.33263
  21618995.2544    4935379.87246   3850898.68561
 91  5 13 21  8 14.9960000  0  3G 2G 6G19
  19681402.4654  -22152220.31548 -17219635.35463
  20394303.0354  -20254709.25647 -13409743.16163
  21623996.4344    4961675.63346   3871388.85761
 91  5 13 21  8 29.9960000  0  3G 2G 6G19
  19679774.6294  -22160778.50448 -17226304.06563
  20388592.6604  -20284716.78247 -13433125.62063
  21629013.051     4988038.605 6   3891931.41121
 91  5 13 21  8 44.9960000  0  3G 2G 6G19
  19678159.1604  -22169267.50048 -17232918.86263
  20382889.4654  -20314684.12447 -13456476.76363
  21634041.754     5014464.574 6   3912523.02921
 91  5 13 21  8 59.9960000  0  3G 2G 6G19
  19676555.9344  -22177688.65548 -17239480.79363
  20377194.3714  -20344612.56847 -13479797.59463
  21639086.621     5040952.508 6   3933162.92921
 91  5 13 21  9 14.9960000  0  3G 2G 6G19
  19674966.2934  -22186044.45848 -17245991.79963
  20371506.2464  -20374504.07447 -13503089.64663
  21644133.1374    5067499.95846   3953849.22361
 91  5 13 21  9 29.9960000  0  3G 2G 6G19
  19673390.5274  -22194330.07348 -17252448.11263
  20365827.2464  -20404353.51847 -13526348.92663
  21649202.7154    5094111.69246   3974585.60561
 91  5 13 21  9 44.9960000  0  3G 2G 6G19
  19671825.0594  -22202546.98248 -17258850.89563
  20360153.9024  -20434162.23447 -13549576.46663
  21654272.676     5120786.389 6   3995371.03621
 91  5 13 21  9 59.9960000  0  3G 2G 6G19
  19670275.4104  -22210693.69848 -17265198.97563
  20354490.645   -20463928.491 7 -13572770.92123
  21659362.918     5147525.471 6   4016206.63621
 91  5 13 21 10 14.9960000  0  3G 2G 6G19
  19668738.9264  -22218770.62648 -17271492.68163
  20348833.1914  -20493652.36747 -13595932.35763
  21664462.3874    5174328.66346   4037092.20661
 91  5 13 21 10 29.9960000  0  3G 2G 6G19
  19667214.8484  -22226780.53548 -17277734.16163
  20343184.9574  -20523336.49847 -13619062.81463
  21669577.770     5201193.196 6   4058025.57021
 91  5 13 21 10 44.9960000  0  3G 2G 6G19
  19665703.0824  -22234719.25648 -17283920.16863
  20337543.1764  -20552976.33647 -13642158.76063
  21674700.418     5228123.221 6   4079009.95521
 91  5 13 21 10 59.9960000  0  3G 2G 6G19
  19664206.9814  -22242588.75248 -17290052.23163
  20331911.9024  -20582573.69347 -13665221.60763
  21679838.191     5255117.202 6   4100044.17521
 91  5 13 21 11 14.9960000  0  3G 2G 6G19
  19662721.7934  -22250387.83648 -17296129.43563
  20326288.5664  -20612126.96347 -13688250.10063
  21684984.879     5282176.217 6   4121129.08321
 91  5 13 21 11 29.9960000  0  3G 2G 6G19
  19661251.2934  -22258119.86548 -17302154.38063
  20320670.8164  -20641639.45247 -13711246.81763
  21690147.6294    5309296.86946   4142262.01761
 91  5 13 21 11 44.9960000  0  3G 2G 6G19
  19659791.7384  -22265782.79948 -17308125.49263
  20315064.324   -20671108.664 7 -13734209.81423
  21695320.0434    5336481.38246   4163444.73561
 91  5 13 21 11 59.9960000  0  3G 2G 6G19
  19658346.3634  -22273378.72448 -17314044.38463
  20309463.910   -20700536.565 7 -13757140.62523
  21700503.5594    5363727.74545   4184675.63561
 91  5 13 21 12 14.9960000  0  3G 2G 6G19
  19656914.4024  -22280903.84748 -17319908.11363
  20303872.2854  -20729919.00447 -13780036.00463
  21705702.0984    5391039.88546   4205957.76961
 91  5 13 21 12 29.9960000  0  3G 2G 6G19
  19655496.3954  -22288360.73548 -17325718.66963
  20298288.5744  -20759258.23347 -13802897.71563
  21710912.2074    5418415.20046   4227289.15061
 91  5 13 21 12 44.9960000  0  4G13G 2G 6G19
  23020001.4264         -0.01554
  19654091.160   -22295747.539 8 -17331474.60823
  20292713.6374  -20788552.45147 -13825724.35163
  21716132.8714    5445855.33846   4248671.04661
 91  5 13 21 12 59.9960000  0  4G13G 2G 6G19
  23007134.762      -67606.095 4
  19652697.4964  -22303066.16248 -17337177.42363
  20287148.879   -20817803.167 7 -13848517.09223
  21721365.9964    5473358.61746   4270102.13261
 91  5 13 21 13 14.9960000  0  4G13G 2G 6G19
  22994273.9184    -135182.77144
  19651318.6914  -22310314.33648 -17342825.33963
  20281593.106   -20847007.910 7 -13871274.00723
  21726612.0664    5500927.46346   4291584.32161
 91  5 13 21 13 29.9960000  0  4G13G 2G 6G19
  22981426.481     -202731.959 4        -0.28531
  19649952.3714  -22317494.24048 -17348420.06063
  20276041.691   -20876168.391 7 -13893996.43923
  21731872.660     5528559.647 6   4313115.84721
 91  5 13 21 13 44.9960000  0  4G13G 2G 6G19
  22968576.7074    -270252.02744    -52613.08461
  19648598.3564  -22324605.01648 -17353960.91863
  20270502.3324  -20905283.63347 -13916683.61363
  21737143.223     5556256.198 6   4334697.52021
 91  5 13 21 13 59.9960000  0  4G13G 2G 6G19
  22955734.7314    -337742.39144   -105202.80161
  19647258.3714  -22331646.59248 -17359447.85063
  20264970.395   -20934353.254 7 -13939335.24223
  21742425.184     5584017.279 6   4356329.50821
 91  5 13 21 14 14.9960000  0  4G13G 2G 6G19
  22942898.387     -405202.131 4   -157768.52921
  19645932.1764  -22338618.55348 -17364880.54163
  20259445.981   -20963376.419 7 -13961950.68323
  21747718.6064    5611843.45146   4378012.21061
 91  5 13 21 14 29.9960000  0  4G13G 2G 6G19
  22930057.9494    -472627.36643   -210307.52861
  19644620.5044  -22345517.37648 -17370256.23763
  20253933.3634  -20992349.44547 -13984527.03863
  21753025.7074    5639737.90646   4399748.12061
 91  5 13 21 14 44.9960000  0  4G13G 2G 6G19
  22917238.5044    -540024.69644   -262824.69861
  19643319.3954  -22352349.94948 -17375580.30663
  20248427.832   -21021279.145 7 -14007069.64123
  21758347.270     5667693.908 6   4421531.98021
 91  5 13 21 14 59.9960000  0  4G13G 2G 6G19
  22904422.629     -607390.482 4   -315317.20921
  19642032.3404  -22359113.22348 -17380850.38263
  20242930.621   -21050162.093 7 -14029575.80823
  21763678.402     5695714.708 6   4443366.31721
 91  5 13 21 15 14.9960000  0  4G13G 2G 6G19
  22891606.215     -674727.883 4   -367787.76021
  19640757.606   -22365810.689 8 -17386069.17323
  20237443.949   -21079001.403 7 -14052047.97523
  21769023.6064    5723796.84646   4465248.45861
 91  5 13 21 15 29.9960000  0  4G13G 2G 6G19
  22878793.2314    -742038.34143   -420237.25161
  19639493.4814  -22372444.73348 -17391238.54563
  20231964.199   -21107799.228 7 -14074487.82223
  21774380.2234    5751937.87745   4487176.50061
 91  5 13 21 15 44.9960000  0  4G13G 2G 6G19
  22865990.3564    -809317.90044   -472662.64161
  19638244.8564  -22379011.53848 -17396355.52963
  20226492.520   -21136551.550 7 -14096892.21223
  21779744.3484    5780141.84845   4509153.58161
 91  5 13 21 15 59.9960000  0  4G13G 2G 6G19
  22853192.5124    -876564.58444   -525062.44161
  19637009.1994  -22385509.69948 -17401419.02263
  20221031.262   -21165256.682 7 -14119259.82623
  21785125.910     5808410.107 5   4531180.74221
 91  5 13 21 16 14.9960000  0  4G13G 2G 6G19
  22840405.152     -943783.791 5   -577440.84021
  19635785.3564  -22391945.19748 -17406433.68563
  20215575.324   -21193920.131 7 -14141594.95823
  21790516.0904    5836737.02545   4553253.60161
 91  5 13 21 16 29.9960000  0  4G13G 2G 6G19
  22827621.1214   -1010974.65144   -629797.13161
  19634571.004   -22398317.712 8 -17411399.27223
  20210128.902   -21222541.448 7 -14163897.26523
  21795918.106     5865122.658 5   4575372.22221
 91  5 13 21 16 44.9960000  0  4G13G 2G 6G19
  22814842.4024   -1078134.91545   -682129.62261
  19633371.527   -22404625.403 8 -17416314.34423
  20204690.574   -21251118.465 7 -14186165.05223
  21801328.2704    5893568.93945   4597538.12461
 91  5 13 21 16 59.9960000  0  4G13G 2G 6G19
  22802066.051    -1145263.013 5   -734437.03521
  19632184.0204  -22410866.82848 -17421177.78163
  20199261.598   -21279649.653 7 -14208397.12523
  21806757.0824    5922077.27745   4619752.38961
 91  5 13 21 17 14.9960000  0  4G13G 2G 6G19
  22789298.3484   -1212358.54545   -786719.05161
  19631008.6994  -22417042.27348 -17425989.80863
  20193839.371   -21308135.051 7 -14230593.51523
  21812191.066     5950647.332 6   4642014.74021
 91  5 13 21 17 29.9960000  0  4G13G 2G 6G19
  22776531.676    -1279421.847 4   -838975.97521
  19629845.6524  -22423152.57748 -17430751.07363
  20188428.801   -21336575.051 7 -14252754.53223
  21817642.223     5979278.584 6   4664324.78121
 91  5 13 21 17 44.9960000  0  4G13G 2G 6G19
  22763777.316    -1346454.565 4   -891209.06521
  19628694.8634  -22429199.73248 -17435463.13763
  20183025.316   -21364971.499 7 -14274881.61923
  21823099.8794    6007969.18545   4686681.08261
 91  5 13 21 17 59.9960000  0  4G13G 2G 6G19
  22751028.5044   -1413454.97944   -943417.00661
  19627555.8164  -22435182.52548 -17440125.03963
  20177631.152   -21393322.721 7 -14296973.45923
  21828573.4574    6036720.33745   4709084.58561
 91  5 13 21 18 14.9960000  0  4G13G 2G 6G19
  22738283.4884   -1480420.25444   -995597.50161
  19626430.2074  -22441098.70748 -17444735.04363
  20172243.926   -21421626.468 7 -14319028.30123
  21834053.848     6065534.123 5   4731536.86421
 91  5 13 21 18 29.9960000  0  4G13G 2G 6G19
  22725549.4814   -1547350.61945  -1047750.83061
  19625317.3324  -22446948.79048 -17449293.53963
  20166867.762   -21449882.897 7 -14341046.27423
  21839546.191     6094410.193 5   4754037.64621
 91  5 13 21 18 44.9960000  0  4G13G 2G 6G19
  22712819.2464   -1614250.55145
  19624216.1994  -22452737.91848 -17453804.54263
  20161497.676   -21478096.731 7 -14363031.05523
  21845055.379     6123343.734 5   4776583.23021
 91  5 13 21 18 59.9960000  0  4G13G 2G 6G19
  22700087.8014   -1681115.31143
  19623126.3564  -22458461.94048 -17458264.80663
  20156139.684   -21506263.622 7 -14384979.25623
  21850574.8404    6152338.81446   4799176.78061
 91  5 13 21 19 14.9960000  0  4G13G 2G 6G19
  22687375.9814   -1747944.92044
  19622050.418   -22464121.059 8 -17462674.49823
  20150787.582   -21534383.613 7 -14406890.91523
  21856104.4024    6181394.94645   4821817.88461
 91  5 13 21 19 29.9960000  0  4G13G 2G 6G19
  22674666.8714   -1814741.82745        -0.31371
  19620984.9184  -22469718.39348 -17467036.04763
  20145443.965   -21562459.432 7 -14428768.15523
  21861643.488     6210509.276 5   4844504.35121
 91  5 13 21 19 44.9960000  0  4G13G 2G 6G19
  22661961.473    -1881503.566 5
  19619931.8794  -22475251.91548 -17471347.87063
  20140110.504   -21590488.837 7 -14450609.22223
  21867194.816     6239683.871 5   4867237.77621
 91  5 13 21 19 59.9960000  0  4G13G 2G 6G19
  22649262.8714   -1948230.86344
  19618890.9264  -22480722.76848 -17475610.86863
  20134785.6844  -21618472.67647 -14472414.78263
  21872757.277     6268917.569 5   4890017.26021
 91  5 13 21 20 14.9960000  0  4G13G 2G 6G19
  22636567.5124   -2014922.08944        -0.39171
  19617861.5124  -22486129.88248 -17479824.19263
  20129469.574   -21646409.519 7 -14494183.73123
  21878329.848     6298211.705 5   4912843.82521
 91  5 13 21 20 29.9960000  0  4G13G 2G 6G19
  22623887.277    -2081576.082 4    -51938.33921
  19616845.7854  -22491472.74348 -17483987.45763
  20124162.191   -21674298.450 7 -14515915.33723
  21883921.8794    6327566.73545   4935717.86961
 91  5 13 21 20 44.9960000  0  4G13G 2G 6G19
  22611209.8404   -2148193.76144   -103848.04061
  19615841.2544  -22496752.58448 -17488101.61063
  20118864.4734  -21702140.65247 -14537610.53163
  21889514.645     6356981.288 5   4958638.27121
 91  5 13 21 20 59.9960000  0  4G13G 2G 6G19
  22598535.4264   -2214774.66843   -155729.08161
  19614848.1134  -22501969.24848 -17492166.53263
  20113575.1134  -21729935.66247 -14559268.94763
  21895124.0204    6386455.60745   4981605.21161
 91  5 13 21 21 14.9960000  0  4G13G 2G 6G19
  22585875.8874   -2281316.66044   -207579.80561
  19613867.9574  -22507121.20648 -17496181.03263
  20108294.3714  -21757681.59447 -14580889.12363
  21900744.770     6415991.402 5   5004620.05921
 91  5 13 21 21 29.9960000  0  4G13G 2G 6G19
  22573217.8014   -2347823.04244   -259402.76361
  19612897.8484  -22512212.43748 -17500148.22063
  20103023.6684  -21785382.09747 -14602473.89863
  21906380.3404    6445584.89945   5027679.94761
 91  5 13 21 21 44.9960000  0  4G13G 2G 6G19
  22560575.2774   -2414288.83845   -311194.08661
  19611941.9024  -22517238.36348 -17504064.51663
  20097762.262   -21813032.387 7 -14624019.55123
  21912017.5594    6475240.62745   5050788.33361
 91  5 13 21 21 59.9960000  0  4G13G 2G 6G19
  22547938.5984   -2480711.67445   -362951.90761
  19610997.6764  -22522197.10948 -17507928.46563
  20092510.9734  -21840630.29347 -14645524.38263
  21917679.160     6504960.213 5   5073946.38321
 91  5 13 21 22 14.9960000  0  4G13G 2G 6G19
  22535304.309    -2547091.839 5   -414676.53521
  19610067.1294  -22527089.17348 -17511740.45663
  20087269.0204  -21868176.17347 -14666988.66763
  21923341.7624    6534743.28145   5097153.92461
 91  5 13 21 22 29.9960000  0  4G13G 2G 6G19
  22522680.6454   -2613436.61245   -466373.59761
  19609146.1134  -22531922.58748 -17515506.74663
  20082035.7624  -21895677.73447 -14688418.42863
  21929020.6134    6564581.97845   5120404.83561
 91  5 13 21 22 44.9960000  0  4G13G 2G 6G19
  22510063.285    -2679743.339 5   -518040.96021
  19608239.3874  -22536695.02448 -17519225.52363
  20076810.4414  -21923132.38247 -14709811.62463
  21934709.231     6594478.470 5   5143700.73621
 91  5 13 21 22 59.9960000  0  4G13G 2G 6G19
  22497450.8244   -2746013.99145   -569680.27561
  19607341.4414  -22541409.05248 -17522898.78563
  20071594.5664  -21950542.43447 -14731170.07263
  21940410.5204    6624430.20545   5167039.71061
 91  5 13 21 23 14.9960000  0  4G13G 2G 6G19
  22484848.191    -2812246.133 5   -621289.55221
  19606455.7854  -22546062.81748 -17526525.08963
  20066387.2384  -21977905.64847 -14752492.02863
  21946119.738     6654439.247 5   5190423.33021
 91  5 13 21 23 29.9960000  0  4G13G 2G 6G19
  22472248.879    -2878438.764 5   -672868.05221
  19605582.7934  -22550655.71248 -17530103.96663
  20061189.9494  -22005221.11847 -14773776.77863
  21951841.770     6684506.227 5   5213852.08321
 91  5 13 21 23 44.9960000  0  4G13G 2G 6G19
  22459657.8874   -2944592.59145   -724416.27861
  19604720.1214  -22555188.75848 -17533636.20563
  20056000.5514  -22032489.58547 -14795024.90463
  21957571.9964    6714630.37745   5237325.42661
 91  5 13 21 23 59.9960000  0  4G13G 2G 6G19
  22447077.0434   -3010702.50345   -775930.30561
  19603870.7384  -22559657.33648 -17537118.20463
  20050819.4734  -22059706.18447 -14816232.61763
  21963317.879     6744816.100 5   5260846.71221
 91  5 13 21 24 14.9960000  0  4G13G 2G 6G19
  22434508.5514   -3076773.26445   -827413.84861
  19603030.7704  -22564066.65048 -17540554.02963
  20045651.3874  -22086875.79847 -14837403.71263
  21969075.9814    6775058.27845   5284411.97961
 91  5 13 21 24 29.9960000  0  4G13G 2G 6G19
  22421940.3404   -3142799.60145   -878862.77761
  19602203.6684  -22568411.89548 -17543939.92963
  20040490.9734  -22113993.52447 -14858534.36963
  21974841.137     6805361.688 5   5308025.00221
 91  5 13 21 24 44.9960000  0  4G13G 2G 6G19
  22409381.8634   -3208784.09245   -930279.07761
  19601386.9884  -22572696.21448 -17547278.34863
  20035340.5124  -22141062.03047 -14879626.68563
  21980613.996     6835723.415 5   5331683.44821
 91  5 13 21 24 59.9960000  0  4G13G 2G 6G19
  22396835.606    -3274726.109 5   -981662.34221
  19600585.7074  -22576919.59048 -17550569.28563
  20030197.7704  -22168080.96847 -14900680.37463
  21986406.793     6866143.478 5   5355387.37221
 91  5 13 21 25 14.9960000  0  4G13G 2G 6G19
  22384300.7854   -3340624.22145  -1033011.33861
  19599794.0594  -22581080.87048 -17553811.82963
  20025066.3714  -22195049.13747 -14921694.50663
  21992205.902     6896622.783 5   5379137.47221
 91  5 13 21 25 29.9960000  0  4G13G 2G 6G19
  22371766.4104   -3406478.49245  -1084326.17461
  19599013.5514  -22585180.76648 -17557006.54563
  20019944.574   -22221966.763 7 -14942669.25223
  21998020.449     6927160.865 5   5402933.31221
 91  5 13 21 25 44.9960000  0  4G13G 2G 6G19
  22359237.660    -3472289.578 5  -1135607.41721
  19598243.0824  -22589220.30348 -17560154.22663
  20014831.8164  -22248834.62747 -14963605.22263
  22003839.410     6957756.668 5   5426774.14121
 91  5 13 21 25 59.9960000  0  4G13G 2G 6G19
  22346725.1684   -3538060.14945  -1186857.03261
  19597484.981   -22593202.396 8 -17563257.14723
  20009728.9814  -22275655.38347 -14984504.48063
  22009671.9654    6988407.30045   5450657.69761
 91  5 13 21 26 14.9960000  0  4G13G 2G 6G19
  22334216.449    -3603792.196 5  -1238076.65221
  19596738.074   -22597129.530 8 -17566317.23623
  20004633.9344  -22302431.31947 -15005368.81863
  22015513.1764    7019110.47645   5474582.20261
 91  5 13 21 26 29.9960000  0  4G13G 2G 6G19
  22321720.8564   -3669480.99745  -1289262.55661
  19596002.4414  -22600997.67848 -17569331.37063
  19999546.4414  -22329158.19147 -15026194.92563
  22021365.113     7049870.069 5   5498550.66221
 91  5 13 21 26 44.9960000  0  4G13G 2G 6G19
  22309223.2624   -3735121.75145  -1340411.04961
  19595278.2624  -22604802.79948 -17572296.39163
  19994470.059   -22355831.492 7 -15046979.28623
  22027228.4494    7080690.36645   5522566.48561
 91  5 13 21 26 59.9960000  0  4G13G 2G 6G19
  22296738.2934   -3800717.78545  -1391524.70161
  19594566.1914  -22608548.42148 -17575215.04863
  19989403.6454  -22382454.27947 -15067724.28763
  22033105.7854    7111567.72345   5546626.74461
 91  5 13 21 27 14.9960000  0  4G13G 2G 6G19
  22284274.598    -3866268.382 5  -1442602.92421
  19593863.9884  -22612234.25648 -17578087.11863
  19984348.6374  -22409026.14347 -15088429.60563
  22038994.2774    7142502.42145   5570731.62361
 91  5 13 21 27 29.9960000  0  4G13G 2G 6G19
  22271798.871    -3931770.417 4  -1493643.31021
  19593175.262   -22615857.491 8 -17580910.40724
  19979301.379   -22435544.146 7 -15109092.96223
  22044892.3714    7173497.20445   5594883.36261
 91  5 13 21 27 44.9960000  0  4G13G 2G 6G19
  22259349.645    -3997225.119 5  -1544646.79721
  19592497.0984  -22619420.22348 -17583686.54863
  19974265.629   -22462010.129 7 -15129715.78223
  22050799.3404    7204550.06045   5619080.40961
 91  5 13 21 27 59.9960000  0  4G13G 2G 6G19
  22246901.5824   -4062632.68345  -1595613.61161
  19591829.2314  -22622922.78248 -17586415.80863
  19969238.504   -22488423.969 7 -15150297.97223
  22056723.9494    7235660.75745   5643322.47561
 91  5 13 21 28 14.9960000  0  4G13G 2G 6G19
  22234464.4414   -4127994.04945  -1646544.34561
  19591175.3244  -22626366.60048 -17589099.29263
  19964222.004   -22514786.827 7 -15170840.43323
  22062655.465     7266827.844 5   5667608.45721
 91  5 13 21 28 29.9960000  0  4G13G 2G 6G19
  22222036.9654   -4193303.93645  -1697435.03961
  19590533.184   -22629747.052 8 -17591733.39823
  19959216.770   -22541093.864 7 -15191339.40723
  22068598.2774    7298055.88245   5691941.96761
 91  5 13 21 28 44.9960000  0  4G13G 2G 6G19
  22209613.926    -4258565.266 5  -1748287.87521
  19589899.879   -22633067.385 8 -17594320.65723
  19954221.160   -22567348.020 7 -15211797.16523
  22074548.215     7329341.796 5   5716320.56821
 91  5 13 21 28 59.9960000  0  4G13G 2G 6G19
  22197208.6604   -4323777.65645  -1799102.57761
  19589279.949   -22636327.812 8 -17596861.24223
  19949233.934   -22593549.202 7 -15232213.65223
  22080516.512     7360685.371 5   5740744.09921
 91  5 13 21 29 14.9960000  0  5G13G 2G15G 6G19
  22184805.137    -4388936.610 5  -1849875.63821
  19588670.5664  -22639524.58448 -17599352.22063
  23071018.6914         -0.50455
  19944258.988   -22619693.367 7 -15252585.70523
  22086490.3954    7392090.53545   5765215.60961
 91  5 13 21 29 29.9960000  0  5G13G 2G15G 6G19
  22172417.4734   -4454042.57445  -1900607.42861
  19588074.1604  -22642658.23848 -17601794.01963
  23066066.6454     -26026.34945
  19939294.332   -22645780.637 7 -15272913.43023
  22092480.1294    7423556.75745   5789734.70561
 91  5 13 21 29 44.9960000  0  5G13G 2G15G 6G19
  22160035.3404   -4519102.14845  -1951303.05161
  19587488.0744  -22645735.73348 -17604192.05864
  23061131.7154     -51948.58145
  19934339.988   -22671817.767 7 -15293202.08423
  22098474.207     7455076.964 5   5814295.90621
 91  5 13 21 29 59.9960000  0  5G13G 2G15G 6G19
  22147667.863    -4584111.989 5  -2001959.90221
  19586915.590   -22648754.157 8 -17606544.06523
  23056219.8874     -77764.60345
  19929395.590   -22697801.642 7 -15313449.23523
  22104485.441     7486654.191 5   5838901.58221
 91  5 13 21 30 14.9960000  0  5G13G 2G15G 6G19
  22135302.2774   -4649067.72145  -2052574.61361
  19586351.8164  -22651709.89348 -17608847.22663
  23051331.7854    -103469.73445
  19924461.981   -22723728.377 7 -15333651.86323
  22110509.606     7518291.864 5   5863554.28121
 91  5 13 21 30 29.9960000  0  5G13G 2G15G 6G19
  22122954.863    -4713972.940 5  -2103149.97221
  19585800.7464  -22654607.01348 -17611104.71463
  23046464.301     -129067.958 5        -0.01631
  19919537.598   -22749601.764 7 -15353812.92323
  22116542.566     7549985.906 5   5888250.91421
 91  5 13 21 30 44.9960000  0  5G13G 2G15G 6G19
  22110613.152    -4778828.643 5  -2153686.73121
  19585260.7154  -22657446.90448 -17613317.60763
  23041611.027     -154560.407 5    -19864.21221
  19914624.9104  -22775422.80847 -15373933.18663
  22122578.184     7581735.032 5   5912990.46121
 91  5 13 21 30 59.9960000  0  5G13G 2G15G 6G19
  22098279.551    -4843630.499 5  -2204181.53721
  19584731.4024  -22660225.56548 -17615482.78863
  23036778.543     -179942.430 5    -39642.37321
  19909722.457   -22801187.270 7 -15394009.36923
  22128628.6684    7613543.46345   5937776.23361
 91  5 13 21 31 14.9960000  0  5G13G 2G15G 6G19
  22085960.8244   -4908379.61845  -2254635.24261
  19584214.027   -22662944.664 8 -17617601.55223
  23031967.9344    -205215.29345    -59335.47461
  19904829.020   -22826896.436 7 -15414042.46723
  22134693.9264    7645409.41045   5962606.80461
 91  5 13 21 31 29.9960000  0  5G13G 2G15G 6G19
  22073651.4814   -4973075.62145  -2305047.58161
  19583709.1374  -22665604.36648 -17619674.03863
  23027179.3564    -230378.95745    -78943.51361
  19899947.566   -22852550.194 7 -15434032.38423
  22140772.9884    7677332.68645   5987482.04061
 91  5 13 21 31 44.9960000  0  5G13G 2G15G 6G19
  22061346.981    -5037714.102 5  -2355415.06721
  19583215.7624  -22668200.83848 -17621697.25563
  23022412.160     -255429.146 5    -98463.09121
  19895077.074   -22878144.425 7 -15453975.92123
  22146856.5434    7709317.35145   6012405.15961
 91  5 13 21 31 59.9960000  0  5G13G 2G15G 6G19
  22049056.152    -5102297.871 5  -2405739.93721
  19582733.1454  -22670737.22448 -17623673.64963
  23017667.152     -280368.785 5   -117896.51821
  19890217.2384  -22903682.13447 -15473875.40663
  22152956.3634    7741359.80845   6037373.26661
 91  5 13 21 32 14.9960000  0  5G13G 2G15G 6G19
  22036782.504    -5166827.180 5  -2456022.36621
  19582260.1914  -22673214.24448 -17625603.78563
  23012942.512     -305198.227 5   -137244.11221
  19885367.332   -22929163.691 7 -15493731.13923
  22159061.645     7773459.611 5   6062386.00621
 91  5 13 21 32 29.9960000  0  5G13G 2G15G 6G19
  22024514.2314   -5231301.01645  -2506261.58961
  19581800.2314  -22675631.34648 -17627487.23163
  23008237.371     -329916.371 5   -156504.95921
  19880530.059   -22954588.180 7 -15513542.41323
  22165184.660     7805617.672 5   6087444.20521
 91  5 13 21 32 44.9960000  0  5G13G 2G15G 6G19
  22012248.6524   -5295719.01445  -2556457.27661
  19581353.2854  -22677988.57948 -17629324.02863
  23003555.6294    -354522.96145   -175678.89161
  19875702.082   -22979955.342 7 -15533309.00623
  22171309.863     7837833.758 5   6112547.65221
 91  5 13 21 32 59.9960000  0  5G13G 2G15G 6G19
  21999999.559    -5360083.725 5  -2606611.45421
  19580915.1134  -22680289.16248 -17631116.68363
  22998892.129     -379020.818 5   -194768.07921
  19870887.207   -23005268.099 7 -15553033.20823
  22177456.6914    7870104.58845   6137693.72161
 91  5 13 21 33 14.9960000  0  5G13G 2G15G 6G19
  21987761.449    -5424391.737 5  -2656721.43021
  19580486.6604  -22682530.00448 -17632862.78363
  22994252.1524    -403406.53145   -213769.90261
  19866079.887   -23030522.982 7 -15572712.31423
  22183605.4734    7902433.41145   6162885.01161
 91  5 13 21 33 29.9960000  0  5G13G 2G15G 6G19
  21975538.9814   -5488642.21845  -2706786.59261
  19580072.3564  -22684710.58248 -17634561.92863
  22989636.246     -427679.380 5   -232683.77821
  19861286.895   -23055719.509 7 -15592345.94823
  22189768.504     7934820.491 5   6188121.66221
 91  5 13 21 33 44.9960000  0  5G13G 2G15G 6G19
  21963325.145    -5552835.092 5  -2756806.87721
  19579669.3564  -22686831.45448 -17636214.54764
  22985035.504     -451839.710 5   -251509.98121
  19856502.848   -23080857.745 7 -15611934.16323
  22195942.8094    7967265.08845   6213403.09961
 91  5 13 21 33 59.9960000  0  5G13G 2G15G 6G19
  21951121.0904   -5616969.56945  -2806781.64061
  19579276.0594  -22688892.39648 -17637820.46963
  22980461.8484    -475886.75045   -270247.89961
  19851730.6994  -23105937.19547 -15631476.56063
  22202130.231     7999767.658 5   6238729.74821
 91  5 13 21 34 14.9960000  0  5G13G 2G15G 6G19
  21938926.770    -5681045.187 5  -2856710.55421
  19578896.7704  -22690893.24448 -17639379.56263
  22975906.4654    -499819.84345   -288897.01961
  19846969.613   -23130957.400 7 -15650972.80323
  22208323.5044    8032328.45245   6264101.77761
 91  5 13 21 34 29.9960000  0  5G13G 2G15G 6G19
  21926746.410    -5745065.861 5  -2906596.63721
  19578525.2624  -22692838.55648 -17640895.38163
  22971372.4964    -523643.24045   -307460.66361
  19842219.4574  -23155922.50847 -15670426.10363
  22214534.441     8064942.940 5   6289515.60521
 91  5 13 21 34 44.9960000  0  5G13G 2G15G 6G19
  21914572.1604   -5809032.25445  -2956440.42661
  19578165.1604  -22694729.21948 -17642368.61663
  22966861.535     -547357.553 5   -325939.27821
  19837477.137   -23180833.234 7 -15689837.03123
  22220748.738     8097610.423 5   6314970.77721
 91  5 13 21 34 59.9960000  0  5G13G 2G15G 6G19
  21902409.723    -5872939.510 5  -3006238.13121
  19577817.4884  -22696560.84948 -17643795.85963
  22962369.0204    -570958.33645   -344329.44061
  19832748.6134  -23205684.90047 -15709201.94163
  22226975.754     8130335.015 5   6340470.47821
 91  5 13 21 35 14.9960000  0  5G13G 2G15G 6G19
  21890259.8484   -5936786.49745  -3055988.87261
  19577480.2624  -22698333.03648 -17645176.76864
  22957901.512     -594444.586 5   -362630.39821
  19828030.809   -23230476.753 7 -15728520.24423
  22233210.5744    8163117.29345   6366015.02861
 91  5 13 21 35 29.9960000  0  5G13G 2G15G 6G19
  21878122.8794   -6000575.59145  -3105694.52861
  19577154.723   -22700048.527 8 -17646513.50124
  22953454.004     -617818.470 5   -380843.80121
  19823323.652   -23255211.218 7 -15747793.82823
  22239462.512     8195954.676 5   6391602.54521
 91  5 13 21 35 44.9960000  0  5G13G 2G15G 6G19
  21865994.1684   -6064304.13845  -3155352.99861
  19576838.9494  -22701704.89448 -17647804.16964
  22949026.5744    -641077.44145   -398967.66061
  19818627.715   -23279885.743 7 -15767020.71523
  22245720.488     8228849.309 5   6417234.74621
 91  5 13 21 35 59.9960000  0  5G13G 2G15G 6G19
  21853880.871    -6127971.376 5  -3204963.65521
  19576534.957   -22703301.991 8 -17649048.64524
  22944621.848     -664221.076 5   -417001.63821
  19813944.676   -23304499.788 7 -15786200.46723
  22251991.793     8261801.386 5   6442911.63521
 91  5 13 21 36 14.9960000  0  5G13G 2G15G 6G19
  21841773.7624   -6191581.15645  -3254529.59961
  19576241.6524  -22704844.12048 -17650250.30263
  22940236.957     -687253.226 5   -434948.73221
  19809270.184   -23329057.394 7 -15805336.24523
  22258271.285     8294806.677 5   6468630.04421
 91  5 13 21 36 29.9960000  0  5G13G 2G15G 6G19
  21829679.9734   -6255131.52645  -3304049.19461
  19575959.0744  -22706329.78848 -17651407.95363
  22935877.465     -710172.295 5   -452807.67921
  19804607.6064  -23353556.70847 -15824426.58863
  22264564.6764    8327866.58645   6494390.98261
 91  5 13 21 36 44.9960000  0  5G13G 2G15G 6G19
  21817601.207    -6318617.424 5  -3353518.58821
  19575688.2704  -22707754.63548 -17652518.21664
  22931538.7934    -732973.41845   -470574.73361
  19799957.074   -23377993.165 7 -15843467.96323
  22270866.8714    8360985.55045   6520197.89261
 91  5 13 21 36 59.9960000  0  5G13G 2G15G 6G19
  21805529.3874   -6382038.66145  -3402937.57461
  19575428.8404  -22709118.78948 -17653581.18364
  22927223.527     -755656.472 5   -488249.79221
  19795319.559   -23402366.606 7 -15862460.23223
  22277178.238     8394163.372 5   6546050.68921
 91  5 13 21 37 14.9960000  0  5G13G 2G15G 6G19
  21793471.051    -6445399.982 5  -3452309.89421
  19575178.5514  -22710427.48548 -17654600.93563
  22922930.0274    -778226.21745   -505836.59361
  19790693.137   -23426681.830 7 -15881407.13623
  22283502.1214    8427394.91645   6571945.33961
 91  5 13 21 37 29.9960000  0  5G13G 2G15G 6G19
  21781425.356    -6508701.444 5  -3501635.56621
  19574940.4494  -22711681.24148 -17655577.88463
  22918653.5984    -800682.83245   -523335.20961
  19786077.113   -23450939.131 7 -15900308.91223
  22289838.7704    8460679.65245   6597881.47161
 91  5 13 21 37 44.9960000  0  5G13G 2G15G 6G19
  21769392.3094   -6571942.36145  -3550914.04961
  19574711.4264  -22712879.77948 -17656511.80263
  22914401.277     -823025.496 5   -540745.05321
  19781473.457   -23475137.916 7 -15919165.08523
  22296182.309     8494017.824 5   6623859.31921
 91  5 13 21 37 59.9960000  0  5G13G 2G15G 6G19
  21757369.2854   -6635119.51445  -3600142.84761
  19574494.0354  -22714020.29648 -17657400.50563
  22910173.434     -845251.187 5   -558063.75921
  19776880.121   -23499275.079 7 -15937973.24123
  22302535.6844    8527412.12345   6649880.76461
 91  5 13 21 38 14.9960000  0  5G13G 2G15G 6G19
  21745357.4964   -6698240.01645  -3649327.51361
  19574288.0824  -22715110.42748 -17658249.95063
  22905965.9184    -867367.27645   -575297.02961
  19772296.879   -23523358.000 7 -15956739.13023
  22308900.176     8560855.208 5   6675940.23121
 91  5 13 21 38 29.9960000  0  5G13G 2G15G 6G19
  21733356.2934   -6761296.06945  -3698461.94061
  19574090.785   -22716142.746 8 -17659054.34323
  22901776.9024    -889366.26545   -592439.08261
  19767725.488   -23547379.007 7 -15975456.78523
  22315273.074     8594354.316 5   6702043.40121
 91  5 13 21 38 44.9960000  0  5G13G 2G15G 6G19
  21721370.824    -6824287.374 5  -3747545.93521
  19573905.0514  -22717117.31848 -17659813.74063
  22897614.785     -911247.994 5   -609489.71721
  19763166.9884  -23571337.92547 -15994126.04663
  22321661.0204    8627909.29645   6728190.13761
 91  5 13 21 38 59.9960000  0  5G13G 2G15G 6G19
  21709396.6374   -6887217.53845  -3796582.29061
  19573729.8244  -22718038.18148 -17660531.28664
  22893474.2074    -933016.04245   -626451.79261
  19758617.949   -23595238.591 7 -16012749.91123
  22328056.684     8661516.082 5   6754377.18821
 91  5 13 21 39 14.9960000  0  5G13G 2G15G 6G19
  21697431.7704   -6950083.26345  -3845568.41361
  19573566.8484  -22718902.62948 -17661204.87264
  22889351.676     -954667.350 5   -643322.90321
  19754082.457   -23619077.765 7 -16031325.87523
  22334462.3014    8695177.65545   6780606.97161
 91  5 13 21 39 29.9960000  0  5G13G 2G15G 6G19
  21685481.6454   -7012884.66745  -3894504.44261
  19573412.6914  -22719711.31548 -17661835.00864
  22885255.238     -976202.114 5   -660103.21321
  19749557.051   -23642855.810 7 -16049854.20523
  22340877.3564    8728893.31345   6806878.87461
 91  5 13 21 39 44.9960000  0  5G13G 2G15G 6G19
  21673543.8324   -7075622.57345  -3943390.98361
  19573269.6914  -22720465.41748 -17662422.61163
  22881178.0984    -997621.26545   -676793.41661
  19745042.715   -23666573.665 7 -16068335.63224
  22347301.4884    8762661.73845   6833191.92361
 91  5 13 21 39 59.9960000  0  5G13G 2G15G 6G19
  21661617.793    -7138296.219 5  -3992227.44621
  19573136.1214  -22721164.96248 -17662967.70864
  22877123.691    -1018924.412 5   -693393.24521
  19740541.012   -23690230.963 7 -16086769.86923
  22353737.301     8796483.026 5   6859546.16921
 91  5 13 21 40 14.9960000  0  5G13G 2G15G 6G19
  21649704.559    -7200904.944 5  -4041013.33221
  19573014.1374  -22721809.57548 -17663469.99464
  22873091.1294   -1040110.84545   -709902.11861
  19736051.043   -23713826.908 7 -16105156.29523
  22360187.645     8830357.419 5   6885941.73521
 91  5 13 21 40 29.9960000  0  5G13G 2G15G 6G19
  21637803.1524   -7263444.62646  -4089745.41261
  19572903.5594  -22722395.26348 -17663926.36764
  22869085.1454   -1061176.43045   -726316.81761
  19731573.473   -23737357.606 7 -16123491.88023
  22366644.3014    8864288.92945   6912381.82461
 91  5 13 21 40 44.9960000  0  5G13G 2G15G 6G19
  21625913.7854   -7325920.61846  -4138427.86061
  19572801.2154  -22722927.66748 -17664341.21564
  22865094.2074   -1082126.59045   -742641.59361
  19727108.1764  -23760828.37747 -16141780.76163
  22373107.988     8898271.878 5   6938862.01821
 91  5 13 21 40 59.9960000  0  5G13G 2G15G 6G19
  21614039.785    -7388327.387 6  -4187056.38321
  19572708.3714  -22723402.13448 -17664710.92263
  22861131.9264   -1102956.27145   -758872.48161
  19722653.918   -23784234.235 7 -16160019.06923
  22379586.176     8932310.902 5   6965385.92321
 91  5 13 21 41 14.9960000  0  5G13G 2G15G 6G19
  21602171.6994   -7450668.84645  -4235634.00561
  19572627.965   -22723823.264 8 -17665039.05923
  22857194.816    -1123669.526 5   -775012.64321
  19718211.434   -23807579.241 7 -16178209.95923
  22386071.7704    8966401.66745   6991950.08261
 91  5 13 21 41 29.9960000  0  5G13G 2G15G 6G19
  21590324.0594   -7512941.39346  -4284157.94061
  19572557.981   -22724187.833 8 -17665323.11724
  22853275.074    -1144262.832 5   -791059.34621
  19713780.035   -23830859.844 7 -16196350.66523
  22392568.691     9000547.277 5   7018557.01721
 91  5 13 21 41 44.9960000  0  5G13G 2G15G 6G19
  21578484.9814   -7575144.67945  -4332627.90261
  19572503.481   -22724495.689 8 -17665562.99723
  22849376.8014   -1164735.82545   -807012.27861
  19709362.801   -23854075.781 7 -16214440.98223
  22399079.098     9034747.803 5   7045206.75221
 91  5 13 21 41 59.9960000  0  5G13G 2G15G 6G19
  21566662.2704   -7637284.18946  -4381048.17561
  19572452.0434  -22724752.79448 -17665763.33063
  22845501.6064   -1185094.11545   -822875.84661
  19704957.145   -23877232.741 7 -16232485.34223
  22405600.3404    9068997.25445   7071894.62561
 91  5 13 21 42 14.9960000  0  5G13G 2G15G 6G19
  21554851.871    -7699351.884 5  -4429412.46021
  19572413.301   -22724951.530 8 -17665918.17624
  22841653.1374   -1205330.02145   -838644.04361
  19700562.699   -23900322.751 7 -16250477.53623
  22412126.926     9103303.201 5   7098626.51621
 91  5 13 21 42 29.9960000  0  5G13G 2G15G 6G19
  21543051.223    -7761350.501 5  -4477722.94721
  19572389.637   -22725095.063 8
  22837824.457    -1225446.173 5   -854318.93121
  19696180.4494  -23923348.81647 -16268419.89763
  22418665.645     9137662.370 5   7125399.87521
 91  5 13 21 42 44.9960000  0  5G13G 2G15G 6G19
  21531264.4414   -7823278.16145  -4525978.15761
  19572370.121   -22725182.075 8
  22834021.262    -1245441.092 5   -869899.37321
  19691811.223   -23946309.195 7 -16286311.08123
  22425212.066     9172076.183 5   7152215.81321
 91  5 13 21 42 59.9960000  0  5G13G 2G15G 6G19
  21519495.3954   -7885138.82546  -4574181.13061
  19572362.832   -22725216.896 8
  22830237.9964   -1265318.76045   -885388.41261
  19687454.543   -23969207.770 7 -16304154.10023
  22431773.5044    9206540.41745   7179071.03561
 91  5 13 21 43 14.9960000  0  5G13G 2G15G 6G19
  21507740.1524   -7946932.24846  -4622331.74961
  19572367.145   -22725199.824 8
  22826477.426    -1285079.065 5   -900786.01621
  19683108.8954  -23992044.59847 -16321949.00463
  22438336.9814    9241054.73945   7205965.27861
 91  5 13 21 43 29.9960000  0  5G13G 2G15G 6G19
  21495994.590    -8008650.989 6  -4670424.13621
  19572383.871   -22725123.968 8
  22822741.4344   -1304715.06545   -916086.77361
  19678775.6524  -24014812.77647 -16339690.41263
  22444914.6684    9275625.85245   7232903.76961
 91  5 13 21 43 44.9960000  0  5G13G 2G15G 6G19
  21484261.6994   -8070301.43746  -4718463.33161
  19572404.316   -22724996.091 8
  22819028.559    -1324233.146 5   -931295.64621
  19674454.4964  -24037518.62547 -16357383.24963
  22451504.5354    9310247.08545   7259881.33461
 91  5 13 21 43 59.9960000  0  5G13G 2G15G 6G19
  21472541.9734   -8131880.52846  -4766446.91061
  19572438.8874  -22724813.43548
  22815336.5274   -1343630.35345   -946410.33161
  19670145.926   -24060159.161 7 -16375025.20023
  22458102.504     9344921.116 5   7286900.01621
 91  5 13 21 44 14.9960000  0  5G13G 2G15G 6G19
  21460837.5274   -8193384.46546  -4814371.96161
  19572485.793   -22724572.680 8
  22811665.613    -1362902.885 5   -961427.85121
  19665852.8714  -24082730.54947 -16392613.27063
  22464712.0744    9379651.46545   7313962.58861
 91  5 13 21 44 29.9960000  0  5G13G 2G15G 6G19
  21449148.4574   -8254816.49746  -4862240.95561
  19572543.731   -22724277.696 8 -17665392.99424
  22808020.6604   -1382054.21845   -976350.92461
  19661568.1914  -24105236.44247 -16410150.30063
  22471332.7074    9414434.17545   7341066.00961
 91  5 13 21 44 44.9960000  0  5G13G 2G15G 6G19
  21437471.4734   -8316172.29746  -4910050.54861
  19572612.0124  -22723924.42748 -17665117.71164
  22804401.020    -1401080.021 5   -991176.17721
  19657299.871   -24127672.596 7 -16427632.99723
  22477962.371     9449273.073 5   7368213.18021
 91  5 13 21 44 59.9960000  0  5G13G 2G15G 6G19
  21425809.137    -8377455.852 6  -4957803.85421
  19572689.059   -22723517.543 8 -17664800.64824
  22800805.371    -1419984.743 5  -1005907.07221
  19653040.9734  -24150043.23547 -16445064.63763
  22484603.270     9484163.586 5   7395400.59121
 91  5 13 21 45 14.9960000  0  5G13G 2G15G 6G19
  21414165.0664   -8438665.15246  -5005499.29361
  19572774.1454  -22723055.34448 -17664440.48264
  22797228.8634   -1438766.21445  -1020541.95461
  19648798.0594  -24172346.42047 -16462443.71463
  22491248.9344    9519107.46445   7422629.57961
 91  5 13 21 45 29.9960000  0  5G13G 2G15G 6G19
  21402528.965    -8499798.918 6  -5053135.88721
  19572873.965   -22722536.971 8 -17664036.54424
  22793678.777    -1457423.395 5  -1035079.97421
  19644566.3404  -24194580.97847 -16479769.31363
  22497914.004     9554105.658 4   7449900.89021
 91  5 13 21 45 44.9960000  0  5G13G 2G15G 6G19
  21390908.1764   -8560858.05746  -5100714.32361
  19572984.184   -22721963.702 8 -17663589.83224
  22790153.934    -1475957.415 5  -1049522.04921
  19640348.3484  -24216747.92647 -16497042.22763
  22504575.2154    9589156.70945   7477213.41661
 91  5 13 21 45 59.9960000  0  5G13G 2G15G 6G19
  21379301.371    -8621843.472 6  -5148235.30721
  19573100.223   -22721336.861 8 -17663101.36824
  22786649.184    -1494369.322 5  -1063868.97021
  19636144.184   -24238848.389 7 -16514263.34623
  22511260.9414    9624259.21945   7504566.00261
 91  5 13 21 46 14.9960000  0  5G13G 2G15G 6G19
  21367713.4184   -8682754.68846  -5195698.48161
  19573233.0984  -22720656.75048 -17662571.40664
  22783170.5204   -1512658.87245  -1078120.54461
  19631949.160   -24260882.128 7 -16531432.46723
  22517950.8954    9659412.97045   7531958.54961
 91  5 13 21 46 29.9960000  0  5G13G 2G15G 6G19
  21356136.4264   -8743592.26146  -5243104.27861
  19573370.527   -22719924.219 8 -17662000.58924
  22779710.0044   -1530827.15145  -1092277.61561
  19627769.941   -24282849.926 7 -16548550.20523
  22524652.4884    9694616.94745   7559390.20861
 91  5 13 21 46 44.9960000  0  5G13G 2G15G 6G19
  21344575.676    -8804356.677 6  -5290453.06521
  19573521.1764  -22719139.75248 -17661389.30864
  22776277.926    -1548874.410 5  -1106340.39721
  19623601.6134  -24304752.17147 -16565616.86163
  22531356.887     9729870.581 5   7586860.53721
 91  5 13 21 46 59.9960000  0  5G13G 2G15G 6G19
  21333022.8324   -8865044.38546  -5337742.06861
  19573680.793   -22718300.600 8 -17660735.41324
  22772865.676    -1566796.944 5  -1120305.96021
  19619447.293   -24326585.404 7 -16582629.74823
  22538078.5354    9765176.73044   7614371.83361
 91  5 13 21 47 14.9960000  0  5G13G 2G15G 6G19
  21321491.0904   -8925655.56746  -5384971.45561
  19573849.3164  -22717407.18848 -17660039.24164
  22769480.5274   -1584595.11345  -1134174.63261
  19615305.543   -24348349.975 7 -16599589.12623
  22544802.215     9800535.028 5   7641923.73121
 91  5 13 21 47 29.9960000  0  5G13G 2G15G 6G19
  21309971.7234   -8986190.79146  -5432141.65261
  19574030.316   -22716460.598 8 -17659301.62824
  22766113.629    -1602270.033 5  -1147947.24621
  19611177.668   -24370046.679 7 -16616495.62323
  22551545.660     9835944.372 4   7669515.45021
 91  5 13 21 47 44.9960000  0  5G13G 2G15G 6G19
  21298466.7234   -9046649.45946  -5479252.18361
  19574221.9414  -22715460.98548 -17658522.69964
  22762773.2774   -1619821.33045  -1161623.53961
  19607061.582   -24391675.065 7 -16633348.89123
  22558288.902     9871404.676 5   7697146.82221
 91  5 13 21 47 59.9960000  0  5G13G 2G15G 6G19
  21286977.106    -9107032.475 6  -5526303.78321
  19574419.996   -22714409.450 8 -17657703.31124
  22759458.7234   -1637250.03845  -1175204.31461
  19602957.574   -24413236.295 7 -16650149.82923
  22565049.5044    9906914.37845   7724816.74261
 91  5 13 21 48 14.9960000  0  5G13G 2G15G 6G19
  21275502.332    -9167331.084 6  -5573289.59421
  19574631.5514  -22713297.74848 -17656837.03964
  22756167.1994   -1654547.37245  -1188682.71461
  19598870.0664  -24434721.69447 -16666891.66863
  22571814.5904    9942482.10044   7752531.84361
 91  5 13 21 48 29.9960000  0  5G13G 2G15G 6G19
  21264045.4494   -9227553.05446  -5620215.68461
  19574853.824   -22712133.971 8 -17655930.18824
  22752900.731    -1671721.273 5  -1202064.94121
  19594794.270   -24456139.149 7 -16683580.57323
  22578590.7154    9978099.41444   7780285.59461
 91  5 13 21 48 44.9960000  0  5G13G 2G15G 6G19
  21252595.574    -9287694.812 6  -5667079.28621
  19575084.0594  -22710914.84348 -17654980.21264
  22749659.762    -1688768.424 5  -1215348.41621
  19590731.254   -24477485.033 7 -16700213.70523
  22585384.6844   10013769.66345   7808080.59361
 91  5 13 21 48 59.9960000  0  5G13G 2G15G 6G19
  21241163.9734   -9347757.91646  -5713881.59861
  19575328.504   -22709642.503 8 -17653988.76924
  22746439.004    -1705690.728 5  -1228534.60221
  19586684.160   -24498761.297 7 -16716792.58923
  22592178.449    10049490.702 4   7835915.14521
 91  5 13 21 49 14.9960000  0  5G13G 2G15G 6G19
  21229751.356    -9407738.633 6  -5760619.71021
  19575580.8714  -22708313.94148 -17652953.51864
  22743243.270    -1722484.498 5  -1241620.64421
  19582646.621   -24519964.445 7 -16733314.49823
  22598986.957    10085265.559 4   7863791.65421
 91  5 13 21 49 29.9960000  0  5G13G 2G15G 6G19
  21218353.059    -9467636.387 6  -5807293.16921
  19575843.113   -22706928.512 8 -17651873.94824
  22740067.902    -1739149.038 5  -1254605.98221
  19578627.348   -24541093.865 7 -16749778.95923
  22605804.3714   10121094.69744   7891710.43661
 91  5 13 21 49 44.9960000  0  5G13G 2G15G 6G19
  21206973.262    -9527451.450 6  -5853902.19521
  19576118.3484  -22705487.24448 -17650750.87464
  22736920.731    -1755684.899 5  -1267491.03321
  19574621.840   -24562149.954 7 -16766186.27823
  22612632.629    10156977.374 4   7919670.95621
 91  5 13 21 49 59.9960000  0  5G13G 2G15G 6G19
  21195603.5744   -9587184.10046  -5900447.00761
  19576402.137   -22703990.696 8 -17649584.71823
  22733795.0514   -1772092.66145  -1280276.26361
  19570626.043   -24583133.069 7 -16782536.73923
  22619471.2934   10192912.85944   7947672.63661
 91  5 13 21 50 14.9960000  0  5G13G 2G15G 6G19
  21184255.699    -9646834.689 6  -5946927.87721
  19576698.2314  -22702439.89348 -17648376.29464
  22730700.9964   -1788373.09145  -1292962.28661
  19566647.566   -24604043.790 7 -16798830.78323
  22626318.246    10228900.266 4   7975714.75721
 91  5 13 21 50 29.9960000  0  5G13G 2G15G 6G19
  21172917.0274   -9706402.88146  -5993344.55861
  19577003.0664  -22700834.85648 -17647125.60864
  22727626.4654   -1804525.71345  -1305548.71861
  19562682.668   -24624881.957 7 -16815068.29423
  22633177.363    10264939.284 4   8003797.08021
 91  5 13 21 50 44.9960000  0  5G13G 2G15G 6G19
  21161596.1604   -9765887.72746  -6039696.26761
  19577318.7314  -22699174.97248 -17645832.18364
  22724578.926    -1820549.928 5  -1318035.06021
  19558730.988   -24645646.665 7 -16831248.56923
  22640043.777    10301030.516 4   8031920.10821
 91  5 13 21 50 59.9960000  0  5G13G 2G15G 6G19
  21150296.512    -9825288.596 6  -6085982.55521
  19577645.2624  -22697460.24248 -17644496.02463
  22721554.8164   -1836445.24345  -1330420.98361
  19554793.973   -24666337.595 7 -16847371.34823
  22646922.4814   10337174.00744   8060083.84461
 91  5 13 21 51 14.9960000  0  5G13G 2G15G 6G19
  21139007.238    -9884603.922 6  -6132202.18021
  19577983.3484  -22695689.38548 -17643116.12563
  22718554.5744   -1852210.12545  -1342705.27661
  19550870.301   -24686953.189 7 -16863435.42723
  22653807.606    10373371.061 4   8088289.32221
 91  5 13 21 51 29.9960000  0  5G13G 2G15G 6G19
  21127738.231    -9943835.124 6  -6178356.24521
  19578329.8484  -22693864.21248 -17641693.90364
  22715578.168    -1867846.425 5  -1354889.38121
  19546961.645   -24707495.161 7 -16879442.14323
  22660709.5204   10409619.65245   8116534.94361
 91  5 13 21 51 44.9960000  0  5G13G 2G15G 6G19
  21116482.7464  -10002981.37546  -6224444.12361
  19578687.8634  -22691984.46748 -17640229.15963
  22712626.762    -1883353.729 5  -1366972.95821
  19543066.965   -24727962.862 7 -16895390.98023
  22667614.738    10445920.111 4   8144821.02121
 91  5 13 21 51 59.9960000  0  5G13G 2G15G 6G19
  21105242.981   -10062040.496 6  -6270464.12121
  19579056.184   -22690048.304 8 -17638720.45123
  22709700.5434   -1898729.59645  -1378954.12461
  19539186.652   -24748354.119 7 -16911280.25123
  22674535.6914   10482274.16544   8173148.83261
 91  5 13 21 52 14.9960000  0  5G13G 2G15G 6G19
  21094018.356   -10121015.427 6  -6316418.50921
  19579433.6064  -22688059.06948 -17637170.39063
  22706800.934    -1913977.031 5  -1390835.21821
  19535319.652   -24768671.979 7 -16927112.32823
  22681459.832    10518678.564 4   8201515.88421
 91  5 13 21 52 29.9960000  0  5G13G 2G15G 6G19
  21082813.3874  -10179904.96346  -6362306.36261
  19579822.5044  -22686015.82048 -17635578.24164
  22703921.6454   -1929095.07945  -1402615.49361
  19531468.356   -24788915.319 7 -16942886.34123
  22688397.5744   10555134.15444   8229922.80961
 91  5 13 21 52 44.9960000  0  5G13G 2G15G 6G19
  21071623.020   -10238706.718 6  -6408125.79621
  19580222.012   -22683916.708 8 -17633942.55923
  22701071.1064   -1944081.72745  -1414293.37261
  19527630.457   -24809081.816 7 -16958600.47423
  22695347.0594   10591642.78644   8258371.07661
 91  5 13 21 52 59.9960000  0  5G13G 2G15G 6G19
  21060451.9494  -10297422.21046  -6453878.03161
  19580632.8324  -22681763.60848 -17632264.81163
  22698244.340    -1958938.555 5  -1425870.05621
  19523805.957   -24829173.264 7 -16974256.12223
  22702307.1214   10628202.54644   8286859.16961
 91  5 13 21 53 14.9960000  0  5G13G 2G15G 6G19
  21049297.262   -10356050.955 6  -6499562.67121
  19581052.746   -22679556.478 8 -17630544.95323
  22695440.606    -1973665.051 5  -1437345.22221
  19519998.7934  -24849189.11947 -16989852.86563
  22709268.9574   10664813.35544   8315387.04961
 91  5 13 21 53 29.9960000  0  5G13G 2G15G 6G19
  21038153.8164  -10414589.80946  -6545177.25861
  19581483.0904  -22677292.92148 -17628781.13263
  22692664.8794   -1988258.87045  -1448717.00861
  19516203.340   -24869126.600 7 -17005388.54323
  22716248.3564   10701477.77344   8343956.70361
 91  5 13 21 53 44.9960000  0  5G13G 2G15G 6G19
  21027033.6134  -10473037.11846  -6590720.52061
  19581924.598   -22674971.525 8 -17626972.24023
  22689910.2774   -2002718.26245  -1459984.04261
  19512426.293   -24888984.138 7 -17020861.92823
  22723235.348    10738197.084 4   8372569.10421
 91  5 13 21 53 59.9960000  0  5G13G 2G15G 6G19
  21015926.9184  -10531396.43346  -6636195.21961
  19582376.199   -22672595.777 8 -17625120.99623
  22687188.3484   -2017046.66145  -1471148.98161
  19508660.8794  -24908765.11347 -17036275.64763
  22730232.5434   10774967.46844   8401221.32061
 91  5 13 21 54 14.9960000  0  5G13G 2G15G 6G19
  21004840.574   -10589663.657 6  -6681598.15621
  19582839.9264  -22670162.38348 -17623224.83764
  22684484.5984   -2031240.21745  -1482208.86661
  19504912.191   -24928465.798 7 -17051626.81023
  22737237.801    10811792.373 4   8429916.00721
 91  5 13 21 54 29.9960000  0  5G13G 2G15G 6G19
  20993768.0434  -10647841.14646  -6726931.16761
  19583312.168   -22667674.200 8 -17621285.97923
  22681809.6604   -2045301.40045  -1493165.60561
  19501178.6844  -24948088.72147 -17066917.37463
  22744259.637    10848668.886 4   8458650.93221
 91  5 13 21 54 44.9960000  0  5G13G 2G15G 6G19
  20982712.8244  -10705926.65046  -6772192.49561
  19583798.8014  -22665129.19648 -17619302.85363
  22679160.090    -2059228.102 5  -1504017.55021
  19497457.504   -24967631.669 7 -17082145.62123
  22751282.1994   10885598.86143   8487427.51061
 91  5 13 21 54 59.9960000  0  5G13G 2G15G 6G19
  20971677.910   -10763924.651 6  -6817385.64021
  19584292.6524  -22662532.33148 -17617279.31263
  22676531.941    -2073025.120 5  -1514768.43121
  19493754.160   -24987099.108 7 -17097315.02823
  22758324.3094   10922577.49144   8516241.99161
 91  5 13 21 55 14.9960000  0  5G13G 2G15G 6G19
  20960661.785   -10821826.241 6  -6862503.68121
  19584798.3484  -22659875.27948 -17615208.87463
  22673935.5514   -2086684.19045  -1525411.87461
  19490066.988   -25006482.546 7 -17112418.98123
  22765368.629    10959613.006 4   8545100.80021
 91  5 13 21 55 29.9950000  0  5G13G 2G15G 6G19
  20949659.5694  -10879633.19146  -6907547.95961
  19585313.3984  -22657164.12948 -17613096.28063
  22671363.858    -2100209.785 5  -1535951.27021
  19486393.069   -25025786.264 7 -17127460.81923
  22772430.374    10996696.896 4   8573997.31221
 91  5 13 21 55 44.9950000  0  5G13G 2G15G 6G19
  20938675.6484  -10937353.57546  -6952524.78661
  19585839.7184  -22654399.35248 -17610941.90364
  22668811.616    -2113604.367 5  -1546388.58621
  19482732.952   -25045013.375 7 -17142442.95623
  22779493.3044   11033833.47544   8602934.87661
 91  5 13 21 55 59.9950000  0  5G13G 2G15G 6G19
  20927709.1554  -10994981.34246  -6997429.44761
  19586376.0464  -22651579.12448 -17608744.31563
  22666287.444    -2126865.099 5  -1556721.59521
  19479091.015   -25064160.440 7 -17157362.72523
  22786572.5304   11071021.85344   8631912.78861
 91  5 13 21 56 14.9950000  0  5G13G 2G15G 6G19
  20916759.4764  -11052514.22646  -7042260.17461
  19586925.257   -22648702.003 8 -17606502.39024
  22663790.2574   -2139990.13445  -1566948.86861
  19475461.702   -25083225.674 7 -17172218.73123
  22793658.390    11108263.648 4   8660932.34621
 91  5 13 21 56 29.9950000  0  5G13G 2G15G 6G19
  20905829.694   -11109954.175 6  -7087018.47721
  19587482.187   -22645769.951 8 -17604217.66423
  22661318.0234   -2152981.08645  -1577071.65361
  19471849.499   -25102210.757 7 -17187012.28123
  22800754.0234   11145556.86844   8689991.98561
 91  5 13 21 56 44.9950000  0  5G13G 2G15G 6G19
  20894917.0074  -11167304.34746  -7131706.83661
  19588049.1084  -22642786.78448 -17601893.10664
  22658870.8194   -2165841.37745  -1587092.62661
  19468250.491   -25121119.036 7 -17201745.98223
  22807861.2414   11182897.64044   8719088.64161
 91  5 13 21 56 59.9950000  0  5G13G 2G15G 6G19
  20884020.2104  -11224564.02446  -7176324.66961
  19588627.2804  -22639752.15848 -17599528.45663
  22656449.523    -2178570.752 5  -1597011.59521
  19464667.687   -25139950.007 7 -17216419.44423
  22814975.4054   11220286.20243   8748222.58261
 91  5 13 21 57 14.9950000  0  5G13G 2G15G 6G19
  20873140.3434  -11281730.31546  -7220869.74361
  19589215.1554  -22636663.59148 -17597121.77164
  22654051.3744   -2191166.71745  -1606826.59861
  19461101.101   -25158701.040 7 -17231030.61723
  22822098.398    11257724.782 4   8777395.46521
 91  5 13 21 57 29.9950000  0  5G13G 2G15G 6G19
  20862281.8044  -11338804.78646  -7265343.26461
  19589812.0854  -22633522.99348 -17594674.54464
  22651679.944    -2203630.764 5  -1616538.80321
  19457547.827   -25177373.779 7 -17245580.78423
  22829232.5544   11295211.66544   8806605.98861
 91  5 13 21 57 44.9950000  0  5G13G 2G15G 6G19
  20851439.2104  -11395783.41546  -7309742.10461
  19590421.093   -22630327.061 8 -17592184.19824
  22649333.827    -2215959.351 5  -1626145.46921
  19454010.007   -25195964.274 7 -17260066.86623
  22836374.5234   11332750.16044   8835856.75761
 91  5 13 21 57 59.9950000  0  5G13G 2G15G 6G19
  20840613.4054  -11452667.02146  -7354066.91061
  19591040.444   -22627076.756 8 -17589651.48024
  22647013.023    -2228153.162 5  -1635647.11521
  19450487.327   -25214473.518 7 -17274489.62823
  22843535.077    11370339.112 4   8865146.81521
 91  5 13 21 58 14.9950000  0  5G13G 2G15G 6G19
  20829805.523   -11509456.615 6  -7398318.46221
  19591669.851   -22623773.263 8 -17587077.31624
  22644717.640    -2240213.508 5  -1645044.76121
  19446980.202   -25232902.372 7 -17288849.75223
  22850691.093    11407977.205 4   8894475.14921
 91  5 13 21 58 29.9950000  0  5G13G 2G15G 6G19
  20819018.452   -11566150.834 6  -7442495.68221
  19592305.9524  -22620415.86248 -17584461.15464
  22642446.249    -2252139.218 5  -1654337.48421
  19443487.507   -25251249.656 7 -17303146.31923
  22857863.0774   11445665.31844   8923842.49561
 91  5 13 21 58 44.9950000  0  5G13G 2G15G 6G19
  20808250.1794  -11622748.27546  -7486597.50261
  19592955.7574  -22617003.49248 -17581802.15564
  22640205.648    -2263928.925 5  -1663524.24421
  19440011.468   -25269514.125 7 -17317378.35323
  22865045.9294   11483404.55644   8953249.66461
 91  5 13 21 58 59.9950000  0  5G13G 2G15G 6G19
  20797495.8124  -11679252.37846  -7530626.59261
  19593614.6634  -22613540.06448 -17579103.36863
  22637986.351    -2275586.336 5  -1672607.90221
  19436551.913   -25287699.457 7 -17331548.72023
  22872239.773    11521190.838 4   8982693.46921
 91  5 13 21 59 14.9950000  0  5G13G 2G15G 6G19
  20786759.7494  -11735660.53446  -7574580.90061
  19594283.0234  -22610023.46648 -17576363.15864
  22635794.9374   -2287108.86445  -1681586.46561
  19433106.913   -25305802.944 7 -17345655.31623
  22879433.1404   11559026.25844   9012175.56161
 91  5 13 21 59 29.9950000  0  5G13G 2G15G 6G19
  20776042.882   -11791975.427 6  -7618462.55121
  19594962.7804  -22606456.55248 -17573583.74363
  22633624.1874   -2298499.81745  -1690462.49861
  19429676.382   -25323827.629 7 -17359700.51523
  22886649.8124   11596907.60544   9041693.48161
 91  5 13 21 59 44.9950000  0  5G13G 2G15G 6G19
  20765343.898   -11848193.631 6  -7662268.86821
  19595651.7964  -22602836.12948 -17570762.62664
  22631482.1404   -2309755.75445  -1699233.33461
  19426262.905   -25341769.878 7 -17373681.47123
  22893859.366    11634838.035 4   9071249.62821
 91  5 13 21 59 59.9950000  0  5G13G 2G15G 6G19
  20754668.4294  -11904311.53646  -7705997.00661
  19596351.6874  -22599159.28048 -17567897.54364
  22629365.991    -2320873.123 5  -1707896.19321
  19422865.765   -25359626.476 7 -17387595.69023
  22901089.9994   11672820.47143   9100846.29061
 91  5 13 22  0 14.9950000  0  5G13G 2G15G 6G19
  20744006.819   -11960331.956 6  -7749649.20621
  19597061.0624  -22595429.17648 -17564990.96064
  22627277.9294   -2331855.21545  -1716453.64461
  19419482.421   -25377400.386 7 -17401445.47323
  22908326.9684   11710851.72944   9130481.00061
 91  5 13 22  0 29.9950000  0  5G13G 2G15G 6G19
  20733368.054   -12016250.474 6  -7793221.98221
  19597782.8664  -22591641.98348 -17562039.89164
  22625214.507    -2342697.817 5  -1724902.38121
  19416117.015   -25395087.278 7 -17415227.45323
  22915575.788    11748935.547 4   9160156.65021
 91  5 13 22  0 44.9950000  0  5G13G 2G15G 6G19
  20722742.905   -12072072.110 6  -7836719.28321
  19598512.733   -22587803.101 8 -17559048.54123
  22623177.8514   -2353406.22345  -1733246.56861
  19412765.726   -25412692.320 7 -17428945.65523
  22922830.663    11787066.636 4   9189869.20421
 91  5 13 22  0 59.9950000  0  5G13G 2G15G 6G19
  20712137.390   -12127792.293 6  -7880137.52221
  19599254.0384  -22583908.48348 -17556013.77063
  22621166.0854   -2363976.08045  -1741482.79061
  19409432.499   -25430211.158 7 -17442596.68123
  22930094.413    11825248.963 3   9219621.60521
 91  5 13 22  1 14.9950000  0  5G13G 2G15G 6G19
  20701554.9054  -12183414.42846  -7923479.35761
  19600004.679   -22579961.745 8 -17552938.37924
  22619183.1484   -2374410.79845  -1749613.70661
  19406113.991   -25447647.009 7 -17456183.03923
  22937369.7654   11863478.92444   9249411.15961
 91  5 13 22  1 29.9950000  0  5G13G 2G15G 6G19
  20690989.343   -12238938.532 6  -7966744.81521
  19600764.8904  -22575963.03548 -17549822.49364
  22617220.3904   -2384710.62745  -1757639.51361
  19402812.468   -25464999.906 7 -17469704.76423
  22944654.3824   11901756.13543   9279237.50961
 91  5 13 22  1 44.9950000  0  5G13G 2G15G 6G19
  20680443.780   -12294362.627 6  -8009932.34121
  19601536.249   -22571910.739 8 -17546664.85024
  22615289.140    -2394874.007 5  -1765559.00721
  19399528.257   -25482268.267 7 -17483160.60223
  22951944.4374   11940081.99744   9309101.74461
 91  5 13 22  1 59.9950000  0  5G13G 2G15G 6G19
  20669914.288   -12349684.912 6  -8053040.53321
  19602317.9764  -22567803.65848 -17543464.51664
  22613380.3124   -2404899.26145  -1773370.86661
  19396256.991   -25499450.189 7 -17496549.09123
  22959250.7494   11978457.85543   9339004.99361
 91  5 13 22  2 14.9950000  0  5G13G 2G15G 6G19
  20659408.546   -12404908.096 6  -8096071.50621
  19603109.569   -22563644.694 8 -17540223.75124
  22611499.0074   -2414789.08845  -1781077.19261
  19393004.304   -25516548.474 7 -17509872.40923
  22966558.1634   12016880.66343   9368944.76761
 91  5 13 22  2 29.9950000  0  5G13G 2G15G 6G19
  20648917.515   -12460029.976 6  -8139023.53821
  19603910.7964  -22559432.44648 -17536941.47364
  22609642.366    -2424541.702 5  -1788676.59821
  19389764.671   -25533561.404 7 -17523129.21723
  22973883.788    12055351.767 3   9398922.21321
 91  5 13 22  2 44.9950000  0  5G13G 2G15G 6G19
  20638449.007   -12515049.281 6  -8181895.63821
  19604722.7334  -22555165.76048 -17533616.77764
  22607810.179    -2434155.988 5  -1796168.22621
  19386544.835   -25550487.533 7 -17536318.39123
  22981215.218    12093872.093 3   9428938.00621
 91  5 13 22  2 59.9950000  0  5G13G 2G15G 6G19
  20627995.413   -12569970.341 6  -8224691.19521
  19605543.8354  -22550849.48248 -17530253.43564
  22606008.0304   -2443636.51245  -1803555.62661
  19383341.452   -25567331.371 7 -17549443.43923
  22988553.515    12132436.995 3   9458988.56321
 91  5 13 22  3 14.9950000  0  5G13G 2G15G 6G19
  20617563.304   -12624792.951 6  -8267410.03321
  19606375.1084  -22546483.62148 -17526851.45564
  22604228.8124   -2452983.19045  -1810838.72361
  19380150.023   -25584092.752 7 -17562504.23923
  22995896.5854   12171046.29543   9489073.63061
 91  5 13 22  3 29.9950000  0  4G13G 2G15G 6
  20607149.648   -12679511.692 6  -8310047.94221
  19607217.6014  -22542063.25448 -17523407.00864
  22602475.7494   -2462190.91745  -1818013.54361
  19376976.218   -25600766.405 7 -17575496.67623
 91  5 13 22  3 44.9950000  0  4G13G 2G15G 6
  20596757.8824  -12734127.63246  -8352605.74761
  19608067.1634  -22537589.89048 -17519921.26664
  22600750.155    -2471261.079 5  -1825081.18321
  19373821.319   -25617353.502 7 -17588421.67323
 91  5 13 22  3 59.9950000  0  4G13G 2G15G 6
  20586384.655   -12788641.103 6  -8395083.70921
  19608927.6874  -22533064.14447 -17516394.70363
  22599054.5384   -2480194.08045  -1832041.92861
  19370681.312   -25633854.544 7 -17601279.61023
 91  5 13 22  4 14.9950000  0  4G13G 2G15G 6
  20576029.296   -12843050.784 6  -8437480.78621
  19609800.0774  -22528484.86848 -17512826.42864
  22597380.4684   -2488988.47145  -1838894.66861
  19367557.085   -25650267.906 7 -17614069.22323
 91  5 13 22  4 29.9950000  0  4G13G 2G15G 6
  20565694.4914  -12897361.14546  -8479800.48261
  19610680.2264  -22523857.11847 -17509220.38864
  22595729.9524   -2497649.27145  -1845643.31161
  19364450.327   -25666598.507 7 -17626794.35223
 91  5 13 22  4 44.9950000  0  4G13G 2G15G 6
  20555380.140   -12951569.155 6  -8522040.41221
  19611572.944   -22519178.410 8 -17505574.62724
  22594108.765    -2506173.726 5  -1852285.70921
  19361358.773   -25682843.519 7 -17639452.78523
 91  5 13 22  4 59.9950000  0  4G13G 2G15G 6
  20545083.358   -13005672.979 6  -8564199.16321
  19612471.6084  -22514447.06847 -17501887.85864
  22592513.585    -2514560.112 5  -1858820.53521
  19358284.671   -25699000.954 7 -17652042.97623
 91  5 13 22  5 14.9950000  0  4G13G 2G15G 6
  20534809.101   -13059671.908 6  -8606276.17521
  19613382.8514  -22509662.94148 -17498159.96564
  22590943.108    -2522808.173 5  -1865247.57521
  19355225.632   -25715070.707 7 -17664564.84523
 91  5 13 22  5 29.9950000  0  4G13G 2G15G 6
  20524554.749   -13113566.856 6  -8648272.16521
  19614301.5384  -22504827.00548 -17494391.69764
  22589400.5544   -2530918.96846  -1871567.63461
  19352184.460   -25731053.229 7 -17677018.74423
 91  5 13 22  5 44.9950000  0  4G13G 2G15G 6
  20514316.2024  -13167353.45946  -8690183.74161
  19615232.9374  -22499935.52348 -17490580.14364
  22587882.8354   -2538888.37646  -1877777.53461
  19349159.546   -25746944.596 7 -17689401.61323
 91  5 13 22  5 59.9950000  0  4G13G 2G15G 6
  20504102.7494  -13221031.78446  -8732010.93961
  19616174.6244  -22494989.09448 -17486725.77764
  22586393.233    -2546716.711 5  -1883877.49121
  19346153.929   -25762744.824 7 -17701713.45723
 91  5 13 22  6 14.9950000  0  4G13G 2G15G 6
  20493908.8514  -13274604.97746  -8773756.21861
  19617125.4374  -22489990.88248 -17482831.06064
  22584928.9684   -2554407.09945  -1889869.97761
  19343163.093   -25778457.006 7 -17713956.69723
 91  5 13 22  6 29.9950000  0  4G13G 2G15G 6
  20483734.3904  -13328071.85746  -8815418.65961
  19618086.6554  -22484940.25548 -17478895.50564
  22583492.7734   -2561958.77245  -1895754.37561
  19340190.983   -25794080.339 7 -17726130.71023
 91  5 13 22  6 44.9950000  0  4G13G 2G15G 6
  20473579.437   -13381429.655 6  -8856996.08921
  19619058.413   -22479834.900 8 -17474917.29824
  22582082.5934   -2569369.31745  -1901528.79161
  19337234.187   -25809612.084 7 -17738233.35223
 91  5 13 22  6 59.9950000  0  4G13G 2G15G 6
  20463448.2494  -13434680.11746  -8898489.89161
  19620039.2104  -22474677.04948 -17470898.18364
  22580696.913    -2576640.793 5  -1907194.84421
  19334297.335   -25825054.113 7 -17750266.08323
 91  5 13 22  7 14.9950000  0  4G13G 2G15G 6
  20453336.5154  -13487821.59246  -8939898.77661
  19621030.2104  -22469465.25947 -17466837.04864
  22579341.9834   -2583771.50545  -1912751.21961
  19331376.226   -25840404.797 7 -17762227.63823
 91  5 13 22  7 29.9950000  0  4G13G 2G15G 6
  20443242.343   -13540857.990 6  -8981225.76721
  19622032.7804  -22464203.46648 -17462736.94464
  22578010.968    -2590765.372 5  -1918200.95521
  19328470.999   -25855668.117 7 -17774121.11423
 91  5 13 22  7 44.9950000  0  4G13G 2G15G 6
  20433173.8984  -13593784.46846  -9022467.11561
  19623043.9214  -22458887.24548 -17458594.42964
  22576707.491    -2597617.812 5  -1923540.49621
  19325582.741   -25870839.120 7 -17785942.65823
 91  5 13 22  7 59.9950000  0  4G13G 2G15G 6
  20423121.8194  -13646605.24846  -9063626.10561
  19624064.6164  -22453521.46248 -17454413.29264
  22575430.3124   -2604333.37245  -1928773.37561
  19322713.905   -25885922.253 7 -17797695.73023
 91  5 13 22  8 14.9950000  0  4G13G 2G15G 6
  20413088.2024  -13699318.71946  -9104701.47661
  19625096.616   -22448104.763 8 -17450192.47724
  22574176.8434   -2610910.56445  -1933898.42461
  19319859.179   -25900916.074 7 -17809379.21023
 91  5 13 22  8 29.9950000  0  4G13G 2G15G 6
  20403075.6084  -13751924.26946  -9145692.75461
  19626136.2574  -22442637.02948 -17445931.89663
  22572950.765    -2617349.319 5  -1938915.61521
  19317023.538   -25915820.133 7 -17820992.74023
 91  5 13 22  8 44.9950000  0  4G13G 2G15G 6
  20393085.866   -13804420.345 6  -9186598.72821
  19627186.9374  -22437117.10548 -17441630.65263
  22571751.1554   -2623648.36145  -1943823.93661
  19314206.562   -25930632.856 7 -17832535.10423
 91  5 13 22  8 59.9950000  0  4G13G 2G15G 6
  20383117.608   -13856806.249 6  -9227418.84421
  19628247.312   -22431544.554 8 -17437288.39424
  22570581.7734   -2629807.01845  -1948622.85061
  19311404.163   -25945353.852 7 -17844005.99123
 91  5 13 22  9 14.9950000  0  4G13G 2G15G 6
  20373170.976   -13909085.044 6  -9268155.51021
  19629316.5234  -22425922.93648 -17432907.91264
  22569431.851    -2635828.613 5  -1953314.98921
  19308619.757   -25959986.170 7 -17855407.77823
 91  5 13 22  9 29.9950000  0  4G13G 2G15G 6
  20363245.7184  -13961252.49346  -9308805.40961
  19630397.3824  -22420248.10048 -17428485.95964
  22568315.999    -2641709.223 5  -1957897.24721
  19305853.773   -25974525.369 7 -17866737.00423
 91  5 13 22  9 44.9950000  0  4G13G 2G15G 6
  20353337.0234  -14013313.01046  -9349371.98361
  19631485.8274  -22414524.82648 -17424026.25563
  22567223.663    -2647453.300 5  -1962373.12921
  19303102.937   -25988976.126 7 -17877997.31223
 91  5 13 22  9 59.9950000  0  4G13G 2G15G 6
  20343451.023   -14065266.100 6  -9389854.84721
  19632584.3514  -22408753.12748 -17419528.82164
  22566157.3124   -2653060.72245  -1966742.53261
  19300370.327   -26003338.228 7 -17889188.54323
 91  5 13 22 10 14.9950000  0  4G13G 2G15G 6
  20333582.1484  -14117112.34346  -9430254.45361
  19633691.5234  -22402933.79848 -17414994.27164
  22565112.608    -2658532.375 5  -1971006.13421
  19297653.249   -26017612.085 7 -17900311.01223
 91  5 13 22 10 29.9950000  0  4G13G 2G15G 6
  20323736.679   -14168850.002 6  -9470569.46321
  19634808.0624  -22397065.51348 -17410421.56964
  22564097.7264   -2663866.63945  -1975162.69061
  19294955.054   -26031796.173 7 -17911363.53123
 91  5 13 22 10 44.9950000  0  4G13G 2G15G 6
  20313916.1084  -14220479.11846  -9510799.88561
  19635934.6714  -22391148.62548 -17405811.00764
  22563111.6014   -2669063.81545  -1979212.40461
  19292272.530   -26045890.598 7 -17922346.18523
 91  5 13 22 10 59.9950000  0  4G13G 2G15G 6
  20304110.702   -14271998.151 6  -9550944.53121
  19637069.2654  -22385182.09248 -17401161.74964
  22562148.4604   -2674122.62245  -1983154.30761
  19289607.757   -26059894.032 7 -17933257.93523
 91  5 13 22 11 14.9950000  0  4G13G 2G15G 6
  20294327.9834  -14323406.41546  -9591002.86761
  19638215.1484  -22379165.68748 -17396473.63663
  22561212.9764   -2679043.07945  -1986988.39961
  19286959.991   -26073806.071 7 -17944098.46823
 91  5 13 22 11 29.9950000  0  4G13G 2G15G 6
  20284566.437   -14374704.528 6  -9630975.37121
  19639369.1874  -22373100.25848 -17391747.32264
  22560301.4214   -2683825.47045  -1990714.90661
  19284329.890   -26087627.013 7 -17954868.01823
 91  5 13 22 11 44.9950000  0  4G13G 2G15G 6
  20274826.0234  -14425890.76046  -9670860.68561
  19640531.9914  -22366984.15048 -17386981.51663
  22559419.0854   -2688468.22745  -1994332.61461
  19281717.718   -26101355.094 7 -17965565.21023
 91  5 13 22 11 59.9950000  0  4G13G 2G15G 6
  20265103.0854  -14476968.46246  -9710661.43961
  19641704.5234  -22360821.27348 -17382179.26864
  22558562.476    -2692974.967 5  -1997844.33721
  19279123.585   -26114993.961 7 -17976192.88423
 91  5 13 22 12 14.9950000  0  4G13G 2G15G 6
  20255408.4764  -14527932.47346  -9750373.59561
  19642888.1484  -22354606.74448 -17377336.77664
  22557727.382    -2697340.968 5  -2001246.38721
  19276546.702   -26128538.566 7 -17986747.10923
 91  5 13 22 12 29.9950000  0  4G13G 2G15G 6
  20245730.327   -14578787.891 6  -9790001.13721
  19644079.9834  -22348346.10948 -17372458.35364
  22556922.5774   -2701571.52545  -2004542.91061
  19273984.351   -26141994.141 7 -17997231.95823
 91  5 13 22 12 44.9950000  0  4G13G 2G15G 6
  20236073.030   -14629532.309 6  -9829542.18421
  19645279.4294  -22342037.09948 -17367542.24263
  22556144.9134   -2705664.19945  -2007731.97661
  19271439.796   -26155358.052 7 -18007645.37723
 91  5 13 22 12 59.9950000  0  4G13G 2G15G 6
  20226435.5154  -14680167.14646  -9868997.84561
  19646489.9444  -22335681.84848 -17362590.08763
  22555393.194    -2709621.077 5  -2010815.23521
  19268914.960   -26168632.061 7 -18017988.75023
 91  5 13 22 13 14.9950000  0  4G13G 2G15G 6
  20216824.655   -14730690.492 6  -9908366.63521
  19647707.8514  -22329278.49948 -17357600.46063
  22554665.702    -2713440.351 5  -2013791.26821
  19266407.6324  -26181814.43347 -18028260.72163
 91  5 13 22 13 29.9950000  0  4G13G 2G15G 6
  20207231.624   -14781100.870 6  -9947647.39921
  19648935.0624  -22322826.13147 -17352572.63163
  22553965.194    -2717120.929 5  -2016659.23521
  19263915.983   -26194903.792 7 -18038460.20423
 91  5 13 22 13 44.9950000  0  4G13G 2G15G 6
  20197659.085   -14831400.932 6  -9986842.19921
  19650172.7884  -22316327.75248 -17347508.95762
  22553290.905    -2720665.631 5  -2019421.32121
  19261442.6014  -26207902.79747 -18048589.28562
 91  5 13 22 13 59.9950000  0  4G13G 2G15G 6
  20188108.085   -14881592.254 6 -10025952.27121
  19651416.5694  -22309784.98548 -17342410.68963
  22552640.640    -2724076.174 5  -2022078.88021
  19258985.8744  -26220813.04947 -18058649.21063
 91  5 13 22 14 14.9950000  0  4G13G 2G15G 6
  20178577.8434  -14931670.58246 -10064974.28761
  19652671.7334  -22303193.90548 -17337274.77963
  22552019.4684   -2727348.40245  -2024628.63461
  19256545.437   -26233630.185 7 -18068636.58223
 91  5 13 22 14 29.9950000  0  4G13G 2G15G 6
  20169068.218   -14981635.280 6 -10103907.77221
  19653934.7184  -22296554.45048 -17332101.17763
  22551424.796    -2730482.184 5  -2027070.51921
  19254126.6944  -26246353.95847 -18078551.20263
 91  5 13 22 14 44.9950000  0  4G13G 2G15G 6
  20159587.460   -15031483.074 6 -10142750.15421
  19655208.3194  -22289863.72848 -17326887.62163
  22550852.538    -2733474.475 5  -2029402.15621
  19251721.4684  -26258980.94347 -18088390.40263
 91  5 13 22 14 59.9950000  0  4G13G 2G15G 6
  20150118.218   -15081217.311 6 -10181504.04921
  19656489.9214  -22283125.32048 -17321636.91463
  22550310.2964   -2736328.95345  -2031626.40561
  19249337.9764  -26271514.71747 -18098156.97063
 91  5 13 22 15 14.9950000  0  4G13G 2G15G 6
  20140679.757   -15130837.828 6 -10220169.34421
  19657781.4764  -22276339.33448 -17316349.12963
  22549792.0464   -2739045.34545  -2033743.04861
  19246970.155   -26283955.147 7 -18107850.79923
 91  5 13 22 15 29.9950000  0  4G13G 2G15G 6
  20131253.890   -15180344.750 6 -10258746.11221
  19659081.5854  -22269506.18648 -17311024.59763
  22549304.187    -2741624.321 5  -2035752.62321
  19244620.8584  -26296302.44247 -18117472.05663
 91  5 13 22 15 44.9950000  0  4G13G 2G15G 6
  20121855.648   -15229740.107 6 -10297235.95821
  19660391.1484  -22262628.20448 -17305665.12263
  22548838.288    -2744068.236 5  -2037656.95721
  19242287.7964  -26308558.54147 -18127022.25463
 91  5 13 22 15 59.9950000  0  4G13G 2G15G 6
  20112479.546   -15279017.703 6 -10335634.02921
  19661709.9054  -22255699.44548 -17300266.08963
  22548399.132    -2746370.665 5  -2039451.05221
  19239975.6484  -26320717.35247 -18136496.64263
 91  5 13 22 16 14.9950000  0  4G13G 2G15G 6
  20103122.569   -15328185.090 6 -10373946.23821
  19663036.1014  -22248727.85948 -17294833.68063
  22547987.2734   -2748539.64445  -2041141.14661
  19237678.2184  -26332786.46747 -18145901.14063
 91  5 13 22 16 29.9950000  0  4G13G 2G15G 6
  20093789.702   -15377238.524 6 -10412169.64121
  19664372.3664  -22241710.20548 -17289365.37763
  22547599.366    -2750571.593 5  -2042724.47821
  19235398.3904  -26344762.56047 -18155233.14763
 91  5 13 22 16 44.9950000  0  4G13G 2G15G 6
  20084475.179   -15426178.751 6 -10450304.83021
  19665716.2734  -22234647.42248 -17283861.91263
  22547237.202    -2752467.625 5  -2044201.89221
  19233138.0154  -26356646.35047 -18164493.23563
 91  5 13 22 16 59.9950000  0  4G13G 2G15G 6
  20075184.179   -15475005.459 6 -10488351.56521
  19667068.4444  -22227539.40048 -17278323.19463
  22546902.655    -2754227.692 5  -2045573.35721
  19230895.4524  -26368437.22747 -18173680.91663
 91  5 13 22 17 14.9950000  0  4G13G 2G15G 6
  20065915.366   -15523714.110 6 -10526306.31121
  19668430.5154  -22220382.10248 -17272746.07663
  22546595.1714   -2755847.61645  -2046835.62861
  19228668.7414  -26380130.90947 -18182792.86763
 91  5 13 22 17 29.9950000  0  4G13G 2G15G 6
  20056668.132   -15572307.645 6 -10564171.34921
  19669800.9914  -22213178.89348 -17267133.18863
  22546311.405    -2757330.480 5  -2047991.08321
  19226460.6634  -26391730.76247 -18191831.70563
 91  5 13 22 17 44.9950000  0  4G13G 2G15G 6
  20047442.202   -15620784.858 6 -10601945.75521
  19671180.4994  -22205928.85248 -17261483.80263
  22546059.1874   -2758675.49545  -2049039.12961
  19224271.796   -26403235.348 7 -18200796.30323
 91  5 13 22 17 59.9950000  0  4G13G 2G15G 6
  20038239.023   -15669145.039 6 -10639628.96421
  19672567.7264  -22198631.40048 -17255797.47263
  22545825.7024   -2759882.23545  -2049979.43861
  19222101.6554  -26414643.93647 -18209686.10663
 91  5 13 22 18 14.9950000  0  4G13G 2G15G 6
  20029060.280   -15717390.455 6 -10677222.74521
  19673966.4524  -22191289.17848 -17250076.26663
  22545626.866    -2760953.128 5  -2050813.89621
  19219948.2654  -26425959.11747 -18218503.12263
 91  5 13 22 18 29.9950000  0  4G13G 2G15G 6
  20019902.4834  -15765515.91646 -10714723.04861
  19675372.7334  -22183897.26648 -17244316.33263
  22545446.749    -2761883.040 5  -2051538.48621
  19217813.4444  -26437175.44047 -18227243.10863
 91  5 13 22 18 44.9950000  0  4G13G 2G15G 6
  20010763.976   -15813528.734 6 -10752135.58921
  19676788.6084  -22176463.35248 -17238523.67063
  22545296.3274   -2762679.65245  -2052159.22061
  19215696.2804  -26448300.45347 -18235911.94263
 91  5 13 22 18 59.9950000  0  4G13G 2G15G 6
  20001650.077   -15861428.167 6 -10789459.77421
  19678209.4684  -22168986.91848 -17232697.87763
  22545170.5774   -2763342.56645  -2052675.76961
  19213596.7184  -26459333.47147 -18244509.09063
 91  5 13 22 19 14.9950000  0  4G13G 2G15G 6
  19992556.780   -15909210.460 6 -10826692.67921
  19679642.7884  -22161464.73248 -17226836.43463
  22545068.5304   -2763867.99745  -2053085.19561
  19211516.124   -26470270.848 7 -18253031.70723
 91  5 13 22 19 29.9950000  0  4G13G 2G15G 6
  19983487.499   -15956874.138 6 -10863833.15421
  19681081.7184  -22153895.60748 -17220938.41463
  22544995.452    -2764255.057 5  -2053386.78421
  19209452.6014  -26481111.11547 -18261478.66063
 91  5 13 22 19 44.9950000  0  4G13G 2G15G 6
  19974442.929   -16004416.925 6 -10900879.43521
  19682531.5694  -22146277.42948 -17215002.17163
  22544949.0854   -2764501.53445  -2053578.84261
  19207409.0234  -26491852.17347 -18269848.30963
 91  5 13 22 19 59.9950000  0  4G13G 2G15G 6
  19965414.046   -16051846.986 6 -10937837.87021
  19683988.9294  -22138618.53848 -17209034.20463
  22544925.7104   -2764615.73245
  19205382.6944  -26502501.91747 -18278146.80563
 91  5 13 22 20 14.9950000  0  4G13G 2G15G 6
  19956410.507   -16099161.489 6 -10974706.26321
  19685454.6794  -22130916.76248 -17203032.81963
  22544931.4214   -2764595.49445
  19203373.2184  -26513057.85347 -18286372.19963
 91  5 13 22 20 29.9950000  0  4G13G 2G15G 6
  19947430.265   -16146355.302 6 -11011480.61421
  19686930.6714  -22123167.29948 -17196994.27663
  22544961.0694   -2764435.94645
  19201383.7264  -26523515.26247 -18294520.82063
 91  5 13 22 20 44.9950000  0  4G13G 2G15G 6
  19938472.429   -16193430.640 6 -11048162.65621
  19688413.9374  -22115372.26448 -17190920.22763
  22545016.5774   -2764139.24745
  19199411.9994  -26533875.81947 -18302593.97563
 91  5 13 22 20 59.9950000  0  4G13G 2G15G 6
  19929538.054   -16240387.490 6 -11084752.35621
  19689904.2654  -22107531.96948 -17184810.90863
  22545100.2574   -2763705.63245  -2052958.64561
  19197459.0854  -26544139.71147 -18310591.80363
 91  5 13 22 21 14.9950000  0  4G13G 2G15G 6
  19920623.335   -16287226.057 6 -11121249.89921
  19691404.0624  -22099646.99848 -17178666.77763
  22545211.710    -2763135.500 5  -2052514.37321
  19195524.3354  -26554307.20947 -18318514.52663
 91  5 13 22 21 29.9950000  0  4G13G 2G15G 6
  19911731.554   -16333947.845 6 -11157656.43721
  19692914.7734  -22091719.46448 -17172489.47363
  22545344.1554   -2762430.98045  -2051965.40661
  19193606.1554  -26564380.05347 -18326363.48863
 91  5 13 22 21 44.9950000  0  4G13G 2G15G 6
  19902864.624   -16380548.853 6 -11193968.86521
  19694430.8354  -22083745.54648 -17166276.03963
  22545502.0544   -2761588.42145  -2051308.86161
  19191710.0074  -26574354.28547 -18334135.60863
 91  5 13 22 21 59.9950000  0  4G13G 2G15G 6
  19894019.0544  -16427030.56446 -11230188.33561
  19695956.8664  -22075726.80948 -17160027.67063
  22545691.093    -2760609.355 5  -2050545.94521
  19189829.4764  -26584231.38847 -18341832.04663
 91  5 13 22 22 14.9950000  0  4G13G 2G15G 6
  19885199.554   -16473391.579 7 -11266313.75821
  19697491.5154  -22067662.19948 -17153743.56163
  22545901.202    -2759492.525 5  -2049675.66521
  19187968.0074  -26594010.02147 -18349451.75263
 91  5 13 22 22 29.9950000  0  4G13G 2G15G 6
  19876397.788   -16519633.672 6 -11302346.51421
  19699035.0774  -22059553.80448 -17147425.33563
  22546142.9834   -2758239.94545  -2048699.63461
  19186126.3124  -26603691.93847 -18356996.09763
 91  5 13 22 22 44.9950000  0  4G13G 2G15G 6
  19867620.4214  -16565752.19846 -11338282.98461
  19700588.2414  -22051397.09948 -17141069.46663
  22546404.6874   -2756846.90645  -2047614.14361
  19184302.7264  -26613272.42747 -18364461.40963
 91  5 13 22 22 59.9950000  0  4G13G 2G15G 6
  19858868.163   -16611753.551 6 -11374128.14521
  19702145.4054  -22043198.89648 -17134681.25363
  22546695.6324   -2755320.51145  -2046424.74961
  19182499.0304  -26622758.12847 -18371852.85863
 91  5 13 22 23 14.9950000  0  4G13G 2G15G 6
  19850137.405   -16657633.483 6 -11409878.69821
  19703715.9214  -22034955.16548 -17128257.56963
  22547014.983    -2753656.710 5  -2045128.25321
  19180711.2104  -26632144.77247 -18379167.11463
 91  5 13 22 23 29.9950000  0  4G13G 2G15G 6
  19841428.905   -16703390.852 7 -11445533.74021
  19705293.2414  -22026665.05748 -17121797.74763
  22547356.6554   -2751854.55545  -2043723.97261
  19178944.2104  -26641431.25247 -18386403.32763
 91  5 13 22 23 44.9950000  0  4G13G 2G15G 6
  19832745.4134  -16749026.09747 -11481093.63461
  19706879.0694  -22018329.30248 -17115302.35263
  22547724.577    -2749914.769 5  -2042212.44821
  19177196.3124  -26650618.02847 -18393561.85163
 91  5 13 22 23 59.9950000  0  4G13G 2G15G 6
  19824083.7884  -16794537.13946 -11516556.74561
  19708474.2964  -22009946.37448 -17108770.20263
  22548119.1874   -2747835.63745  -2040592.35061
  19175467.1714  -26659703.22947 -18400641.22363
 91  5 13 22 24 14.9950000  0  4G13G 2G15G 6
  19815448.546   -16839923.408 7 -11551922.62521
  19710079.0154  -22001515.91248 -17102201.01963
  22548539.4134   -2745616.73545  -2038863.33361
  19173758.4524  -26668686.16247 -18407640.90363
 91  5 13 22 24 29.9950000  0  4G13G 2G15G 6
  19806835.054   -16885183.173 7 -11587189.93321
  19711692.9994  -21993036.23248 -17095593.47663
  22548987.6554   -2743256.50345  -2037024.17361
  19172068.6634  -26677565.39747 -18414559.78163
 91  5 13 22 24 44.9950000  0  4G13G 2G15G 6
  19798244.921   -16930316.185 6 -11622358.47321
  19713315.2494  -21984507.59648 -17088947.78963
  22549468.296    -2740755.294 5  -2035075.16221
  19170397.8984  -26686340.50247 -18421397.52063
 91  5 13 22 24 59.9950000  0  4G13G 2G15G 6
  19789681.710   -16975321.613 7 -11657427.59121
  19714948.4764  -21975929.30948 -17082263.41563
  22549970.7414   -2738112.34645  -2033015.73061
  19168748.1484  -26695010.90047 -18428153.67063
 91  5 13 22 25 14.9950000  0  4G13G 2G15G 6
  19781140.890   -17020200.395 6 -11692398.03221
  19716590.2804  -21967302.78148 -17075541.44363
  22550500.312    -2735328.977 5  -2030846.85221
  19167118.5854  -26703577.64347 -18434829.04763
 91  5 13 22 25 29.9950000  0  4G13G 2G15G 6
  19772626.5154  -17064952.23447 -11727269.55661
  19718239.3904  -21958627.76548 -17068781.69263
  22551056.874    -2732404.994 5  -2028568.41621
  19165507.7964  -26712040.19447 -18441423.23563
 91  5 13 22 25 44.9950000  0  4G13G 2G15G 6
  19764135.405   -17109577.791 7 -11762042.67521
  19719900.5694  -21949905.04148 -17061984.77063
  22551637.5624   -2729341.24545  -2026181.08061
  19163918.4524  -26720399.22247 -18447936.75763
 91  5 13 22 25 59.9950000  0  4G13G 2G15G 6
  19755668.085   -17154073.399 7 -11796714.53421
  19721569.7184  -21941131.36148 -17055148.14463
  22552251.6874   -2726134.46345  -2023682.28261
  19162348.1014  -26728651.26147 -18454366.91063
 91  5 13 22 26 14.9950000  0  4G13G 2G15G 6
  19747223.2734  -17198441.24247 -11831286.83861
  19723247.3824  -21932309.25148 -17048273.77563
  22552883.6874   -2722787.04845  -2021073.93061
  19160797.5304  -26736798.54547 -18460715.44063
 91  5 13 22 26 29.9950000  0  4G13G 2G15G 6
  19738806.194   -17242675.962 7 -11865755.41221
  19724936.4994  -21923433.60247 -17041357.69163
  22553551.6164   -2719293.82145  -2018351.91961
  19159267.7184  -26744835.73347 -18466978.17763
 91  5 13 22 26 44.9950000  0  4G13G 2G15G 6
  19730413.7264  -17286782.33047 -11900123.97761
  19726635.4444  -21914509.50148 -17034403.85263
  22554239.8824   -2715660.10745  -2015520.46161
  19157758.0234  -26752767.74947 -18473158.96263
 91  5 13 22 26 59.9950000  0  4G13G 2G15G 6
  19722043.6944  -17330756.87647 -11934389.81861
  19728343.2414  -21905533.78948 -17027409.78663
  22554961.9604   -2711882.67745  -2012577.01761
  19156269.4604  -26760590.93447 -18479254.93863
 91  5 13 22 27 14.9950000  0  4G13G 2G15G 6
  19713700.390   -17374604.315 7 -11968556.61121
  19730059.5934  -21896511.40447 -17020379.36963
  22555707.0234   -2707966.40545  -2009525.37261
  19154800.2654  -26768310.27547 -18485270.00063
 91  5 13 22 27 29.9950000  0  4G13G 2G15G 6
  19705382.507   -17418323.359 7 -12002623.35121
  19731786.6084  -21887441.13347 -17013311.62863
  22556478.3194   -2703910.28745  -2006364.76161
  19153350.6944  -26775924.55847 -18491203.19863
 91  5 13 22 27 44.9950000  0  4G13G 2G15G 6
  19697086.8274  -17461910.98547 -12036587.70661
  19733522.6794  -21878320.29047 -17006204.48263
  22557276.4134   -2699711.40245  -2003092.91261
  19151922.6634  -26783430.54147 -18497052.00563
 91  5 13 22 27 59.9950000  0  4G13G 2G15G 6
  19688816.7024  -17505369.67147 -12070451.57661
  19735267.2654  -21869151.42947 -16999059.92263
  22558103.5074   -2695372.41245  -1999711.87261
  19150515.4604  -26790830.71147 -18502818.36863
 91  5 13 22 28 14.9950000  0  4G13G 2G15G 6
  19680575.0464  -17548693.17947 -12104210.11861
  19737021.2734  -21859928.68247 -16991873.37063
  22558956.1084   -2690887.68945  -1996217.27261
  19149128.3274  -26798119.02447 -18508497.56663
 91  5 13 22 28 29.9950000  0  4G13G 2G15G 6
  19672355.6014  -17591883.69047 -12137865.02261
  19738786.9764  -21850654.83647 -16984647.00763
  22559839.4684   -2686259.60745  -1992610.96461
  19147760.1554  -26805297.82147 -18514091.42763
 91  5 13 22 28 44.9950000  0  4G13G 2G15G 6
  19664160.6404  -17634943.27347 -12171417.91061
  19740560.9054  -21841332.00447 -16977382.46963
  22560745.7024   -2681490.52645  -1988894.80061
  19146416.1874  -26812369.06547 -18519601.48163
 91  5 13 22 28 59.9950000  0  4G13G 2G15G 6
  19655992.1324  -17677867.74247 -12204865.50961
  19742344.7804  -21831956.33847 -16970076.76063
  22561675.9524   -2676576.53545  -1985065.72761
  19145091.5934  -26819328.62547 -18525024.51163
 91  5 13 22 29 14.9950000  0  4G13G 2G15G 6
  19647848.9604  -17720663.46847 -12238212.79361
  19744138.3354  -21822534.55747 -16962735.11463
  22562640.726    -2671524.236 5  -1981128.86621
  19143786.6554  -26826183.26347 -18530365.77863
 91  5 13 22 29 29.9950000  0  4G13G 2G15G 6
  19639729.9294  -17763328.41747 -12271458.16561
  19745939.3824  -21813064.92147 -16955356.18463
  22563630.5854   -2666331.99345  -1977082.97561
  19142503.2964  -26832930.72347 -18535623.53563
 91  5 13 22 29 44.9950000  0  4G13G 2G15G 6
  19631634.3664  -17805863.12247 -12304602.06261
  19747751.1874  -21803548.20647 -16947940.57163
  22564645.421    -2661000.921 5  -1972928.90521
  19141237.9604  -26839571.72347 -18540798.33763
 91  5 13 22 29 59.9950000  0  4G13G 2G15G 6
  19623565.5544  -17848267.47547 -12337644.38261
  19749571.0384  -21793984.06747 -16940488.00263
  22565683.1404   -2655530.47445  -1968666.22861
  19139996.3824  -26846105.89747 -18545889.90463
 91  5 13 22 30 14.9950000  0  4G13G 2G15G 6
  19615520.9054  -17890539.11547 -12370583.28461
  19751400.1014  -21784370.49747 -16932996.91263
  22566751.7184   -2649918.76345  -1964293.46161
  19138772.7734  -26852530.90247 -18550896.39563
 91  5 13 22 30 29.9950000  0  4G13G 2G15G 6
  19607503.9134  -17932677.61447 -12403418.45061
  19753239.0694  -21774707.45747 -16925467.28163
  22567846.8194   -2644165.60845  -1959810.47961
  19137571.3744  -26858846.44647 -18555817.59863
 91  5 13 22 30 44.9950000  0  4G13G 2G15G 6
  19599510.569   -17974680.869 7 -12436148.22721
  19755086.7654  -21764993.00647 -16917897.58563
  22568967.7654   -2638269.13845  -1955215.84661
  19136390.7024  -26865050.37847 -18560651.82763
 91  5 13 22 30 59.9950000  0  4G13G 2G15G 6
  19591543.0934  -18016548.81747 -12468772.57361
  19756945.5074  -21755227.30447 -16910287.95563
  22570117.3124   -2632229.73945  -1950509.82061
  19135231.3984  -26871142.76147 -18565399.13363
 91  5 13 22 31 14.9950000  0  4G13G 2G15G 6
  19583601.8194  -18058279.83047 -12501290.21661
  19758814.2574  -21745409.06947 -16902637.39063
  22571297.804    -2626046.017 5  -1945691.34821
  19134092.7964  -26877121.95547 -18570058.24663
 91  5 13 22 31 29.9950000  0  4G13G 2G15G 6
  19575685.3824  -18099876.43247 -12533703.12061
  19760691.8984  -21735540.96347 -16894947.96463
  22572498.398    -2619720.806 5  -1940762.63021
  19132978.9134  -26882990.51147 -18574631.15063
 91  5 13 22 31 44.9950000  0  4G13G 2G15G 6
  19567795.9444  -18141335.89147 -12566009.16061
  19762579.7334  -21725620.50647 -16887217.74763
  22573729.1874   -2613251.50745  -1935721.61361
  19131882.5154  -26888745.83047 -18579115.81363
 91  5 13 22 31 59.9950000  0  4G13G 2G15G 6
  19559934.5074  -18182657.18947 -12598207.54161
  19764476.1084  -21715647.07647 -16879446.24863
  22574988.2494   -2606637.51045  -1930567.85661
  19130808.3194  -26894386.98647 -18583511.52163
 91  5 13 22 32 14.9950000  0  4G13G 2G15G 6
  19552096.1164  -18223838.30147 -12630296.68861
  19766385.6084  -21705618.79047 -16871632.00863
  22576275.476    -2599877.087 5  -1925300.00221
  19129757.8904  -26899911.82547 -18587816.59663
 91  5 13 22 32 29.9950000  0  4G13G 2G15G 6
  19544284.3984  -18264887.95547 -12662283.39961
  19768304.2264  -21695544.41047 -16863781.84863
  22577591.233    -2592979.011 5  -1919924.86921
  19128725.4684  -26905328.94047 -18592037.72363
 91  5 13 22 32 44.9950000  0  4G13G 2G15G 6
  19536498.8824  -18305802.37347 -12694164.73561
  19770230.4834  -21685420.56647 -16855893.14063
  22578930.2964   -2585939.92345  -1914439.86561
  19127715.2494  -26910634.82347 -18596172.17863
 91  5 13 22 32 59.9950000  0  4G13G 2G15G 6
  19528739.2574  -18346581.72847 -12725940.81561
  19772164.7734  -21675247.41247 -16847966.01763
  22580295.702    -2578760.068 5  -1908845.18521
  19126727.7334  -26915829.45547 -18600219.94263
 91  5 13 22 33 14.9950000  0  4G13G 2G15G 6
  19521004.1324  -18387224.98947 -12757610.85661
  19774110.8664  -21665024.32047 -16839999.97163
  22581687.4444   -2571438.79845  -1903140.26261
  19125761.1874  -26920912.05547 -18604180.40663
 91  5 13 22 33 29.9950000  0  4G13G 2G15G 6
  19513296.9444  -18427730.52747 -12789173.58761
  19776066.1714  -21654750.11847 -16831994.11063
  22583107.0934   -2563974.79745  -1897324.15161
  19124816.1874  -26925881.00447 -18608052.32063
 91  5 13 22 33 44.9950000  0  4G13G 2G15G 6
  19505614.319   -18468096.929 7 -12820627.89721
  19778030.257   -21644423.515 7 -16823947.41823
  22584553.7654   -2556366.95145  -1891395.96161
  19123893.0074  -26930734.83147 -18611834.52563
 91  5 13 22 33 59.9950000  0  4G13G 2G15G 6
  19497960.0304  -18508321.59647 -12851971.76661
  19780007.5854  -21634042.07947 -16815857.99863
  22586028.6634   -2548612.87945  -1885353.82761
  19122989.4294  -26935471.15747 -18615525.17063
 91  5 13 22 34 14.9950000  0  4G13G 2G15G 6
  19490332.1714  -18548411.33947 -12883210.50261
  19781992.0464  -21623613.04247 -16807731.48263
  22587533.0234   -2540719.69145  -1879203.31261
  19122109.0624  -26940096.72147 -18619129.50563
 91  5 13 22 34 29.9950000  0  4G13G 2G15G 6
  19482729.9374  -18588361.12347 -12914340.17161
  19783985.1634  -21613131.56747 -16799564.10563
  22589059.194    -2532683.183 5  -1872941.10621
  19121251.1014  -26944606.64747 -18622643.73763
 91  5 13 22 34 44.9950000  0  4G13G 2G15G 6
  19475154.7574  -18628170.09347 -12945360.12061
  19785990.1634  -21602596.61547 -16791355.05963
  22590622.905    -2524501.995 5  -1866566.15521
  19120415.5304  -26948999.77747 -18626066.95663
 91  5 13 22 34 59.9950000  0  4G13G 2G15G 6
  19467605.421   -18667838.889 7 -12976270.84421
  19788005.7734  -21592008.83547 -16783104.84663
  22592200.687    -2516177.140 5  -1860079.27521
  19119600.6014  -26953276.70047 -18629399.62363
 91  5 13 22 35 14.9950000  0  4G13G 2G15G 6
  19460082.835   -18707367.329 7 -13007072.19721
  19790031.9214  -21581368.57547 -16774813.74263
  22593815.726    -2507708.965 5  -1853480.70921
  19118811.3664  -26957437.33747 -18632641.68163
 91  5 13 22 35 29.9950000  0  4G13G 2G15G 6
  19452588.476   -18746754.566 7 -13037763.52322
  19792063.4444  -21570675.33547 -16766481.35163
  22595455.6084   -2499096.67445  -1846769.83961
  19118041.1324  -26961480.98247 -18635792.57263
 91  5 13 22 35 44.9950000  0  4G13G 2G15G 6
  19445120.460   -18785996.987 7 -13068342.00821
  19794112.2264  -21559925.65847 -16758104.98863
  22597119.304    -2490337.034 5  -1839944.17121
  19117293.6554  -26965404.19447 -18638849.62363
 91  5 13 22 35 59.9950000  0  4G13G 2G15G 6
  19437680.9524  -18825095.24047 -13098808.14561
  19796166.1084  -21549120.40847 -16749685.31363
  22598813.4994   -2481431.11145  -1833004.49061
  19116570.8194  -26969207.57447 -18641813.29563
 91  5 13 22 36 14.9950000  0  4G13G 2G15G 6
  19430266.3664  -18864050.67247 -13129163.00261
  19798234.3274  -21538261.20847 -16741223.60563
  22600537.9834   -2472380.39245  -1825951.98961
  19115869.0544  -26972892.32347 -18644684.53263
 91  5 13 22 36 29.9950000  0  4G13G 2G15G 6
  19422881.804   -18902861.525 7 -13159405.20321
  19800310.6014  -21527346.24548 -16732718.44263
  22602290.491    -2463183.130 5  -1818785.31021
  19115190.8984  -26976456.76547 -18647462.02363
 91  5 13 22 36 44.9950000  0  4G13G 2G15G 6
  19415523.702   -18941527.757 7 -13189534.71121
  19802397.1794  -21516375.93747 -16724170.15463
  22604065.944    -2453839.961 5  -1811504.93621
  19114535.8044  -26979901.11647 -18650145.93763
 91  5 13 22 36 59.9950000  0  3G13G 2G 6
  19408194.812   -18980052.112 7 -13219553.66221
  19804495.7734  -21505353.32847 -16715581.10763
  19113903.1404  -26983227.90847 -18652738.24563
 91  5 13 22 37 14.9950000  0  3G13G 2G 6
  19400888.108   -19018433.623 7 -13249461.31321
  19806603.3664  -21494277.65447 -16706950.72063
  19113292.3274  -26986436.27247 -18655238.27063
 91  5 13 22 37 29.9950000  0  3G13G 2G 6
  19393612.804   -19056671.871 7 -13279257.32321
  19808720.4604  -21483148.54647 -16698278.69863
  19112703.4374  -26989525.78447 -18657645.68463
 91  5 13 22 37 44.9950000  0  3G13G 2G 6
  19386363.6714  -19094765.79247 -13308940.87661
  19810848.8824  -21471965.12447 -16689564.34963
  19112138.7884  -26992495.44747 -18659959.71163
 91  5 13 22 37 59.9950000  0  3G13G 2G 6
  19379143.7734  -19132709.89247 -13338507.67961
  19812987.7574  -21460721.94647 -16680803.43463
  19111598.3984  -26995339.65847 -18662175.97863
 91  5 13 22 38 14.9950000  0  3G13G 2G 6
  19371950.554   -19170506.914 7 -13367959.87522
  19815139.2024  -21449421.98247 -16671998.27263
  19111079.9134  -26998061.22047 -18664296.67963
 91  5 13 22 38 29.9950000  0  3G13G 2G 6
  19364786.780   -19208156.777 7 -13397297.40822
  19817299.1554  -21438065.51047 -16663149.08563
  19110585.6244  -27000660.08147 -18666321.76663
 91  5 13 22 38 44.9950000  0  3G13G 2G 6
  19357650.2334  -19245662.67647 -13426522.75862
  19819471.9684  -21426655.73747 -16654258.35463
  19110112.8664  -27003139.45047 -18668253.74263
 91  5 13 22 38 59.9950000  0  3G13G 2G 6
  19350539.569   -19283025.027 7 -13455636.25322
  19821652.4524  -21415193.38947 -16645326.66163
  19109665.0154  -27005499.83647 -18670093.00563
 91  5 13 22 39 14.9950000  0  3G13G 2G 6
  19343457.273   -19320238.878 7 -13484634.03622
  19823843.9684  -21403673.48347 -16636350.12463
  19109239.3584  -27007736.07747 -18671835.53163
 91  5 13 22 39 29.9950000  0  3G13G 2G 6
  19336404.5304  -19357308.56147 -13513519.47162
  19826046.9524  -21392100.87747 -16627332.51963
  19108835.8904  -27009852.71347 -18673484.86463
 91  5 13 22 39 44.9950000  0  3G13G 2G 6
  19329377.9054  -19394232.25747 -13542291.15862
  19828258.3194  -21380473.64747 -16618272.35163
  19108456.3584  -27011847.82347 -18675039.49563
 91  5 13 22 39 59.9950000  0  3G13G 2G 6
  19322378.671   -19431009.640 7 -13570948.83221
  19830483.374   -21368791.772 7 -16609169.60623
  19108100.5234  -27013721.04347 -18676499.15163
 91  5 13 22 40 14.9950000  0  3G13G 2G 6
  19315409.2804  -19467637.57647 -13599490.05661
  19832716.733   -21357052.454 7 -16600022.10123
  19107767.1634  -27015469.47947 -18677861.57263
 91  5 13 22 40 29.9950000  0  3G13G 2G 6
  19308466.507   -19504118.675 7 -13627916.86521
  19834960.905   -21345258.241 7 -16590831.81623
  19107456.9914  -27017095.61747 -18679128.69463
 91  5 13 22 40 44.9950000  0  3G13G 2G 6
  19301552.0234  -19540450.81847 -13656227.59662
  19837217.6324  -21333407.31447 -16581597.33563
  19107172.3984  -27018597.34247 -18680298.86563
 91  5 13 22 40 59.9950000  0  3G13G 2G 6
  19294666.273   -19576637.821 7 -13684425.24121
  19839481.108   -21321503.444 7 -16572321.60323
  19106908.9834  -27019978.34047 -18681374.97563
 91  5 13 22 41 14.9950000  0  3G13G 2G 6
  19287809.7184  -19612677.55847 -13712508.12861
  19841755.819   -21309544.768 7 -16563003.17323
  19106669.4914  -27021236.70847 -18682355.52463
 91  5 13 22 41 29.9950000  0  3G13G 2G 6
  19280976.429   -19648569.875 7 -13740476.14721
  19844043.2964  -21297531.47147 -16553642.17163
  19106453.9684  -27022372.25947 -18683240.37463
 91  5 13 22 41 44.9950000  0  3G13G 2G 6
  19274176.7494  -19684315.28147 -13768329.68161
  19846340.116   -21285464.221 7 -16544239.13223
  19106262.0154  -27023385.52547 -18684029.92663
 91  5 13 22 41 59.9950000  0  3G13G 2G 6
  19267403.7414  -19719910.00747 -13796065.80161
  19848647.483   -21273339.484 7 -16534791.29723
  19106090.9994  -27024272.67847 -18684721.22163
 91  5 13 22 42 14.9950000  0  3G13G 2G 6
  19260658.273   -19755354.254 7 -13823684.67321
  19850964.4134  -21261157.58347 -16525298.92263
  19105944.8904  -27025033.97247 -18685314.43763
 91  5 13 22 42 29.9950000  0  3G13G 2G 6
  19253940.694   -19790654.048 7 -13851190.98521
  19853292.890   -21248924.625 7 -16515766.75623
  19105825.4834  -27025675.61647 -18685814.42163
 91  5 13 22 42 44.9950000  0  3G13G 2G 6
  19247250.968   -19825809.470 7 -13878584.79522
  19855629.5624  -21236640.70747 -16506194.88363
  19105723.5774  -27026197.43047 -18686221.03663
 91  5 13 22 42 59.9950000  0  3G13G 2G 6
  19240588.327   -19860818.531 7 -13905864.55821
  19857977.0934  -21224304.09147 -16496581.94863
  19105647.6404  -27026597.41247 -18686532.70863
 91  5 13 22 43 14.9950000  0  3G13G 2G 6
  19233953.976   -19895682.785 7 -13933031.48622
  19860335.3904  -21211916.67447 -16486929.42263
  19105597.5544  -27026877.38147 -18686750.87663
 91  5 13 22 43 29.9950000  0  3G13G 2G 6
  19227347.468   -19930399.386 7 -13960083.36322
  19862701.4524  -21199475.44647 -16477234.97063
  19105567.6164  -27027034.12247
 91  5 13 22 43 44.9950000  0  3G13G 2G 6
  19220769.999   -19964967.787 7 -13987019.75721
  19865079.9834  -21186979.99547 -16467498.26463
  19105562.1634  -27027067.12747
